     2.11           OBSERVATION DATA    G (GPS)             RINEX VERSION / TYPE
teqc 2010Oct21 OPUS Account 20111027 18:55:25UTC            PGM / RUN BY / DATE
B 1526                                                      MARKER NAME
3038                                                        MARKER NUMBER
CSMIDDLETON NGS                                             OBSERVER / AGENCY
4624K01615 TRIMBLE NETR5 4.41                               REC # / TYPE / VERS
12338145 TRM41249.00 NONE                                   ANT # / TYPE
  -755942.7283 -5562259.2100  3018222.8617                  APPROX POSITION XYZ
        2.0000        0.0000        0.0000                  ANTENNA: DELTA H/E/N
     1     1                                                WAVELENGTH FACT L1/2
     5    L1    L2    C1    P1    P2                        # / TYPES OF OBSERV
    15                                                      LEAP SECONDS
  2011     8    18    16     3    0.0000000     GPS         TIME OF FIRST OBS
                                                            END OF HEADER
 11  8 18 16  3  0.0000000  0 10G13G10G19G07G20G16G06G08G03G23
 105670828.70118  82341000.56556  20108508.531                    20108515.305
 125344952.31916  97671444.48354  23852358.070                    23852367.910
 112018407.88218  87287091.12956  21316394.180                    21316400.398
 118121805.24317  92043067.46517  22477852.289                    22477860.242
 128789303.33116 100355378.49753  24507799.680                    24507808.914
 119677328.79417  93255108.49454  22773844.477                    22773851.949
 118210191.75717  92111863.04255  22494651.977                    22494660.656
 128583092.15416 100194643.74053  24468545.188                    24468554.898
 109832940.26918  85584132.58855  20900513.461                    20900521.750
 105996696.21418  82594850.55756  20170502.195                    20170507.301
 11  8 18 16  3 30.0000000  0 10G13G10G19G07G20G16G06G08G03G23
 105649174.049 8  82324126.81346  20104387.969                    20104394.781
 125346768.161 6  97672859.40344  23852703.516                    23852713.246
 111971075.695 8  87250208.90346  21307387.695                    21307393.094
 118065619.180 7  91999286.117 7  22467160.703                    22467168.535
 128874180.109 6 100421516.19943  24523951.813                    24523960.500
 119766236.886 7  93324387.46144  22790763.125                    22790770.938
 118262213.815 7  92152399.65945  22504551.313                    22504560.098
 128518233.354 6 100144104.45643  24456203.766                    24456213.059
 109858358.999 8  85603939.37645  20905350.688                    20905358.773
 106032543.817 8  82622783.72746  20177323.625                    20177328.684
 11  8 18 16  4  0.0000000  0 10G13G10G19G07G20G16G06G08G03G23
 105628058.985 7  82307673.52146  20100369.859                    20100376.492
 125349067.779 6  97674651.29944  23853141.523                    23853150.961
 111924259.296 8  87213728.60846  21298478.227                    21298484.402
 118009450.557 7  91955518.401 7  22456472.219                    22456479.906
 128958930.605 5 100487555.52442  24540078.391                    24540087.930
 119855217.009 7  93393722.57544  22807695.617                    22807702.914
 118314724.601 7  92193317.14245  22514544.047                    22514552.168
 128453313.864 6 100093517.94443  24443849.672                    24443859.184
 109884397.227 8  85624228.89145  20910305.789                    20910313.602
 106068952.279 8  82651153.93246  20184252.430                    20184257.395
 11  8 18 16  4 30.0000000  0 10G13G10G19G07G20G16G06G08G03G23
 105607484.205 8  82291641.21846  20096454.641                    20096461.055
 125351849.379 6  97676818.75944  23853670.734                    23853680.418
 111877960.248 8  87177651.43746  21289668.180                    21289673.957
 117953298.991 7  91911763.949 7  22445786.719                    22445794.285
 129043551.881 6 100553494.10243  24556181.039                    24556190.570
 119944266.083 7  93463111.41144  22824641.008                    22824648.449
 118367721.600 7  92234613.46245  22524628.969                    22524637.570
 128388332.489 6 100042883.16043  24431483.742                    24431493.512
 109911053.085 7  85644999.68245  20915378.547                    20915386.266
 106105919.977 8  82679959.90846  20191286.781                    20191292.059
 11  8 18 16  5  0.0000000  0 10G13G10G19G07G20G16G06G08G03G23
 105587451.313 8  82276031.17546  20092642.453                    20092649.094
 125355111.810 6  97679360.88744  23854291.203                    23854301.223
 111832180.394 8  87141978.84346  21280956.195                    21280962.383
 117897164.232 7  91868022.604 7  22435104.953                    22435112.547
 129128041.083 6 100619329.85943  24572259.648                    24572268.652
 120033381.843 7  93532552.19544  22841599.234                    22841607.320
 118421202.923 7  92276287.17545  22534806.758                    22534814.305
 128323288.560 6  99992199.61443  24419106.445                    24419116.273
 109938325.423 8  85666250.84145  20920567.742                    20920575.961
 106143446.276 8  82709201.15246  20198428.133                    20198433.145
 11  8 18 16  5 30.0000000  0 10G13G10G19G07G20G16G06G08G03G23
 105567961.591 8  82260844.38046  20088933.742                    20088940.309
 125358853.682 6  97682276.59744  23855003.773                    23855013.375
 111786921.870 8  87106712.47846  21272343.773                    21272349.695
 117841046.662 7  91824294.649 7  22424425.773                    22424433.508
 129212396.009 6 100685060.90243  24588312.281                    24588320.855
 120122561.996 7  93602043.18144  22858569.234                    22858577.227
 118475166.605 7  92318336.78245  22545075.609                    22545083.750
 128258181.831 6  99941467.15343  24406716.758                    24406726.336
 109966213.272 8  85687981.61045  20925874.984                    20925882.992
 106181530.452 8  82738877.10546  20205675.125                    20205680.250
 11  8 18 16  6  0.0000000  0 10G13G10G19G07G20G16G06G08G03G23
 105549016.811 7  82246082.20646  20085328.391                    20085335.105
 125363074.503 6  97685565.53944  23855806.773                    23855816.160
 111742187.152 8  87071854.26346  21263831.492                    21263837.430
 117784947.125 7  91780580.744 7  22413750.766                    22413758.078
 129296613.936 6 100750685.18243  24604338.461                    24604346.926
 120211804.946 7  93671583.06444  22875552.836                    22875560.000
 118529611.598 7  92360761.39644  22555435.422                    22555444.379
 128193012.754 6  99890686.14843  24394315.688                    24394324.992
 109994715.733 8  85710191.30645  20931298.938                    20931306.371
 106220172.287 8  82768987.60046  20213028.625                    20213033.609
 11  8 18 16  6 30.0000000  0 10G13G10G19G07G20G16G06G08G03G23
 105530618.805 8  82231746.09346  20081827.391                    20081834.313
 125367773.398 7  97689226.98044  23856701.047                    23856710.953
 111697978.656 8  87037406.11446  21255418.625                    21255424.813
 117728866.249 7  91736881.376 7  22403078.961                    22403086.402
 129380693.088 6 100816201.39642  24620338.258                    24620346.832
 120301108.753 7  93741170.38544  22892547.031                    22892554.172
 118584536.231 7  92403559.78244  22565887.352                    22565896.352
 128127780.745 6  99839856.10343  24381902.156                    24381912.125
 110023832.688 7  85732879.82345  20936839.328                    20936847.594
 106259371.594 8  82799532.48746  20220487.875                    20220493.090
 11  8 18 16  7  0.0000000  0 10G13G10G19G07G20G16G06G08G03G23
 105512768.923 8  82217837.08846  20078431.055                    20078437.723
 125372948.927 6  97693259.82444  23857686.547                    23857695.680
 111654298.590 8  87003369.71646  21247106.773                    21247112.508
 117672804.491 7  91693196.912 7  22392410.070                    22392417.879
 129464631.018 6 100881607.50643  24636310.664                    24636320.109
 120390471.450 7  93810803.58044  22909551.438                    22909559.031
 118639938.793 7  92446730.56845  22576430.430                    22576439.340
 128062485.905 6  99788977.06743  24369476.266                    24369487.117
 110053562.773 8  85756046.08545  20942496.867                    20942504.313
 106299127.407 8  82830511.02246  20228053.281                    20228058.672
 11  8 18 16  7 30.0000000  0 10G13G10G19G07G20G16G06G08G03G23
 105495468.461 8  82204356.19646  20075138.656                    20075144.793
 125378599.798 6  97697663.08844  23858761.969                    23858771.141
 111611149.305 8  86969746.93346  21238895.664                    21238901.262
 117616761.983 7  91649527.444 7  22381745.977                    22381753.590
 129548425.459 6 100946901.86443  24652256.141                    24652265.258
 120479890.830 7  93880480.94844  22926567.031                    22926575.590
 118695817.256 7  92490272.17345  22587063.820                    22587072.613
 127997127.910 6  99738048.85743  24357039.578                    24357049.621
 110083904.766 7  85779689.16845  20948271.219                    20948279.266
 106339438.846 8  82861922.51346  20235724.125                    20235729.465
 11  8 18 16  8  0.0000000  0 10G13G10G19G07G20G16G06G08G03G23
 105478718.878 7  82191304.55946  20071951.508                    20071958.266
 125384725.140 7  97702436.06144  23859927.141                    23859936.344
 111568532.264 8  86936538.87746  21230785.680                    21230791.797
 117560739.367 7  91605873.486 7  22371084.898                    22371092.355
 129632074.177 6 101012082.68643  24668174.063                    24668182.836
 120569365.135 7  93950201.13744  22943593.773                    22943601.863
 118752170.080 7  92534183.41745  22597787.586                    22597795.805
 127931706.632 6  99687071.28143  24344590.031                    24344600.375
 110114857.987 7  85803808.53245  20954161.023                    20954169.184
 106380305.401 8  82893766.55846  20243501.016                    20243506.250
 11  8 18 16  8 30.0000000  0 10G13G10G19G07G20G16G06G08G03G23
 105462521.580 8  82178683.28146  20068869.133                    20068875.699
 125391323.900 7  97707577.93244  23861183.008                    23861191.723
 111526449.881 8  86903747.44246  21222777.953                    21222783.738
 117504737.227 7  91562235.464 7  22360427.781                    22360435.316
 129715574.561 6 101077147.90542  24684063.805                    24684072.797
 120658892.110 7  94019962.32244  22960630.891                    22960638.281
 118808995.562 7  92578462.96345  22608601.531                    22608609.488
 127866222.023 6  99636044.38143  24332128.531                    24332139.055
 110146421.294 7  85828403.28745  20960167.258                    20960175.461
 106421726.194 8  82926042.48246  20251383.117                    20251388.094
 11  8 18 16  9  0.0000000  0 10G13G10G19G07G20G16G06G08G03G23
 105446878.493 7  82166493.84846  20065892.695                    20065899.289
 125398394.942 7  97713087.84244  23862528.273                    23862537.438
 111484904.408 8  86871374.37446  21214871.703                    21214877.488
 117448756.058 7  91518613.790 7  22349775.047                    22349782.855
 129798924.515 6 101142095.85942  24699924.781                    24699932.996
 120748470.254 7  94089763.41844  22977676.875                    22977684.238
 118866292.050 7  92623109.52644  22619504.070                    22619512.898
 127800674.064 6  99584968.11243  24319654.859                    24319665.441
 110178593.869 7  85853472.79345  20966289.734                    20966297.637
 106463700.972 8  82958750.07146  20259370.789                    20259375.484
 11  8 18 16  9 30.0000000  0 10G13G10G19G07G20G16G06G08G03G23
 105431790.747 7  82154737.14946  20063021.109                    20063027.836
 125405936.938 7  97718964.69344  23863964.102                    23863973.371
 111443898.107 8  86839421.44646  21207068.648                    21207074.367
 117392796.403 7  91475008.883 7  22339126.242                    22339133.695
 129882121.727 6 101206924.82843  24715756.797                    24715765.531
 120838097.414 7  94159602.71044  22994731.969                    22994739.801
 118924057.779 7  92668121.76744  22630496.031                    22630504.551
 127735062.235 6  99533842.04643  24307170.063                    24307179.918
 110211374.498 7  85879016.10745  20972527.453                    20972535.359
 106506228.937 8  82991888.71746  20267463.383                    20267468.402
 11  8 18 16 10  0.0000000  0 10G13G10G19G07G20G16G06G08G03G23
 105417259.665 7  82143414.22046  20060256.063                    20060262.668
 125413948.504 7  97725207.46644  23865487.383                    23865497.637
 111403432.780 8  86807890.05646  21199368.164                    21199373.797
 117336858.582 7  91431420.993 7  22328482.219                    22328489.246
 129965163.971 5 101271633.02042  24731558.766                    24731568.605
 120927771.559 7  94229478.57544  23011796.391                    23011805.035
 118982290.713 7  92713498.03944  22641577.930                    22641587.008
 127669386.575 7  99482666.22143  24294672.828                    24294682.305
 110244761.576 7  85905031.98045  20978880.898                    20978889.160
 106549308.782 8  83025457.40746  20275661.477                    20275665.965
 11  8 18 16 10 30.0000000  0 10G13G10G19G07G20G16G06G08G03G23
 105403286.204 7  82132525.79746  20057596.898                    20057603.598
 125422428.477 7  97731815.22544  23867102.055                    23867111.195
 111363510.237 8  86776781.61046  21191771.383                    21191776.953
 117280943.118 7  91387850.531 7  22317841.516                    22317848.918
 130048048.919 5 101336218.57842  24747331.164                    24747340.996
 121017490.509 7  94299389.36644  23028870.406                    23028877.656
 119040988.976 7  92759236.88944  22652748.219                    22652756.063
 127603646.505 7  99431440.21443  24282162.820                    24282172.016
 110278754.525 7  85931519.96245  20985349.328                    20985357.750
 106592939.752 8  83059455.53846  20283964.234                    20283969.008
 11  8 18 16 11  0.0000000  0 10G13G10G19G07G20G16G06G08G03G23
 105389872.425 7  82122073.48846  20055044.500                    20055051.379
 125431376.122 7  97738787.41344  23868804.375                    23868813.484
 111324133.012 8  86746098.08546  21184277.805                    21184283.918
 117225050.623 7  91344297.961 7  22307205.734                    22307212.930
 130130774.356 5 101400679.95742  24763074.227                    24763082.324
 121107252.871 7  94369333.97644  23045951.219                    23045958.859
 119100151.038 7  92805337.16444  22664006.102                    22664014.555
 127537842.691 6  99380164.56043  24269640.797                    24269649.848
 110313352.222 8  85958479.18445  20991933.109                    20991941.250
 106637121.698 8  83093883.00746  20292371.508                    20292376.477
 11  8 18 16 11 30.0000000  0 10G13G10G19G07G20G16G06G08G03G23
 105377019.110 8  82112057.90146  20052599.109                    20052605.020
 125440789.564 7  97746122.54144  23870595.797                    23870605.117
 111285302.613 8  86715840.65846  21176888.883                    21176894.535
 117169181.563 7  91300763.661 7  22296573.789                    22296581.656
 130213337.960 6 101465015.15943  24778785.297                    24778794.098
 121197056.406 7  94439310.73044  23063039.875                    23063047.590
 119159774.734 7  92851797.13145  22675352.563                    22675361.254
 127471974.293 6  99328838.53343  24257105.477                    24257115.098
 110348553.433 7  85985908.67145  20998632.063                    20998640.055
 106681853.023 8  83128738.55546  20300883.578                    20300888.688
 11  8 18 16 12  0.0000000  0  9G13G10G19G07G16G06G08G03G23
 105364727.075 7  82102479.68546  20050259.719                    20050266.391
 125450667.081 7  97753819.29844  23872475.695                    23872484.762
 111247020.513 8  86686010.47046  21169603.938                    21169609.871
 117113335.814 7  91257247.525 7  22285946.555                    22285954.344
 121286898.632 7  94509317.57244  23080136.547                    23080144.027
 119219857.742 7  92898615.03444  22686785.180                    22686793.820
 127406041.055 6  99277461.94142  24244559.141                    24244568.121
 110384356.111 8  86013806.84545  21005444.898                    21005452.863
 106727132.341 8  83164021.11246  20309500.164                    20309505.465
 11  8 18 16 12 30.0000000  0  9G13G10G19G07G16G06G08G03G23
 105352998.611 8  82093340.60846  20048027.586                    20048034.613
 125461008.054 7  97761877.18244  23874443.266                    23874452.758
 111209289.654 8  86656609.82446  21162423.891                    21162430.047
 117057515.061 7  91213750.860 7  22275324.078                    22275331.945
 121376778.570 7  94579353.82644  23097240.195                    23097247.695
 119280398.913 7  92945789.92445  22698306.422                    22698315.203
 127340043.731 6  99226035.49542  24231999.875                    24232009.965
 110420759.791 8  86042173.34045  21012372.500                    21012380.656
 106772959.885 8  83199730.87146  20318220.703                    20318225.879
 11  8 18 16 13  0.0000000  0  9G13G10G19G07G16G06G08G03G23
 105341834.782 8  82084641.51846  20045903.203                    20045909.742
 125471811.274 7  97770295.25144  23876499.156                    23876508.105
 111172111.762 8  86627640.04546  21155349.305                    21155354.750
 117001719.634 7  91170273.927 7  22264707.195                    22264714.551
 121466693.948 7  94649417.69944  23114350.414                    23114357.738
 119341396.379 7  92993320.37544  22709913.320                    22709922.430
 127273981.966 6  99174558.87043  24219429.023                    24219438.379
 110457763.464 8  86071007.35045  21019413.953                    21019422.184
 106819334.624 8  83235867.00146  20327045.820                    20327050.898
 11  8 18 16 13 30.0000000  0  9G13G10G19G07G16G06G08G03G23
 105331237.223 8  82076383.67546  20043886.594                    20043893.277
 125483075.544 7  97779072.60544  23878642.547                    23878651.813
 111135488.823 8  86599102.71446  21148380.367                    21148386.203
 116945950.079 7  91126817.163 7  22254094.047                    22254101.902
 121556643.380 7  94719508.09744  23131466.977                    23131475.902
 119402848.407 7  93041205.03744  22721607.656                    22721615.688
 127207855.967 6  99123032.19843  24206845.609                    24206855.230
 110495365.610 7  86100307.70245  21026569.336                    21026577.582
 106866255.354 8  83272428.59346  20335974.313                    20335979.645
 11  8 18 16 14  0.0000000  0  9G13G10G19G07G16G06G08G03G23
 105321205.660 8  82068566.86846  20041977.891                    20041984.586
 125494798.607 7  97788207.44044  23880873.047                    23880882.852
 111099422.038 8  86570998.73946  21141516.641                    21141522.668
 116890206.311 7  91083380.481 7  22243486.391                    22243494.031
 121646624.205 7  94789622.94644  23148590.586                    23148597.875
 119464752.336 7  93089441.81444  22733387.688                    22733396.938
 127141664.864 6  99071454.80643  24194250.508                    24194259.449
 110533564.558 8  86130073.10145  21033838.313                    21033846.246
 106913720.539 8  83309414.42446  20345006.922                    20345011.746
 11  8 18 16 14 30.0000000  0  9G13G10G19G07G16G06G08G03G23
 105311742.307 7  82061192.82346  20040177.039                    20040183.855
 125506979.586 7  97797699.12744  23883190.969                    23883200.910
 111063913.786 8  86543329.99246  21134760.148                    21134765.938
 116834489.337 7  91039964.675 7  22232883.789                    22232891.527
 121736635.068 7  94859761.19244  23165719.094                    23165727.242
 119527106.617 7  93138029.52844  22745253.664                    22745261.184
 127075409.095 6  99019826.98343  24181642.117                    24181652.090
 110572359.301 8  86160302.75145  21041220.914                    21041228.961
 106961729.832 8  83346824.24346  20354142.453                    20354147.832
 11  8 18 16 15  0.0000000  0  9G13G10G19G07G16G06G08G03G23
 105302847.439 7  82054261.75646  20038484.109                    20038491.055
 125519616.841 6  97807546.30744  23885596.063                    23885605.883
 111028965.414 8  86516097.51346  21128109.273                    21128115.121
 116778799.331 7  90996569.894 7  22222286.500                    22222293.664
 121826673.276 7  94929920.79444  23182851.844                    23182859.918
 119589908.848 7  93186966.31144  22757203.367                    22757212.762
 127009088.161 6  98968148.40543  24169021.492                    24169031.277
 110611747.947 8  86190995.18245  21048716.625                    21048723.965
 107010281.584 8  83384656.75346  20363381.617                    20363386.563
 11  8 18 16 15 30.0000000  0  9G13G10G19G07G16G06G08G03G23
 105294522.879 7  82047775.08146  20036900.484                    20036906.984
 125532709.059 6  97817748.02943  23888087.445                    23888097.492
 110994578.981 8  86489302.90546  21121565.656                    21121571.637
 116723137.366 7  90953196.957 7  22211694.156                    22211701.824
 121916737.978 7  95000100.99244  23199991.078                    23199999.484
 119653157.603 7  93236250.98444  22769240.133                    22769248.684
 126942702.366 6  98916419.28643  24156389.578                    24156398.766
 110651729.260 8  86222149.42445  21056324.875                    21056332.340
 107059375.077 8  83422911.39746  20372723.984                    20372729.051
 11  8 18 16 16  0.0000000  0  9G13G10G19G07G16G06G08G03G23
 105286769.965 8  82041733.84746  20035424.703                    20035431.273
 125546254.978 6  97828303.27744  23890665.195                    23890674.641
 110960756.492 8  86462947.72546  21115129.539                    21115135.246
 116667504.149 7  90909846.420 7  22201108.148                    22201115.203
 122006827.165 7  95070300.31244  23217134.250                    23217141.691
 119716850.732 7  93285881.97744  22781360.289                    22781368.633
 126876251.760 7  98864639.64943  24143744.141                    24143753.680
 110692302.245 8  86253764.72145  21064045.008                    21064053.344
 107109009.756 8  83461587.75146  20382169.156                    20382174.246
 11  8 18 16 16 30.0000000  0  9G13G10G19G07G16G06G08G03G23
 105279589.457 8  82036138.63746  20034058.227                    20034064.664
 125560252.971 6  97839210.81943  23893329.000                    23893338.785
 110927499.576 8  86437033.24946  21108801.102                    21108807.016
 116611900.279 7  90866518.749 7  22190526.359                    22190534.258
 122096939.045 7  95140517.29644  23234282.094                    23234291.027
 119780986.492 7  93335857.83745  22793565.250                    22793574.152
 126809736.031 6  98812809.26843  24131085.797                    24131095.398
 110733465.174 8  86285839.69945  21071878.477                    21071886.336
 107159184.180 8  83500684.67946  20391716.836                    20391722.055
 11  8 18 16 17  0.0000000  0  9G13G10G19G07G16G06G08G03G23
 105272982.584 7  82030990.42246  20032801.047                    20032807.625
 125574701.732 6  97850469.58543  23896078.102                    23896088.168
 110894809.857 7  86411560.74746  21102580.422                    21102585.988
 116556326.411 7  90823214.450 7  22179951.008                    22179959.145
 122187071.739 7  95210750.51944  23251434.750                    23251441.637
 119845562.645 7  93386176.86944  22805853.539                    22805862.398
 126743155.370 6  98760928.27943  24118416.977                    24118425.410
 110775216.720 8  86318373.35445  21079823.766                    21079831.477
 107209897.262 8  83540201.34546  20401367.484                    20401372.793
 11  8 18 16 17 30.0000000  0  9G13G10G19G07G16G06G08G03G23
 105266950.927 8  82026290.42146  20031653.336                    20031660.344
 125589599.733 6  97862078.37144  23898913.039                    23898923.574
 110862689.620 8  86386531.97546  21096467.969                    21096473.754
 116500783.618 7  90779934.375 7  22169381.508                    22169389.188
 122277223.976 7  95280998.90744  23268589.953                    23268598.609
 119910577.543 7  93436837.79245  22818225.977                    22818234.367
 126676509.795 6  98708996.71643  24105733.734                    24105742.426
 110817555.718 8  86351364.75445  21087880.367                    21087888.148
 107261148.294 8  83580137.19246  20411120.266                    20411125.484
 11  8 18 16 18  0.0000000  0 10G28G13G10G19G07G16G06G08G03G23
 129671186.68616                  24675621.461
 105261494.199 8  82022038.42246  20030615.156                    20030621.676
 125604944.978 6  97874035.70844  23901833.484                    23901843.043
 110831139.818 8  86361947.70346  21090464.539                    21090469.965
 116445272.008 7  90736678.608 7  22158818.297                    22158825.625
 122367393.253 7  95351260.66244  23285748.352                    23285756.023
 119976028.747 7  93487838.65344  22830680.211                    22830689.785
 126609799.010 6  98657014.32843  24093038.797                    24093048.629
 110860480.281 8  86384812.43945  21096048.766                    21096056.578
 107312935.257 8  83620490.64846  20420974.680                    20420979.961
 11  8 18 16 18 30.0000000  0 10G28G13G10G19G07G16G06G08G03G23
 129597382.140 6 100985066.50153  24661577.516                    24661585.703
 105256614.452 8  82018236.02146  20029686.555                    20029693.730
 125620736.772 6  97886340.98244  23904838.016                    23904848.586
 110800162.712 7  86337809.67546  21084569.453                    21084575.227
 116389792.881 7  90693448.150 7  22148260.430                    22148268.035
 122457578.702 7  95421534.93044  23302910.414                    23302918.668
 120041914.671 7  93539178.28444  22843218.281                    22843226.660
 126543023.643 6  98604981.64743  24080332.125                    24080340.895
 110903989.462 8  86418715.67445  21104328.289                    21104336.418
 107365257.796 8  83661261.43246  20430931.609                    20430936.625
 11  8 18 16 19  0.0000000  0 11G28G13G10G19G11G07G16G06G08G03G23
 129523791.410 6 100927723.07943  24647573.406                    24647582.500
 105252313.000 7  82014884.23446  20028867.711                    20028874.832
 125636973.904 6  97898993.26044  23907927.789                    23907938.246
 110769760.407 8  86314119.55746  21078784.148                    21078790.133
 130208673.83716                  24777889.227
 116334346.904 7  90650243.520 7  22137709.867                    22137717.238
 122547778.689 6  95491820.58444  23320074.031                    23320082.164
 120108233.738 7  93590855.43144  22855837.875                    22855847.637
 126476183.729 6  98552898.63043  24067613.555                    24067621.945
 110948081.660 8  86453073.19645  21112718.703                    21112726.699
 107418115.013 8  83702448.85746  20440990.031                    20440995.617
 11  8 18 16 19 30.0000000  0 11G28G13G10G19G11G07G16G06G08G03G23
 129450414.280 6 100870546.05943  24633610.070                    24633619.352
 105248589.982 8  82011983.17646  20028159.648                    20028166.023
 125653653.725 6  97911990.48643  23911102.914                    23911112.637
 110739933.384 8  86290877.71646  21073108.625                    21073114.039
 130135450.153 6 101404301.77053  24763956.313                    24763966.785
 116278934.118 7  90607064.760 7  22127165.281                    22127172.398
 122637990.461 7  95562115.39544  23337241.727                    23337249.797
 120174982.880 7  93642867.70344  22868540.633                    22868548.594
 126409278.726 6  98500764.90343  24054881.313                    24054890.883
 110992754.580 7  86487883.23445  21121219.398                    21121227.363
 107471504.607 8  83744051.11246  20451149.625                    20451155.039
 11  8 18 16 20  0.0000000  0 11G28G13G10G19G11G07G16G06G08G03G23
 129377251.092 6 100813535.77942  24619687.680                    24619696.184
 105245446.038 7  82009533.34346  20027561.297                    20027568.063
 125670774.506 6  97925331.32743  23914360.602                    23914370.152
 110710683.381 8  86268085.50946  21067542.031                    21067548.148
 130062071.031 6 101347123.30643  24749992.086                    24750001.992
 116223555.097 7  90563912.303 7  22116626.523                    22116634.566
 122728212.390 7  95632418.14244  23354410.789                    23354417.961
 120242159.823 7  93695213.31744  22881323.766                    22881332.297
 126342308.279 6  98448580.22343  24042137.625                    24042146.574
 111038006.865 8  86523144.71545  21129831.320                    21129838.715
 107525425.239 8  83786067.16846  20461410.203                    20461415.648
 11  8 18 16 20 30.0000000  0 11G28G13G10G19G11G07G16G06G08G03G23
 129304302.429 6 100756692.62842  24605805.703                    24605814.500
 105242882.122 8  82007535.49246  20027073.336                    20027080.023
 125688334.919 6  97939014.73943  23917701.367                    23917711.910
 110682011.535 8  86245743.80646  21062086.352                    21062091.930
 129988538.453 6 101289825.24443  24735999.055                    24736009.715
 116168210.616 7  90520786.755 7  22106094.789                    22106102.480
 122818442.611 7  95702727.35644  23371580.031                    23371588.488
 120309762.539 7  93747890.70044  22894188.367                    22894197.363
 126275272.756 6  98396344.79544  24029380.594                    24029390.117
 111083836.211 8  86558855.85845  21138551.898                    21138560.063
 107579875.994 8  83828496.29846  20471772.039                    20471777.473
 11  8 18 16 21  0.0000000  0 11G28G13G10G19G11G07G16G06G08G03G23
 129231568.788 6 100700017.03942  24591965.336                    24591973.773
 105240899.312 7  82005990.44046  20026696.242                    20026702.941
 125706332.968 6  97953039.16944  23921126.586                    23921136.762
 110653919.699 7  86223854.06846  21056740.438                    21056746.410
 129914854.937 6 101232409.55643  24721977.914                    24721988.262
 116112901.361 7  90477688.664 7  22095569.789                    22095577.688
 122908679.597 7  95773041.85344  23388752.953                    23388759.801
 120377789.028 7  93800898.32744  22907133.266                    22907141.730
 126208172.027 6  98344058.58544  24016611.938                    24016621.297
 111130241.222 8  86595015.58345  21147382.289                    21147390.457
 107634855.544 8  83871337.48646  20482234.219                    20482239.379
 11  8 18 16 21 30.0000000  0 11G28G13G10G19G11G07G16G06G08G03G23
 129159050.298 6 100643509.15943  24578165.594                    24578174.273
 105239497.936 7  82004898.45646  20026429.297                    20026436.066
 125724766.820 6  97967403.16943  23924634.922                    23924644.695
 110626409.157 7  86202417.29446  21051505.539                    21051511.129
 129841022.585 6 101174877.89143  24707927.359                    24707937.840
 116057627.889 7  90434618.434 7  22085052.164                    22085059.617
 122998921.557 6  95843360.15644  23405925.016                    23405933.160
 120446236.880 7  93854234.26744  22920158.297                    22920167.531
 126141006.056 6  98291721.53044  24003830.320                    24003840.352
 111177220.329 8  86631622.64645  21156322.188                    21156330.277
 107690362.093 8  83914589.31946  20492796.773                    20492802.207
 11  8 18 16 22  0.0000000  0 11G28G13G10G19G11G07G16G06G08G03G23
 129086747.668 6 100587169.49442  24564406.477                    24564415.012
 105238678.943 8  82004260.27646  20026273.703                    20026280.223
 125743635.643 6  97982106.10444  23928225.742                    23928235.742
 110599481.743 7  86181434.89846  21046381.492                    21046387.074
 129767043.478 6 101117231.87043  24693850.031                    24693860.316
 116002391.320 7  90391576.966 7  22074540.984                    22074548.129
 123089166.725 6  95913681.02744  23423097.227                    23423105.969
 120515104.258 7  93907897.09544  22933262.719                    22933272.063
 126073774.749 6  98239333.57244  23991036.242                    23991046.309
 111224771.997 8  86668675.87545  21165371.586                    21165379.133
 107746394.921 8  83958251.23546  20503459.711                    20503464.941
 11  8 18 16 22 30.0000000  0 11G28G13G10G19G11G07G16G06G08G03G23
 129014661.375 6 100530998.44343  24550688.344                    24550697.902
 105238443.328 8  82004076.67246  20026228.695                    20026235.180
 125762937.445 7  97997146.44043  23931899.023                    23931908.867
 110573138.660 7  86160907.83946  21041368.547                    21041374.109
 129692920.107 6 101059473.45343  24679745.430                    24679755.156
 115947192.126 7  90348564.630 7  22064036.516                    22064043.914
 123179413.671 6  95984003.18544  23440271.680                    23440279.891
 120584388.902 7  93961885.10344  22946448.078                    22946456.738
 126006478.505 6  98186895.02843  23978230.648                    23978239.684
 111272894.193 8  86706173.65345  21174529.039                    21174536.793
 107802952.410 8  84002321.98846  20514222.070                    20514227.230
 11  8 18 16 23  0.0000000  0 11G28G13G10G19G11G07G16G06G08G03G23
 128942791.857 6 100474996.28042  24537012.164                    24537021.887
 105238791.931 8  82004348.31046  20026295.203                    20026301.445
 125782670.127 6  98012522.54643  23935653.539                    23935663.109
 110547381.241 8  86140837.12346  21036466.813                    21036472.480
 129618654.653 6 101001604.27943  24665612.320                    24665622.801
 115892031.093 7  90305582.026 7  22053539.570                    22053547.305
 123269660.632 6  96054325.38543  23457444.453                    23457452.898
 120654088.798 7  94016196.63844  22959711.086                    22959721.020
 125939117.433 6  98134405.92843  23965412.188                    23965421.469
 111321585.607 8  86744114.98145  21183794.258                    21183802.328
 107860032.991 8  84046800.34246  20525084.227                    20525089.594
 11  8 18 16 23 30.0000000  0 11G28G13G10G19G11G07G16G06G08G03G23
 128871139.809 6 100419163.60942  24523377.148                    24523386.797
 105239725.938 7  82005076.09646  20026472.523                    20026479.301
 125802832.209 6  98028233.21343  23939490.164                    23939500.328
 110522211.120 8  86121224.04746  21031677.000                    21031682.777
 129544249.827 6 100943626.55043  24651453.453                    24651463.898
 115836908.985 7  90262629.744 7  22043050.398                    22043057.598
 123359906.051 7  96124646.44444  23474618.453                    23474626.434
 120724201.725 7  94070830.03444  22973053.477                    22973062.066
 125871691.592 6  98081866.37643  23952580.930                    23952590.801
 111370844.356 8  86782498.38345  21193167.766                    21193175.992
 107917635.622 8  84091685.48646  20536045.563                    20536050.969
 11  8 18 16 24  0.0000000  0 11G28G13G10G19G11G07G16G06G08G03G23
 128799705.264 6 100363500.39943  24509784.320                    24509792.824
 105241245.221 7  82006259.93646  20026761.664                    20026768.680
 125823421.648 6  98044276.90643  23943408.141                    23943417.984
 110497629.558 8  86102069.59446  21026999.641                    21027005.250
 129469707.663 6 100885541.78543  24637268.594                    24637279.227
 115781826.546 7  90219708.382 7  22032568.664                    22032575.762
 123450148.045 6  96194964.81343  23491790.125                    23491797.539
 120794725.391 7  94125783.47044  22986473.648                    22986483.332
 125804200.767 6  98029276.15043  23939738.367                    23939747.430
 111420668.264 7  86821322.16245  21202648.969                    21202657.285
 107975758.402 8  84136975.94946  20547106.188                    20547111.344
 11  8 18 16 24 30.0000000  0 11G28G13G10G19G11G07G16G06G08G03G23
 128728488.514 6 100308006.85843  24496231.266                    24496240.707
 105243350.593 7  82007900.47646  20027162.477                    20027169.309
 125844437.157 6  98060652.59643  23947406.898                    23947417.406
 110473637.769 7  86083374.70546  21022433.984                    21022439.566
 129395030.326 6 100827351.68843  24623057.844                    24623067.758
 115726784.565 7  90176818.541 7  22022094.281                    22022101.660
 123540385.001 6  96265279.32644  23508962.070                    23508969.672
 120865657.569 7  94181055.22844  22999971.953                    22999980.594
 125736645.236 6  97976635.52244  23926882.906                    23926892.043
 111471055.725 8  86860585.08245  21212238.094                    21212245.902
 108034400.249 8  84182670.87946  20558265.273                    20558270.629
 11  8 18 16 25  0.0000000  0 11G28G13G10G19G11G07G16G06G08G03G23
 128657490.308 6 100252683.64343  24482721.375                    24482730.676
 105246043.172 8  82009998.58246  20027674.945                    20027681.945
 125865876.536 6  98077358.58143  23951487.023                    23951496.988
 110450237.304 8  86065140.59646  21017980.945                    21017986.777
 129320220.548 6 100769058.38943  24608822.227                    24608833.070
 115671784.481 7  90133961.346 7  22011628.344                    22011635.984
 123630615.532 6  96335588.71043  23526132.602                    23526140.469
 120936996.374 7  94236643.84844  23013547.047                    23013555.508
 125669025.148 7  97923944.59244  23914015.367                    23914024.277
 111522005.244 8  86900285.96945  21221933.180                    21221940.781
 108093559.650 8  84228769.09446  20569522.758                    20569528.258
 11  8 18 16 25 30.0000000  0 11G28G13G10G19G11G07G16G06G08G03G23
 128586711.016 6 100197531.04443  24469252.055                    24469261.918
 105249323.330 7  82012554.54146  20028299.391                    20028305.621
 125887738.293 6  98094393.69043  23955647.578                    23955657.555
 110427429.204 8  86047368.06346  21013640.555                    21013646.660
 129245280.274 6 100710663.44443  24594561.453                    24594572.184
 115616826.176 7  90091136.701 7  22001169.656                    22001177.488
 123720838.047 6  96405891.91243  23543300.516                    23543309.277
 121008739.439 7  94292547.47044  23027199.547                    23027208.508
 125601340.394 7  97871203.25143  23901135.289                    23901144.680
 111573514.380 8  86940422.92645  21231734.977                    21231742.895
 108153234.846 8  84275269.22546  20580879.086                    20580884.340
 11  8 18 16 26  0.0000000  0 11G28G13G10G19G11G07G16G06G08G03G23
 128516150.640 6 100142548.99243  24455824.766                    24455834.266
 105253191.503 8  82015568.68646  20029035.133                    20029042.027
 125910020.491 6  98111756.42343  23959887.898                    23959896.887
 110405214.669 8  86030058.05746  21009413.477                    21009419.148
 129170211.882 6 100652168.65143  24580276.695                    24580286.887
 115561910.680 7  90048345.422 7  21990720.008                    21990727.508
 123811050.938 7  96476187.53544  23560467.984                    23560476.836
 121080884.385 7  94348764.26644  23040928.055                    23040936.469
 125533591.450 7  97818411.91943  23888242.680                    23888252.457
 111625581.378 8  86980994.56845  21241642.820                    21241650.754
 108213424.464 8  84322170.20746  20592332.406                    20592337.918
 11  8 18 16 26 30.0000000  0 11G28G13G10G19G11G07G16G06G08G03G23
 128445809.820 6 100087738.04643  24442439.258                    24442448.770
 105257648.508 7  82019041.67346  20029883.313                    20029890.258
 125932721.372 6  98129445.39043  23964207.516                    23964217.430
 110383595.204 8  86013211.73646  21005299.570                    21005304.832
 129095017.895 6 100593575.99042  24565967.367                    24565978.328
 115507039.031 7  90005588.308 7  21980278.219                    21980285.727
 123901252.348 6  96546474.27444  23577633.109                    23577641.266
 121153428.990 7  94405292.47844  23054733.117                    23054742.406
 125465778.311 7  97765570.56443  23875338.047                    23875347.715
 111678204.552 8  87021999.60845  21251657.031                    21251665.070
 108274127.011 8  84369470.87346  20603884.070                    20603889.328
 11  8 18 16 27  0.0000000  0 11G28G13G10G19G11G07G16G06G08G03G23
 128375689.051 6 100033098.54643  24429095.922                    24429105.352
 105262694.920 8  82022973.93746  20030843.820                    20030850.668
 125955839.134 6  98147459.22243  23968607.102                    23968616.059
 110362571.961 8  85996830.00646  21001298.695                    21001304.457
 129019700.679 6 100534887.32342  24551634.969                    24551645.047
 115452212.502 7  89962866.353 7  21969844.594                    21969852.281
 123991441.013 7  96616751.05544  23594796.133                    23594804.523
 121226371.318 7  94462130.57944  23068613.422                    23068622.145
 125397900.883 6  97712679.11644  23862421.586                    23862431.406
 111731381.981 8  87063436.53645  21261776.141                    21261784.234
 108335341.087 8  84417170.13346  20615532.188                    20615537.844
 11  8 18 16 27 30.0000000  0 11G28G13G10G19G11G07G16G06G08G03G23
 128305788.254 6  99978630.42643  24415794.117                    24415803.063
 105268331.208 8  82027365.83646  20031916.336                    20031922.863
 125979371.623 6  98165796.21943  23973084.719                    23973094.176
 110342145.785 8  85980913.52846  20997411.688                    20997417.527
 128944262.519 6 100476104.41342  24537279.391                    24537289.859
 115397430.964 7  89920179.458 7  21959420.047                    21959427.984
 124081615.375 7  96687016.71844  23611954.953                    23611963.199
 121299708.809 7  94519276.65644  23082569.422                    23082578.332
 125329959.446 7  97659737.77943  23849492.977                    23849501.871
 111785111.518 8  87105303.67045  21272000.672                    21272008.531
 108397064.984 8  84465266.65646  20627278.594                    20627283.438
 11  8 18 16 28  0.0000000  0 11G28G13G10G19G11G07G16G06G08G03G23
 128236108.006 6  99924334.21143  24402534.555                    24402543.781
 105274557.856 8  82032217.76846  20033100.766                    20033107.941
 126003317.228 6  98184455.10943  23977641.172                    23977650.906
 110322317.927 8  85965463.25946  20993638.977                    20993644.375
 128868705.878 6 100417229.20943  24522901.297                    24522912.188
 115342695.805 7  89877528.695 7  21949004.641                    21949012.180
 124171773.578 7  96757269.80144  23629111.891                    23629120.043
 121373439.296 7  94576728.88844  23096599.578                    23096608.973
 125261954.388 7  97606746.87344  23836552.000                    23836561.016
 111839391.255 8  87147599.53645  21282329.695                    21282337.684
 108459297.111 8  84513759.20646  20639120.422                    20639126.082
 11  8 18 16 28 30.0000000  0 11G28G13G10G19G11G07G16G06G08G03G23
 128166648.549 6  99870209.96643  24389316.523                    24389325.766
 105281375.250 8  82037530.01346  20034398.320                    20034405.180
 126027673.972 6  98203434.37843  23982275.992                    23982285.762
 110303089.688 8  85950480.22646  20989979.359                    20989985.285
 128793033.073 6 100358263.44142  24508500.945                    24508511.906
 115288007.752 7  89834914.648 7  21938598.039                    21938605.031
 124261914.367 6  96827509.29243  23646264.766                    23646273.348
 121447560.319 7  94634485.49044  23110704.555                    23110713.293
 125193885.601 7  97553706.31143  23823599.492                    23823608.309
 111894219.339 7  87190322.69345  21292763.219                    21292771.164
 108522035.757 8  84562646.44246  20651059.398                    20651064.695
 11  8 18 16 29  0.0000000  0 11G28G13G10G19G11G07G16G06G08G03G23
 128097410.264 6  99816258.03943  24376140.547                    24376150.211
 105288784.333 8  82043303.32146  20035808.164                    20035814.777
 126052439.965 6  98222732.51643  23986988.805                    23986998.742
 110284462.184 8  85935965.28846  20986434.805                    20986440.738
 128717246.650 6 100299209.16042  24494078.898                    24494089.602
 115233367.939 7  89792338.176 7  21928200.602                    21928207.934
 124352036.293 6  96897734.13143  23663414.414                    23663423.230
 121522070.011 7  94692544.93144  23124883.438                    23124892.426
 125125753.453 7  97500616.33644  23810634.000                    23810642.840
 111949593.892 8  87233471.67245  21303300.602                    21303309.051
 108585279.276 8  84611927.08946  20663094.391                    20663099.609
 11  8 18 16 29 30.0000000  0 11G28G13G10G19G11G07G16G06G08G03G23
 128028393.459 6  99762478.70142  24363008.086                    24363016.563
 105296785.235 8  82049537.78646  20037331.047                    20037337.586
 126077613.221 6  98242348.03043  23991780.063                    23991789.188
 110266436.423 8  85921919.23646  20983004.969                    20983010.469
 128641349.019 6 100240068.18842  24479636.984                    24479647.180
 115178776.973 7  89749799.766 7  21917811.414                    21917819.316
 124442137.627 6  96967942.82143  23680560.945                    23680569.207
 121596965.871 7  94750905.27644  23139135.867                    23139144.914
 125057558.064 7  97447477.09743  23797656.539                    23797665.301
 112005512.715 7  87277044.75045  21313941.617                    21313949.727
 108649026.256 8  84661600.04346  20675224.750                    20675230.027
 11  8 18 16 30  0.0000000  0 11G28G13G10G19G11G07G16G06G08G03G23
 127959598.533 6  99708872.24142  24349916.563                    24349925.023
 105305378.250 8  82056233.64146  20038966.086                    20038972.602
 126103191.760 6  98262279.33443  23996647.133                    23996657.289
 110249013.512 8  85908342.93246  20979689.211                    20979694.750
 128565342.580 6 100180842.43542  24465172.859                    24465182.828
 115124236.060 7  89707300.368 7  21907433.086                    21907440.559
 124532216.780 7  97038134.34744  23697702.258                    23697709.938
 121672245.663 6  94809564.80644  23153460.117                    23153469.336
 124989299.385 7  97394288.53844  23784666.664                    23784676.262
 112061973.976 7  87321040.50245  21324685.703                    21324693.680
 108713275.048 8  84711664.01646  20687451.141                    20687456.301
 11  8 18 16 30 30.0000000  0 11G28G13G10G19G11G07G16G06G08G03G23
 127891025.507 6  99655438.72743  24336867.391                    24336876.531
 105314564.014 8  82063391.37646  20040713.773                    20040720.418
 126129173.810 6  98282525.05443  24001591.688                    24001600.969
 110232194.398 8  85895237.12746  20976488.570                    20976494.273
 128489229.729 6 100121533.78742  24450688.984                    24450699.074
 115069745.914 7  89664840.525 7  21897064.078                    21897071.723
 124622272.574 7  97108307.55444  23714839.867                    23714848.305
 121747906.902 7  94868521.55044  23167858.898                    23167868.172
 124920977.844 7  97341051.03143  23771666.133                    23771675.555
 112118975.883 7  87365457.53445  21335533.031                    21335540.719
 108778023.829 8  84762117.58846  20699772.375                    20699777.574
 11  8 18 16 31  0.0000000  0 11G28G13G10G19G11G07G16G06G08G03G23
 127822674.751 6  99602178.43843  24323860.227                    24323870.008
 105324342.583 8  82071011.03446  20042574.734                    20042581.402
 126155557.152 6  98303083.47443  24006611.531                    24006622.176
 110215979.727 8  85882602.32246  20973402.922                    20973408.652
 128413012.785 6 100062144.01643  24436186.180                    24436195.746
 115015307.207 7  89622420.772 7  21886704.625                    21886711.934
 124712303.216 7  97178461.24144  23731971.430                    23731979.859
 121823947.277 7  94927773.72444  23182328.766                    23182337.809
 124852593.546 7  97287764.58743  23758652.648                    23758662.000
 112176515.574 7  87410293.62345  21346482.641                    21346490.152
 108843270.612 8  84812959.22046  20712188.383                    20712193.953
 11  8 18 16 31 30.0000000  0 11G28G13G10G19G11G07G16G06G08G03G23
 127754546.492 6  99549091.50643  24310896.523                    24310904.918
 105334714.379 8  82079092.95146  20044548.656                    20044555.410
 126182340.147 6  98323953.33343  24011708.438                    24011718.094
 110200370.669 8  85870439.42446  20970433.117                    20970438.238
 128336694.138 6 100002674.99743  24421662.320                    24421673.203
 114960921.098 7  89580042.003 7  21876354.984                    21876363.109
 124802307.443 6  97248594.31844  23749099.297                    23749107.563
 121900364.541 7  94987319.62344  23196870.953                    23196879.195
 124784146.734 7  97234429.45143  23745627.836                    23745636.934
 112234590.877 7  87455547.07045  21357533.820                    21357542.297
 108909013.671 8  84864187.55546  20724698.867                    20724704.129
 11  8 18 16 32  0.0000000  0 11G28G13G10G19G11G07G16G06G08G03G23
 127686641.047 6  99496178.17343  24297974.844                    24297983.109
 105345679.569 8  82087637.25646  20046634.922                    20046641.887
 126209520.295 6  98345132.63043  24016880.648                    24016890.352
 110185368.273 8  85858749.24946  20967577.945                    20967583.379
 128260276.374 6  99943128.75143  24407120.867                    24407130.941
 114906588.616 7  89537705.027 7  21866016.234                    21866023.371
 124892283.883 6  97318705.71643  23766219.820                    23766229.363
 121977156.340 7  95047157.28444  23211483.445                    23211493.113
 124715637.670 7  97181045.80244  23732591.148                    23732599.641
 112293200.384 7  87501216.77245  21368687.094                    21368695.262
 108975251.525 8  84915801.44446  20737303.484                    20737309.023
 11  8 18 16 32 30.0000000  0 11G28G13G10G19G11G07G16G06G08G03G23
 127618958.601 6  99443438.63343  24285094.375                    24285104.328
 105357238.933 8  82096644.54846  20048834.664                    20048841.633
 126237095.960 6  98366620.14043  24022128.211                    24022137.777
 110170973.454 8  85847532.52246  20964838.828                    20964844.551
 128183762.141 6  99883507.31443  24392560.984                    24392571.055
 114852310.703 7  89495410.569 7  21855687.352                    21855694.742
 124982230.897 6  97388794.22643  23783337.461                    23783345.918
 122054320.449 7  95107285.11644  23226167.938                    23226176.191
 124647066.728 7  97127613.91643  23719542.484                    23719551.379
 112352341.934 7  87547301.06245  21379941.289                    21379949.547
 109041982.347 8  84967799.46646  20750001.922                    20750007.180
 11  8 18 16 33  0.0000000  0 11G28G13G10G19G11G07G16G06G08G03G23
 127551499.396 6  99390873.02043  24272258.328                    24272266.953
 105369392.171 8  82106114.60046  20051147.367                    20051154.258
 126265064.850 6  98388414.03343  24027449.961                    24027460.188
 110157186.949 8  85836789.79646  20962215.109                    20962221.035
 128107153.760 6  99823812.50143  24377981.555                    24377992.574
 114798088.096 7  89453159.208 7  21845369.273                    21845376.508
 125072146.929 6  97458858.61243  23800447.898                    23800456.285
 122131854.479 7  95167701.15144  23240921.344                    23240931.461
 124578433.670 6  97074133.66143  23706482.234                    23706491.238
 112412013.277 7  87593798.17845  21391296.758                    21391304.695
 109109204.289 8  85020180.17446  20762794.078                    20762799.527
 11  8 18 16 33 30.0000000  0 11G28G13G10G19G11G07G16G06G08G03G23
 127484263.594 6  99338481.50043  24259462.852                    24259471.820
 105382139.740 8  82116047.77046  20053573.445                    20053579.887
 126293425.196 6  98410513.01343  24032847.086                    24032856.652
 110144009.572 8  85826521.71646  20959707.906                    20959713.789
 128030453.636 6  99764046.23543  24363386.742                    24363397.375
 114743921.951 8  89410951.850 7  21835061.711                    21835068.902
 125162030.954 6  97528898.03943  23817552.805                    23817560.180
 122209755.890 7  95228403.48444  23255746.086                    23255755.207
 124509739.206 7  97020605.54843  23693409.797                    23693419.066
 112472211.909 7  87640706.17345  21402751.516                    21402759.957
 109176915.584 8  85072942.20046  20775678.930                    20775684.453
 11  8 18 16 34  0.0000000  0 11G28G13G10G19G11G07G16G06G08G03G23
 127417251.427 6  99286264.29643  24246710.555                    24246720.125
 105395481.803 8  82126444.17646  20056112.313                    20056118.871
 126322174.721 6  98432915.22243  24038318.016                    24038327.816
 110131442.114 8  85816728.89946  20957316.266                    20957322.113
 127953664.275 6  99704210.40343  24348774.328                    24348784.164
 114689813.144 7  89368789.170 7  21824765.367                    21824772.645
 125251881.149 7  97598911.15343  23834650.445                    23834658.113
 122288022.293 7  95289390.20544  23270639.898                    23270648.977
 124440983.662 6  96967029.81744  23680325.977                    23680334.844
 112532935.976 7  87688023.59245  21414307.188                    21414315.512
 109245114.392 8  85126084.09846  20788656.992                    20788662.316
 11  8 18 16 34 30.0000000  0 11G28G13G10G19G11G07G16G06G08G03G23
 127350463.094 6  99234221.48343  24234001.648                    24234010.926
 105409418.518 8  82137303.94346  20058763.750                    20058770.844
 126351311.148 6  98455618.92043  24043863.438                    24043871.895
 110119485.011 8  85807411.68246  20955041.070                    20955046.398
 127876788.268 6  99644307.05143  24334144.531                    24334155.266
 114635762.327 8  89326671.668 7  21814479.563                    21814486.535
 125341696.215 7  97668896.80844  23851741.727                    23851749.938
 122366651.475 7  95350659.60744  23285602.281                    23285611.859
 124372166.912 6  96913406.41743  23667229.781                    23667239.586
 112594183.347 7  87735748.79545  21425962.094                    21425970.289
 109313798.631 8  85179604.26346  20801727.039                    20801732.414
 11  8 18 16 35  0.0000000  0 11G28G13G10G19G11G07G16G06G08G03G23
 127283898.479 6  99182353.02143  24221334.422                    24221344.063
 105423950.004 8  82148627.16746  20061529.320                    20061536.082
 126380832.762 6  98478622.74343  24049480.641                    24049490.129
 110108139.817 8  85798571.28146  20952882.000                    20952887.465
 127799828.193 6  99584338.21043  24319500.234                    24319510.652
 114581771.231 8  89284600.714 7  21804205.219                    21804212.652
 125431475.048 7  97738854.27843  23868826.266                    23868834.277
 122445641.069 7  95412209.88244  23300632.961                    23300642.613
 124303289.423 6  96859735.68244  23654123.625                    23654132.730
 112655951.627 7  87783879.89345  21437716.297                    21437724.547
 109382966.545 8  85233501.31646  20814889.148                    20814894.883
 11  8 18 16 35 30.0000000  0 11G28G13G10G19G11G07G16G06G08G03G23
 127217558.247 6  99130659.37043  24208710.891                    24208719.867
 105439076.357 8  82160413.93146  20064407.797                    20064414.691
 126410737.320 6  98501924.98443  24055171.250                    24055180.914
 110097406.695 8  85790207.81746  20950839.617                    20950844.934
 127722786.509 6  99524305.78443  24304839.078                    24304850.012
 114527840.337 7  89242576.664 7  21793942.461                    21793949.848
 125521215.811 6  97808782.05543  23885902.492                    23885911.543
 122524988.492 7  95474038.95844  23315732.828                    23315742.023
 124234351.402 7  96806017.76144  23641004.977                    23641014.602
 112718238.371 7  87832414.98545  21449569.156                    21449577.406
 109452616.122 8  85287773.68746  20828143.078                    20828149.031
 11  8 18 16 36  0.0000000  0 11G28G13G10G19G11G07G16G06G08G03G23
 127151442.139 6  99079140.39343  24196129.523                    24196138.316
 105454797.699 8  82172664.31246  20067399.609                    20067406.414
 126441022.529 6  98525523.83743  24060934.305                    24060944.070
 110087286.360 8  85782321.85346  20948913.555                    20948919.414
 127645665.721 6  99464211.73143  24290164.539                    24290174.059
 114473970.480 7  89200600.182 7  21783691.016                    21783698.715
 125610917.487 6  97878679.34843  23902972.977                    23902981.883
 122604691.475 7  95536145.10344  23330900.453                    23330909.117
 124165353.382 7  96752253.10244  23627874.922                    23627884.164
 112781041.295 7  87881352.29445  21461520.086                    21461528.445
 109522745.583 8  85342419.99346  20841488.422                    20841494.008
 11  8 18 16 36 30.0000000  0 11G28G13G10G19G11G07G16G06G08G03G23
 127085550.404 6  99027796.24543  24183590.398                    24183599.539
 105471113.951 8  82185378.26146  20070504.461                    20070511.035
 126471686.474 6  98549417.79243  24066769.289                    24066779.293
 110077779.509 8  85774913.92346  20947104.344                    20947109.922
 127568468.226 6  99404057.87343  24275473.727                    24275483.566
 114420162.950 7  89158672.259 7  21773452.453                    21773459.586
 125700578.717 6  97948545.13143  23920034.805                    23920043.645
 122684747.594 7  95598526.47744  23346134.789                    23346143.309
 124096295.462 7  96698441.76744  23614733.914                    23614743.195
 112844358.295 7  87930690.18545  21473568.945                    21473577.004
 109593353.120 8  85397438.82646  20854924.406                    20854929.551
 11  8 18 16 37  0.0000000  0 11G28G13G10G19G11G07G16G06G08G03G23
 127019883.294 6  98976627.17643  24171094.398                    24171103.254
 105488025.458 8  82198556.04646  20073722.820                    20073729.531
 126502726.807 6  98573605.06243  24072676.695                    24072685.867
 110068886.802 8  85767984.54546  20945412.305                    20945418.195
 127491197.008 6  99343846.60543  24260769.844                    24260779.992
 114366418.969 7  89116793.851 7  21763225.109                    21763232.398
 125790197.937 6  98018378.24043  23937089.008                    23937096.949
 122765154.588 7  95661181.20644  23361435.422                    23361444.512
 124027177.902 7  96644583.96044  23601581.742                    23601590.777
 112908187.194 7  87980426.96245  21485715.367                    21485723.438
 109664436.743 8  85452828.63846  20868451.375                    20868456.813
 11  8 18 16 37 30.0000000  0 11G28G13G10G19G11G07G16G06G08G03G23
 126954440.927 6  98925633.23643  24158640.469                    24158649.668
 105505531.681 8  82212197.25246  20077054.031                    20077060.551
 126534141.008 6  98598083.65443  24078654.664                    24078663.902
 110060608.682 8  85761534.07146  20943836.859                    20943842.605
 127413854.063 6  99283579.44643  24246051.625                    24246061.477
 114312739.029 7  89074965.344 7  21753009.867                    21753017.172
 125879773.898 6  98088177.56243  23954134.688                    23954143.340
 122845909.703 7  95724107.20944  23376802.789                    23376811.414
 123958001.177 7  96590680.04644  23588417.789                    23588426.285
 112972525.522 7  88030560.69645  21497958.516                    21497966.656
 109735994.187 8  85508587.66046  20882068.375                    20882073.340
 11  8 18 16 38  0.0000000  0 11G28G13G10G19G11G07G16G06G08G03G23
 126889223.477 6  98874814.50043  24146230.078                    24146239.336
 105523633.112 8  82226302.25246  20080498.453                    20080505.617
 126565927.645 6  98622852.44343  24084702.398                    24084712.578
 110052946.259 8  85755563.35146  20942378.938                    20942384.793
 127336442.552 6  99223258.86343  24231320.711                    24231330.449
 114259124.908 8  89033188.120 7  21742807.602                    21742815.109
 125969305.139 6  98157942.15243  23971172.430                    23971179.598
 122927010.764 6  95787302.79344  23392234.594                    23392245.211
 123888765.662 6  96536730.32744  23575242.531                    23575251.609
 113037371.023 7  88081089.61945  21510298.313                    21510306.664
 109808023.993 8  85564714.75746  20895775.188                    20895780.586
 11  8 18 16 38 30.0000000  0 11G28G13G10G19G11G07G16G06G08G03G23
 126824230.808 6  98824170.94443  24133862.766                    24133871.594
 105542329.568 8  82240870.91646  20084056.398                    20084063.465
 126598084.256 6  98647909.49343  24090822.344                    24090832.547
 110045899.404 8  85750072.29146  20941037.617                    20941043.527
 127258964.576 6  99162886.50143  24216577.430                    24216587.563
 114205577.063 8  88991462.540 7  21732617.742                    21732625.363
 126058790.439 7  98227670.88943  23988200.469                    23988208.801
 123008455.283 6  95850765.97744  23407733.320                    23407743.797
 123819471.600 6  96482734.99744  23562056.000                    23562064.949
 113102721.479 7  88132012.01445  21522734.141                    21522742.328
 109880523.759 8  85621208.05046  20909571.555                    20909576.758
 11  8 18 16 39  0.0000000  0 11G28G13G10G19G11G07G16G06G08G03G23
 126759463.105 6  98773702.68743  24121537.977                    24121546.379
 105561620.869 8  82255903.08846  20087727.508                    20087734.324
 126630608.479 6  98673253.00943  24097011.391                    24097021.434
 110039468.702 8  85745061.35446  20939814.180                    20939819.680
 127181422.864 6  99102464.49743  24201821.656                    24201831.855
 114152096.665 8  88949789.520 7  21722440.945                    21722448.270
 126148228.606 6  98297362.86543  24005220.016                    24005228.590
 123090240.725 6  95914494.83943  23423297.305                    23423306.586
 123750119.498 7  96428694.39644  23548858.844                    23548868.008
 113168574.360 7  88183325.91345  21535265.578                    21535273.547
 109953491.717 8  85678066.18246  20923456.570                    20923462.109
 11  8 18 16 39 30.0000000  0 11G28G13G10G19G11G07G16G06G08G03G23
 126694920.667 6  98723409.87843  24109256.172                    24109264.496
 105581507.237 8  82271398.95746  20091512.008                    20091518.613
 126663498.215 6  98698881.36543  24103269.805                    24103279.918
 110033654.949 8  85740531.15546  20938707.875                    20938713.516
 127103820.107 6  99041994.92743  24187053.586                    24187063.980
 114098685.174 8  88908170.193 7  21712277.156                    21712284.410
 126237618.396 6  98367017.22143  24022230.750                    24022238.906
 123172364.916 6  95978487.65344  23438925.172                    23438934.910
 123680709.709 7  96374608.89544  23535651.063                    23535659.980
 113234927.448 7  88235029.56445  21547892.234                    21547900.195
 110026925.778 8  85735287.50346  20937430.977                    20937436.711
 11  8 18 16 40  0.0000000  0 11G28G13G10G19G11G07G16G06G08G03G23
 126630603.368 6  98673292.58343  24097016.234                    24097024.598
 105601988.443 8  82287358.32646  20095408.953                    20095415.680
 126696751.021 6  98724792.65543  24109597.336                    24109607.781
 110028458.626 8  85736482.07546  20937719.117                    20937724.910
 127026158.933 6  98981479.84543  24172275.117                    24172285.293
 114045343.465 8  88866605.239 7  21702126.352                    21702133.875
 126326958.560 6  98436632.80543  24039231.188                    24039240.047
 123254825.288 6  96042742.43143  23454616.555                    23454625.918
 123611242.790 7  96320478.86544  23522431.688                    23522440.309
 113301778.562 7  88287121.31245  21560613.313                    21560621.805
 110100823.772 8  85792870.34046  20951493.266                    20951498.848
 11  8 18 16 40 30.0000000  0 11G28G13G10G19G11G07G16G06G08G03G23
 126566511.195 6  98623350.67643  24084819.211                    24084828.434
 105623064.169 8  82303780.96746  20099419.641                    20099426.090
 126730364.857 6  98750985.19943  24115994.508                    24116004.387
 110023880.037 8  85732914.35846  20936848.164                    20936853.492
 126948441.870 6  98920921.16443  24157486.367                    24157495.992
 113992072.337 8  88825095.291 7  21691989.273                    21691996.617
 126416247.772 6  98506208.70343  24056222.383                    24056231.430
 123337619.240 6  96107257.18444  23470372.617                    23470380.711
 123541718.749 7  96266304.31244  23509201.500                    23509210.145
 113369125.071 7  88339599.07045  21573429.000                    21573437.316
 110175183.521 8  85850812.97546  20965643.234                    20965649.059
 11  8 18 16 41  0.0000000  0 11G28G13G10G19G11G07G16G06G08G03G23
 126502644.167 6  98573584.21443  24072666.203                    24072675.426
 105644734.263 8  82320666.74946  20103543.492                    20103549.828
 126764337.503 6  98777457.38843  24122459.867                    24122469.113
 110019919.578 7  85729828.30346  20936093.867                    20936100.016
 126870671.627 6  98860321.09343  24142686.766                    24142696.602
 113938873.498 8  88783641.672 7  21681865.930                    21681873.215
 126505484.789 6  98575743.98443  24073203.219                    24073212.922
 123420744.358 6  96172029.93443  23486190.039                    23486198.949
 123472138.067 7  96212085.63544  23495960.977                    23495969.949
 113436964.406 7  88392460.85945  21586338.625                    21586347.078
 110250003.306 8  85909114.08346  20979881.117                    20979886.480
 11  8 18 16 41 30.0000000  0 11G28G13G10G19G11G07G16G06G08G03G23
 126439002.708 6  98523993.52643  24060555.805                    24060564.055
 105666998.814 8  82338015.73846  20107780.195                    20107786.969
 126798666.800 6  98804207.49543  24128992.070                    24129001.566
 110016577.916 7  85727224.43446  20935458.117                    20935463.844
 126792850.754 6  98799681.57443  24127878.195                    24127887.426
 113885747.632 7  88742244.910 7  21671756.422                    21671763.938
 126594668.399 6  98645237.58543  24090174.820                    24090183.742
 123504198.315 6  96237058.94843  23502071.086                    23502080.266
 123402501.033 7  96157823.05044  23482709.313                    23482718.242
 113505294.053 7  88445704.69745  21599341.188                    21599349.379
 110325280.725 8  85967771.78946  20994205.805                    20994211.660
 11  8 18 16 42  0.0000000  0 11G28G13G10G19G11G07G16G06G08G03G23
 126375586.518 6  98474578.31643  24048487.539                    24048496.488
 105689857.107 8  82355827.38546  20112129.906                    20112136.469
 126833350.191 6  98831233.49643  24135591.844                    24135601.531
 110013854.808 7  85725102.55046  20934940.133                    20934945.563
 126714981.964 6  98739004.67643  24113060.750                    24113069.168
 113832695.865 7  88700905.901 7  21661660.516                    21661668.465
 126683797.067 6  98714688.44543  24107135.961                    24107144.449
 123587978.393 6  96302342.06743  23518013.328                    23518023.484
 123332808.268 7  96103517.00744  23469447.414                    23469455.508
 113574111.682 7  88499328.78145  21612436.758                    21612445.320
 110401013.797 8  86026784.55346  21008617.336                    21008623.070
 11  8 18 16 42 30.0000000  0 11G28G13G10G19G11G07G16G06G08G03G23
 126312395.770 6  98425338.78943  24036463.563                    24036471.703
 105713309.071 8  82374101.63046  20116592.766                    20116599.352
 126868385.487 6  98858533.75243  24142259.156                    24142268.523
 110011750.837 7  85723463.11746  20934539.594                    20934545.223
 126637067.611 6  98678292.25843  24098233.531                    24098243.047
 113779719.581 7  88659625.713 7  21651579.781                    21651587.184
 126772869.845 6  98784095.73143  24124086.523                    24124094.109
 123672082.427 6  96367877.57944  23534018.336                    23534028.285
 123263060.489 7  96049168.09044  23456174.664                    23456183.211
 113643415.088 7  88553331.40545  21625624.523                    21625632.883
 110477200.229 8  86086150.58346  21023115.172                    21023121.152
 11  8 18 16 43  0.0000000  0 11G28G13G10G19G11G07G16G06G08G03G23
 126249430.355 6  98376274.88543  24024481.578                    24024490.484
 105737354.407 8  82392838.23346  20121168.406                    20121174.941
 126903770.310 7  98886106.36843  24148993.359                    24149001.840
 110010266.359 8  85722306.39846  20934257.023                    20934262.543
 126559110.607 6  98617546.62043  24083399.320                    24083408.262
 113726819.697 7  88618405.045 7  21641513.227                    21641520.574
 126861885.300 6  98853458.38043  24141025.102                    24141033.355
 123756507.711 6  96433663.47344  23550083.617                    23550093.523
 123193257.944 7  95994776.53044  23442891.789                    23442900.688
 113713201.648 7  88607710.50245  21638904.813                    21638913.238
 110553837.988 8  86145868.29146  21037698.961                    21037704.449
 11  8 18 16 43 30.0000000  0 11G28G13G10G19G11G07G16G06G08G03G23
 126186690.246 6  98327386.54643  24012542.633                    24012551.188
 105761992.518 8  82412036.74546  20125857.063                    20125863.727
 126939502.215 7  98913949.42743  24155792.117                    24155801.203
 110009401.397 8  85721632.40846  20934092.609                    20934098.398
 126481113.425 7  98556769.66943  24068556.109                    24068565.547
 113673997.299 8  88577244.762 7  21631461.586                    21631468.629
 126950842.436 6  98922775.53443  24157952.016                    24157961.285
 123841251.791 7  96499697.74844  23566210.609                    23566220.570
 123123400.830 7  95940342.44044  23429597.945                    23429606.949
 113783468.951 7  88662464.20545  21652276.117                    21652284.297
 110630924.688 8  86205935.82546  21052368.414                    21052373.777
 11  8 18 16 44  0.0000000  0 11G28G13G10G19G11G07G16G06G08G03G23
 126124175.294 6  98278673.67943  24000646.109                    24000654.637
 105787223.486 8  82431697.22446  20130658.352                    20130664.902
 126975579.005 6  98942061.21043  24162657.617                    24162666.535
 110009156.241 8  85721441.37946  20934045.719                    20934051.324
 126403078.908 7  98495963.62543  24053706.602                    24053716.242
 113621253.660 8  88536145.845 7  21621424.422                    21621431.969
 127039740.305 6  98992046.49743  24174869.563                    24174878.281
 123926312.116 6  96565978.45444  23582397.063                    23582406.980
 123053489.458 7  95885866.07743  23416294.398                    23416303.418
 113854214.602 7  88717590.65444  21665738.445                    21665746.832
 110708458.511 8  86266351.76946  21067122.242                    21067128.105
 11  8 18 16 44 30.0000000  0 11G28G13G10G19G11G07G16G06G08G03G23
 126061885.910 6  98230136.58043  23988792.758                    23988801.801
 105813047.233 8  82451819.61446  20135572.570                    20135578.969
 127011998.413 6  98970439.94643  24169587.227                    24169597.031
 110009531.289 8  85721733.63046  20934117.039                    20934122.977
 126325009.744 7  98435130.56043  24038850.422                    24038859.781
 113568589.999 8  88495109.253 7  21611403.320                    21611410.820
 127128577.308 6  99061270.08843  24191774.984                    24191783.418
 124011686.498 7  96632503.88644  23598643.656                    23598652.500
 122983524.741 7  95831348.16043  23402980.586                    23402989.672
 113925435.924 7  88773087.73745  21679291.406                    21679299.609
 110786437.174 8  86327114.32746  21081961.094                    21081966.941
 11  8 18 16 45  0.0000000  0 11G28G13G10G19G11G07G16G06G08G03G23
 125999821.762 6  98181774.94344  23976982.328                    23976990.898
 105839462.776 8  82472403.13946  20140599.070                    20140605.750
 127048757.804 6  98999083.57743  24176582.641                    24176592.313
 110010526.462 8  85722509.09346  20934306.453                    20934312.074
 126246908.510 6  98374272.50443  24023987.906                    24023997.844
 113516007.475 8  88454135.894 7  21601396.711                    21601404.402
 127217352.432 6  99130445.39343  24208668.531                    24208677.078
 124097372.096 6  96699271.83244  23614948.758                    23614958.375
 122913507.225 7  95776789.08443  23389656.000                    23389665.180
 113997130.311 7  88828953.45545  21692934.719                    21692942.691
 110864858.288 8  86388221.65745  21096884.172                    21096890.207
 11  8 18 16 45 30.0000000  0 11G28G13G10G19G11G07G16G06G08G03G23
 125937982.881 6  98133588.85244  23965214.445                    23965223.828
 105866469.998 8  82493447.71946  20145738.359                    20145745.266
 127085855.481 6  99027990.89743  24183642.086                    24183652.031
 110012142.126 8  85723768.05946  20934613.766                    20934619.836
 126168777.815 6  98313391.47843  24009120.594                    24009129.648
 113463507.480 8  88413226.831 7  21591406.430                    21591413.871
 127306064.577 6  99199571.65143  24225549.773                    24225559.102
 124183366.596 6  96766280.47443  23631312.383                    23631322.047
 122843437.001 7  95722188.93344  23376323.008                    23376330.930
 114069295.371 7  88885185.92045  21706667.219                    21706675.617
 110943719.676 8  86449672.05446  21111891.289                    21111896.551
 11  8 18 16 46  0.0000000  0 11G28G13G10G19G11G07G16G06G08G03G23
 125876369.203 6  98085578.25043  23953490.289                    23953498.586
 105894068.226 8  82514952.81746  20150990.156                    20150997.059
 127123288.397 6  99057159.41343  24190764.664                    24190775.176
 110014378.344 8  85725510.57346  20935039.594                    20935044.984
 126090620.787 6  98252489.93843  23994247.422                    23994257.031
 113411090.875 8  88372382.753 7  21581431.945                    21581438.895
 127394712.499 6  99268647.84143  24242419.367                    24242427.789
 124269667.314 6  96833527.79243  23647735.602                    23647744.633
 122773314.641 7  95667548.16544  23362978.250                    23362987.133
 114141928.361 7  88941783.01345  21720488.672                    21720497.367
 111023019.147 8  86511463.81345  21126981.172                    21126987.004
 11  8 18 16 46 30.0000000  0 11G28G13G10G19G11G07G16G06G08G03G23
 125814980.758 6  98037743.14443  23941808.000                    23941816.734
 105922257.234 8  82536918.27046  20156354.469                    20156360.914
 127161054.269 6  99086587.37143  24197951.758                    24197961.707
 110017234.983 8  85727736.52646  20935582.984                    20935588.492
 126012439.865 6  98191569.76843  23979370.328                    23979379.473
 113358759.255 8  88331604.885 7  21571473.414                    21571480.828
 127483295.273 6  99337673.30243  24259276.016                    24259285.102
 124356272.041 6  96901011.89843  23664215.250                    23664225.355
 122703140.935 7  95612867.39444  23349624.219                    23349633.855
 114215026.890 7  88998742.85445  21734398.719                    21734407.703
 111102754.413 8  86573595.15246  21142154.398                    21142160.355
 11  8 18 16 47  0.0000000  0 11G28G13G10G19G11G07G16G06G08G03G23
 125753817.373 6  97990083.41643  23930169.047                    23930177.426
 105951036.232 8  82559343.46246  20161830.734                    20161837.570
 127199150.948 6  99116273.03343  24205201.648                    24205211.676
 110020712.337 8  85730446.16946  20936244.859                    20936250.340
 125934237.340 6  98130632.79143  23964488.633                    23964498.695
 113306513.563 8  88290893.985 7  21561531.336                    21561539.051
 127571811.510 6  99406646.89243  24276119.492                    24276128.781
 124443178.052 6  96968730.81944  23680753.398                    23680762.922
 122632916.407 7  95558147.01444  23336261.422                    23336271.223
 114288588.553 7  89056063.58545  21748397.297                    21748405.645
 111182923.160 8  86636064.27045  21157410.031                    21157416.008
 11  8 18 16 47 30.0000000  0 11G28G13G10G19G11G07G16G06G08G03G23
 125692878.951 6  97942598.96343  23918572.727                    23918581.492
 105980404.800 8  82582228.05546  20167419.563                    20167425.813
 127237575.693 6  99146214.36643  24212514.031                    24212523.031
 110024810.213 8  85733639.32546  20937024.648                    20937030.457
 125856016.518 6  98069681.51643  23949603.383                    23949613.809
 113254355.138 8  88250251.069 7  21551605.977                    21551613.094
 127660260.323 6  99475567.94843  24292951.078                    24292959.742
 124530382.799 6  97036682.48744  23697348.828                    23697358.402
 122562641.596 7  95503387.46644  23322888.586                    23322897.223
 114362610.332 7  89113742.85045  21762483.328                    21762491.527
 111263523.041 8  86698869.33445  21172747.797                    21172753.516
 11  8 18 16 48  0.0000000  0 11G28G13G10G19G11G07G16G06G08G03G23
 125632165.709 6  97895289.99644  23907019.797                    23907028.086
 106010362.747 7  82605571.90146  20173120.586                    20173127.055
 127276326.430 6  99176409.75343  24219887.695                    24219897.609
 110029529.016 8  85737316.31946  20937922.773                    20937928.172
 125777780.112 6  98008718.15443  23934716.063                    23934725.723
 113202285.143 8  88209677.056 7  21541697.727                    21541704.848
 127748640.517 6  99544435.57943  24309769.070                    24309777.777
 124617883.816 6  97104865.03244  23713999.055                    23714008.855
 122492316.903 7  95448589.03544  23309507.109                    23309515.180
 114437090.208 7  89171779.06445  21776656.430                    21776664.715
 111344552.132 8  86762008.84545  21188167.367                    21188172.891
 11  8 18 16 48 30.0000000  0 11G28G13G10G19G11G07G16G06G08G03G23
 125571676.991 6  97848155.96443  23895509.117                    23895517.047
 106040909.114 8  82629374.25646  20178932.961                    20178939.672
 127315400.350 6  99206856.95243  24227322.898                    24227333.273
 110034868.074 8  85741476.62146  20938938.336                    20938944.422
 125699530.659 6  97947744.58143  23919825.773                    23919835.555
 113150304.876 7  88169172.961 7  21531806.055                    21531813.297
 127836950.963 6  99613248.84143  24326574.375                    24326583.422
 124705678.687 6  97173276.57044  23730706.023                    23730715.277
 122421942.815 7  95393752.12844  23296114.688                    23296123.441
 114512025.350 7  89230170.03845  21790916.688                    21790924.527
 111426007.792 8  86825480.75245  21203667.531                    21203673.297
 11  8 18 16 49  0.0000000  0 11G28G13G10G19G11G07G16G06G08G03G23
 125511413.213 6  97801197.21243  23884040.852                    23884048.957
 106072043.455 8  82653634.76846  20184857.516                    20184864.488
 127354795.132 6  99237554.19843  24234819.375                    24234829.473
 110040827.722 8  85746120.50046  20940072.719                    20940078.078
 125621270.970 6  97886763.08843  23904932.711                    23904942.617
 113098415.344 8  88128739.570 7  21521931.766                    21521939.035
 127925190.628 6  99682006.94143  24343365.391                    24343374.984
 124793764.745 6  97241914.96744  23747467.930                    23747478.105
 122351519.858 7  95338877.13844  23282713.805                    23282722.770
 114587412.991 7  89288913.61644  21805262.195                    21805270.477
 111507887.712 8  86889283.26046  21219249.039                    21219254.391
 11  8 18 16 49 30.0000000  0 11G28G13G10G19G11G07G16G06G08G03G23
 125451374.057 6  97754413.47543  23872615.734                    23872624.063
 106103765.074 8  82678352.90246  20190894.219                    20190900.781
 127394508.596 6  99268499.72843  24242376.477                    24242386.859
 110047407.752 8  85751247.78846  20941324.703                    20941330.508
 125543003.645 6  97825775.62043  23890038.594                    23890049.070
 113046618.431 8  88088378.352 7  21512075.477                    21512082.363
 128013358.573 6  99750709.15343  24360143.383                    24360151.879
 124882139.505 6  97310778.34243  23764284.680                    23764295.199
 122281048.684 7  95283964.56744  23269303.617                    23269312.508
 114663250.672 7  89348007.85645  21819693.539                    21819701.813
 111590189.774 8  86953414.69445  21234910.500                    21234916.328
 11  8 18 16 50  0.0000000  0 11G28G13G10G19G11G07G16G06G08G03G23
 125391559.442 6  97707804.72243  23861233.352                    23861242.012
 106136073.003 8  82703527.89946  20197042.195                    20197048.680
 127434538.034 6  99299691.49943  24249994.195                    24250003.875
 110054607.881 8  85756858.27746  20942694.773                    20942700.813
 125464731.531 6  97764784.43043  23875144.453                    23875154.398
 112994914.759 8  88048089.789 7  21502235.906                    21502243.480
 128101453.489 6  99819354.48243  24376908.195                    24376916.367
 124970800.355 6  97379864.66943  23781157.117                    23781166.648
 122210529.954 7  95229014.96644  23255884.156                    23255892.941
 114739535.384 7  89407450.43944  21834210.156                    21834218.785
 111672911.307 8  87017872.99745  21250652.258                    21250657.547
 11  8 18 16 50 30.0000000  0 11G28G13G10G19G11G07G16G06G08G03G23
 125331968.752 6  97661370.46343  23849893.953                    23849901.996
 106168966.876 8  82729159.47746  20203301.727                    20203308.367
 127474880.952 6  99331127.53143  24257671.492                    24257680.934
 110062428.212 8  85762952.03646  20944183.078                    20944188.652
 125386457.615 6  97703791.81643  23860249.227                    23860259.164
 112943305.814 8  88007875.048 7  21492415.250                    21492422.738
 128189474.513 6  99887942.23243  24393658.156                    24393666.742
 125059744.775 6  97449171.92043  23798082.000                    23798092.141
 122139964.120 7  95174028.63144  23242456.133                    23242464.684
 114816264.983 7  89467239.68744  21848810.820                    21848819.609
 111756049.945 8  87082656.31745  21266472.688                    21266478.570
 11  8 18 16 51  0.0000000  0 11G28G13G10G19G11G07G16G06G08G03G23
 125272602.272 6  97615110.90443  23838596.703                    23838604.551
 106202446.122 8  82755247.19046  20209672.641                    20209679.266
 127515535.080 6  99362806.04043  24265407.719                    24265417.984
 110070868.517 8  85769528.90746  20945789.281                    20945794.773
 125308184.368 6  97642799.77043  23845354.914                    23845363.797
 112891793.246 8  87967735.396 7  21482612.828                    21482620.117
 128277420.537 6  99956471.56543  24410393.633                    24410402.531
 125148970.491 6  97518698.42843  23815061.633                    23815070.652
 122069352.150 7  95119006.39744  23229019.078                    23229027.961
 114893436.813 7  89527373.52745  21863496.813                    21863505.258
 111839603.479 8  87147762.92845  21282372.484                    21282378.105
 11  8 18 16 51 30.0000000  0 11G28G13G10G19G11G07G16G06G08G03G23
 125213460.153 6  97569026.19243  23827342.383                    23827350.543
 106236509.904 8  82781790.38646  20216154.922                    20216161.301
 127556497.604 6  99394724.88743  24273201.500                    24273212.316
 110079928.472 8  85776588.60646  20947513.070                    20947518.934
 125229914.663 6  97581810.47043  23830460.211                    23830470.172
 112840378.028 8  87927671.613 7  21472829.094                    21472836.039
 128365290.598 6 100024941.68343  24427114.164                    24427124.137
 125238474.736 6  97588441.94643  23832093.570                    23832103.246
 121998694.534 7  95063948.54844  23215573.422                    23215581.766
 114971047.687 7  89587849.49144  21878265.523                    21878273.863
 111923569.478 8  87213190.93445  21298350.602                    21298356.211
 11  8 18 16 52  0.0000000  0 11G28G13G10G19G11G07G16G06G08G03G23
 125154541.747 6  97523115.78543  23816130.680                    23816138.879
 106271157.499 8  82808788.50346  20222747.930                    20222754.164
 127597766.110 6  99426882.07843  24281055.625                    24281065.285
 110089607.758 8  85784130.91346  20949355.125                    20949360.754
 125151651.449 6  97520826.20743  23815568.000                    23815576.781
 112789061.451 8  87887684.689 7  21463063.570                    21463070.813
 128453083.756 5 100093351.83242  24443819.820                    24443830.102
 125328254.956 6  97658400.48443  23849178.359                    23849188.266
 121927991.613 7  95008855.41744  23202118.711                    23202127.531
 115049095.440 7  89648665.87645  21893117.477                    21893125.977
 112007945.470 8  87278938.42545  21314407.031                    21314412.738
 11  8 18 16 52 30.0000000  0 11G28G13G10G19G11G07G16G06G08G03G23
 125095846.987 6  97477379.68043  23804961.016                    23804969.746
 106306388.337 8  82836241.09046  20229452.188                    20229458.578
 127639338.377 6  99459276.05943  24288965.727                    24288976.086
 110099906.416 8  85792155.83846  20951315.070                    20951320.742
 125073397.472 6  97459849.19943  23800676.383                    23800685.395
 112737844.873 8  87847775.690 7  21453317.398                    21453324.289
 128540799.154 6 100161701.34643  24460512.750                    24460521.922
 125418308.691 6  97728572.19444  23866315.188                    23866325.125
 121857244.425 7  94953727.78044  23188655.914                    23188664.836
 115127577.329 7  89709820.54144  21908051.922                    21908061.051
 112092729.057 8  87345003.51945  21330540.852                    21330546.473
 11  8 18 16 53  0.0000000  0 11G28G13G10G19G11G07G16G06G08G03G23
 125037375.666 6  97431817.69543  23793834.383                    23793842.734
 106342200.989 8  82864147.03846  20236267.117                    20236273.762
 127681211.562 6  99491904.49843  24296934.477                    24296945.016
 110110823.937 8  85800662.99546  20953392.766                    20953398.152
 124995155.514 6  97398881.53643  23785787.609                    23785796.367
 112686729.878 7  87807945.851 7  21443590.820                    21443597.480
 128628435.448 6 100229989.34143  24477190.266                    24477198.492
 125508633.381 6  97798955.00143  23883503.445                    23883513.184
 121786453.149 7  94898565.79644  23175184.922                    23175193.672
 115206490.445 7  89771311.23044  21923069.242                    21923077.375
 112177917.652 8  87411384.20345  21346751.922                    21346757.383
 11  8 18 16 53 30.0000000  0 11G28G13G10G19G11G07G16G06G08G03G23
 124979127.688 6  97386429.71043  23782751.086                    23782758.898
 106378594.801 8  82892505.84946  20243192.648                    20243198.832
 127723383.027 6  99524765.33643  24304960.039                    24304969.680
 110122359.986 8  85809652.11746  20955588.000                    20955593.383
 124916928.277 6  97337925.34243  23770900.875                    23770909.711
 112635717.306 7  87768195.815 7  21433882.938                    21433889.961
 128715991.591 6 100298214.86843  24493850.969                    24493859.691
 125599226.294 6  97869546.77243  23900742.828                    23900752.867
 121715618.626 7  94843370.11544  23161705.336                    23161714.203
 115285832.076 7  89833135.81445  21938166.969                    21938176.188
 112263509.410 8  87478079.04445  21363039.109                    21363044.676
 11  8 18 16 54  0.0000000  0 11G28G13G10G19G11G07G16G06G08G03G23
 124921102.691 7  97341215.45944  23771708.633                    23771716.078
 106415569.133 8  82921316.99646  20250229.047                    20250235.223
 127765850.496 6  99557856.81143  24313041.180                    24313051.113
 110134514.247 8  85819122.97546  20957900.781                    20957906.145
 124838718.683 7  97276982.92243  23756017.969                    23756027.105
 112584808.936 7  87728526.984 7  21424195.328                    21424202.684
 128803467.122 6 100366377.54743  24510496.641                    24510505.980
 125690085.219 6  97940345.82743  23918032.203                    23918042.898
 121644741.960 7  94788141.57444  23148218.203                    23148226.648
 115365599.539 7  89895292.22945  21953346.633                    21953355.051
 112349500.993 8  87545085.43545  21379402.836                    21379408.629
 11  8 18 16 54 30.0000000  0 11G28G13G10G19G11G07G16G06G08G03G23
 124863300.470 7  97296174.81843  23760709.211                    23760717.152
 106453122.525 8  82950579.37546  20257374.727                    20257381.590
 127808611.147 6  99591176.76243  24321178.203                    24321188.469
 110147286.290 8  85829075.22046  20960330.773                    20960336.559
 124760529.354 6  97216056.28043  23741139.352                    23741147.922
 112534005.980 7  87688940.294 7  21414528.336                    21414534.949
 128890860.592 6 100434476.27543  24527127.586                    24527136.641
 125781207.324 6  98011350.00143  23935373.008                    23935382.570
 121573823.530 7  94732880.50044  23134722.773                    23134731.336
 115445790.310 7  89957778.48744  21968606.086                    21968615.074
 112435890.308 8  87612401.74445  21395842.148                    21395848.199
 11  8 18 16 55  0.0000000  0 11G28G13G10G19G11G07G16G06G08G03G23
 124805720.839 7  97251307.59644  23749751.828                    23749760.289
 106491254.840 8  82980292.85946  20264630.930                    20264637.902
 127851663.015 6  99624723.61643  24329370.773                    24329380.977
 110160675.611 8  85839508.46146  20962878.977                    20962884.574
 124682363.225 6  97155147.70743  23726264.375                    23726273.000
 112483310.004 8  87649436.956 7  21404881.141                    21404887.879
 128978171.304 6 100502510.50243  24543742.508                    24543751.328
 125872590.264 6  98082557.40243  23952762.711                    23952771.980
 121502863.727 7  94677587.17344  23121219.258                    23121227.918
 115526401.348 7  90020592.24844  21983945.953                    21983954.457
 112522674.864 8  87680026.03945  21412356.703                    21412362.184
 11  8 18 16 55 30.0000000  0 11G28G13G10G19G11G07G16G06G08G03G23
 124748363.627 7  97206613.73244  23738837.367                    23738845.313
 106529964.670 8  83010456.34446  20271997.203                    20272003.902
 127895002.761 6  99658494.83443  24337618.047                    24337627.699
 110174681.698 8  85850422.30246  20965544.352                    20965549.559
 124604223.096 6  97094259.40743  23711395.055                    23711403.531
 112432721.899 8  87610017.677 7  21395254.102                    21395261.113
 129065398.229 6 100570479.49643  24560340.641                    24560350.141
 125964231.135 7  98153965.85743  23970201.719                    23970210.059
 121431863.696 7  94622262.51644  23107708.813                    23107717.313
 115607430.105 7  90083731.48544  21999365.180                    21999373.746
 112609852.029 8  87747956.25045  21428946.203                    21428951.574
 11  8 18 16 56  0.0000000  0 11G28G13G10G19G11G07G16G06G08G03G23
 124691228.581 7  97162092.99143  23727964.563                    23727973.180
 106569251.224 8  83041069.23146  20279473.305                    20279480.422
 127938628.343 6  99692488.76843  24345919.445                    24345929.340
 110189304.279 8  85861816.53346  20968326.586                    20968332.191
 124526112.087 6  97033393.79443  23696530.664                    23696539.539
 112382243.551 8  87570683.906 7  21385648.305                    21385655.191
 129152540.426 6 100638382.50743  24576922.977                    24576932.793
 126056127.651 6  98225573.51143  23987688.492                    23987698.328
 121360823.884 7  94566906.84844  23094189.516                    23094199.113
 115688873.609 7  90147193.90444  22014863.781                    22014872.199
 112697419.563 8  87816190.65645  21445609.836                    21445615.340
 11  8 18 16 56 30.0000000  0 11G28G13G10G19G11G07G16G06G08G03G23
 124634315.711 7  97117745.37944  23717134.461                    23717142.176
 106609113.712 8  83072130.89546  20287058.867                    20287065.309
 127982537.033 6  99726703.31043  24354275.313                    24354284.844
 110204543.512 8  85873691.25946  20971226.539                    20971231.953
 124448032.840 6  96972552.92443  23681672.039                    23681680.875
 112331876.244 8  87531436.672 7  21376063.656                    21376071.195
 129239597.407 5 100706219.10843  24593488.484                    24593499.180
 126148277.483 6  98297378.48843  24005224.398                    24005233.906
 121289745.196 7  94511520.88544  23080664.703                    23080672.707
 115770729.597 7  90210977.74644  22030440.453                    22030448.707
 112785375.088 8  87884727.38545  21462347.250                    21462352.848
 11  8 18 16 57  0.0000000  0 11G28G13G10G19G11G07G16G06G08G03G23
 124577624.563 7  97073570.50844  23706347.031                    23706354.695
 106649550.707 8  83103640.23646  20294753.992                    20294760.488
 128026726.141 6  99761136.37043  24362684.453                    24362693.855
 110220397.667 8  85886045.15546  20974243.703                    20974249.215
 124369988.125 6  96911738.96443  23666820.938                    23666829.824
 112281621.146 8  87492276.867 7  21366500.570                    21366507.703
 129326567.900 5 100773988.11843  24610038.523                    24610049.859
 126240677.713 6  98369378.61743  24022807.023                    24022817.031
 121218628.111 7  94456105.00444  23067131.273                    23067139.539
 115852994.934 7  90275080.56344  22046094.484                    22046104.023
 112873715.669 8  87953564.16345  21479157.672                    21479163.570
 11  8 18 16 57 30.0000000  0 11G28G13G10G19G11G07G16G06G08G03G23
 124521154.565 7  97029567.97544  23695600.297                    23695609.086
 106690561.030 8  83135596.32146  20302557.938                    20302564.707
 128071193.344 6  99795786.09743  24371146.422                    24371155.555
 110236866.817 8  85898878.25746  20977377.539                    20977382.789
 124291980.973 6  96850954.25843  23651976.641                    23651985.668
 112231479.741 8  87453205.657 7  21356958.781                    21356966.059
 129413450.912 6 100841689.04543  24626573.188                    24626583.238
 126333325.970 6  98441572.00843  24040437.000                    24040447.738
 121147473.498 7  94400659.86444  23053590.703                    23053599.035
 115935666.974 7  90339500.28145  22061827.539                    22061835.625
 112962438.858 8  88022699.07045  21496041.891                    21496047.184
 11  8 18 16 58  0.0000000  0 11G28G13G10G19G11G07G16G06G08G03G23
 124464905.586 7  96985737.63743  23684896.477                    23684904.598
 106732144.138 8  83167998.72846  20310470.758                    20310477.422
 128115935.922 6  99830650.42543  24379660.102                    24379670.324
 110253950.076 8  85912189.88346  20980628.469                    20980634.285
 124214014.242 6  96790201.06143  23637139.789                    23637148.727
 112181453.814 8  87414224.429 7  21347439.570                    21347447.039
 129500245.695 6 100909321.29243  24643090.281                    24643099.504
 126426219.650 6  98513956.56243  24058114.500                    24058125.441
 121076282.223 7  94345186.19244  23040043.453                    23040052.531
 116018742.994 7  90404234.78845  22077635.492                    22077644.578
 113051542.101 8  88092130.13345  21512997.430                    21513002.574
 11  8 18 16 58 30.0000000  0 11G28G13G10G19G11G07G16G06G08G03G23
 124408877.337 6  96942079.30443  23674234.586                    23674242.430
 106774298.652 8  83200846.38746  20318492.977                    20318499.641
 128160950.921 6  99865726.98043  24388226.656                    24388236.117
 110271647.076 8  85925979.74546  20983996.391                    20984001.707
 124136090.954 6  96729481.72443  23622310.859                    23622319.891
 112131544.471 8  87375334.052 7  21337942.055                    21337949.227
 129586951.398 6 100976884.12243  24659589.867                    24659598.797
 126519356.129 6  98586530.36543  24075837.883                    24075848.410
 121005055.071 7  94289684.53744  23026489.625                    23026497.953
 116102220.274 7  90469281.98544  22093520.984                    22093530.113
 113141022.743 8  88161855.25945  21530025.016                    21530030.523
 11  8 18 16 59  0.0000000  0 11G28G13G10G19G11G07G16G06G08G03G23
 124353069.626 6  96898592.82643  23663614.344                    23663622.355
 106817023.732 8  83234138.63846  20326623.320                    20326629.781
 128206236.048 6  99901014.10143  24396844.195                    24396854.152
 110289957.138 8  85940247.31846  20987480.641                    20987486.285
 124058213.832 6  96668798.35943  23607491.906                    23607500.992
 112081753.372 7  87336535.813 7  21328466.727                    21328474.215
 129673567.269 6 101044376.97043  24676072.281                    24676081.145
 126612733.094 6  98659291.55343  24093607.125                    24093617.844
 120933792.795 7  94234155.53844  23012928.617                    23012937.484
 116186095.972 7  90534639.61044  22109482.328                    22109490.512
 113230878.486 8  88231872.68245  21547123.703                    21547129.266
 11  8 18 16 59 30.0000000  0 11G28G13G10G19G11G07G16G06G08G03G23
 124297482.212 6  96855278.01543  23653036.727                    23653044.879
 106860318.034 8  83267874.44546  20334861.352                    20334868.406
 128251788.695 6  99936509.66343  24405512.414                    24405522.266
 110308879.664 8  85954992.13746  20991081.102                    20991086.645
 123980385.419 6  96608152.92843  23592681.609                    23592690.215
 112032081.717 8  87297830.645 7  21319014.758                    21319022.344
 129760092.551 6 101111799.21243  24692537.211                    24692546.281
 126706347.700 6  98732237.93743  24111421.344                    24111431.918
 120862496.331 7  94178599.87344  22999361.617                    22999369.695
 116270367.105 7  90600305.37844  22125518.367                    22125526.941
 113321106.777 8  88302180.38845  21564293.797                    21564299.551
 11  8 18 17  0  0.0000000  0 11G28G13G10G19G11G07G16G06G08G03G23
 124242114.588 7  96812134.45644  23642500.367                    23642509.188
 106904180.278 8  83302052.79646  20343208.492                    20343215.293
 128297605.924 6  99972211.35643  24414230.680                    24414240.996
 110328413.722 8  85970213.46846  20994798.344                    20994803.535
 123902609.125 6  96547548.13643  23577880.422                    23577890.137
 111982530.994 8  87259219.709 7  21309585.352                    21309592.688
 129846526.217 6 101179150.09243  24708985.523                    24708994.117
 126800197.522 6  98805367.58643  24129280.398                    24129290.336
 120791166.373 7  94123018.13844  22985787.727                    22985796.539
 116355030.845 7  90666277.09244  22141629.227                    22141638.219
 113411704.633 8  88372776.07345  21581534.195                    21581539.539
 11  8 18 17  0 30.0000000  0 11G28G13G10G19G11G07G16G06G08G03G23
 124186966.465 7  96769161.94343  23632006.883                    23632014.234
 106948609.207 8  83336672.72546  20351663.031                    20351669.859
 128343685.234 6 100008117.28343  24422999.633                    24423009.648
 110348558.557 8  85985910.73246  20998632.141                    20998637.516
 123824887.523 6  96486985.95543  23563091.258                    23563100.574
 111933102.775 8  87220704.241 7  21300179.477                    21300186.746
 129932867.317 6 101246428.90543  24725416.047                    24725424.418
 126894279.933 6  98878678.54443  24147184.875                    24147193.852
 120719803.928 7  94067411.06944  22972207.563                    22972216.164
 116440084.576 7  90732552.68444  22157814.445                    22157823.652
 113502669.617 8  88443657.83845  21598844.258                    21598849.973
 11  8 18 17  1  0.0000000  0 11G28G13G10G19G11G07G16G06G08G03G23
 124132037.902 7  96726360.48644  23621553.797                    23621561.766
 106993603.939 8  83371733.52946  20360225.078                    20360232.238
 128390024.417 6 100044225.70243  24431818.398                    24431828.094
 110369313.645 8  86002083.52346  21002581.305                    21002587.277
 123747223.634 6  96426468.74843  23548312.211                    23548321.102
 111883798.885 8  87182285.649 7  21290797.383                    21290804.809
 130019115.037 6 101313634.88143  24741827.633                    24741837.266
 126988592.471 5  98952168.73543  24165129.734                    24165141.250
 120648409.701 7  94011779.23044  22958621.578                    22958630.387
 116525525.340 7  90799129.82044  22174073.336                    22174082.461
 113593999.209 8  88514823.69545  21616223.547                    21616228.883
 11  8 18 17  1 30.0000000  0 11G28G13G10G19G11G07G16G06G08G03G23
 124077328.132 7  96683729.50643  23611143.141                    23611151.383
 107039163.301 8  83407234.31946  20368894.297                    20368901.637
 128436620.707 6 100080534.51443  24440684.414                    24440694.418
 110390678.671 8  86018731.58846  21006647.289                    21006652.676
 123669620.451 6  96365998.82943  23533544.492                    23533554.109
 111834620.085 8  87143964.533 7  21281438.797                    21281446.309
 130105268.968 6 101380767.71443  24758222.750                    24758232.051
 127083132.732 6  99025836.38143  24183121.266                    24183131.418
 120576984.228 7  93956123.06244  22945030.227                    22945038.543
 116611350.347 7  90866006.39644  22190405.070                    22190414.523
 113685690.596 8  88586271.48845  21633671.984                    21633678.094
 11  8 18 17  2  0.0000000  0 11G28G13G10G19G11G07G16G06G08G03G23
 124022836.744 7  96641268.74543  23600773.453                    23600781.789
 107085285.485 8  83443173.65746  20377671.859                    20377678.387
 128483471.137 6 100117041.32843  24449600.570                    24449610.145
 110412652.094 8  86035853.73346  21010828.852                    21010834.129
 123592080.716 7  96305578.34643  23518789.227                    23518798.559
 111785568.084 8  87105742.217 7  21272104.320                    21272111.852
 130191328.006 5 101447826.61542  24774598.344                    24774608.203
 127177897.937 6  99099679.37943  24201154.664                    24201164.184
 120505528.734 7  93900443.47944  22931432.539                    22931441.211
 116697556.756 7  90933180.16644  22206810.383                    22206818.820
 113777741.316 8  88657999.26145  21651188.484                    21651194.047
 11  8 18 17  2 30.0000000  0 11G28G13G10G19G11G07G16G06G08G03G23
 123968563.400 7  96598977.86043  23590445.883                    23590453.488
 107131969.710 8  83479550.95546  20386554.977                    20386562.020
 128530573.123 6 100153744.16143  24458563.875                    24458572.695
 110435233.312 8  86053449.48046  21015125.828                    21015131.227
 123514607.453 7  96245209.66443  23504046.414                    23504055.770
 111736644.658 8  87067620.092 7  21262794.875                    21262802.023
 130277291.751 5 101514811.17242  24790956.805                    24790967.379
 127272885.859 6  99173695.83143  24219230.594                    24219240.742
 120434043.998 7  93844741.14244  22917829.836                    22917838.262
 116784141.966 7  91000649.10844  22223286.797                    22223295.930
 113870148.702 8  88730004.96645  21668773.031                    21668778.797
 11  8 18 17  3  0.0000000  0 11G28G13G10G19G11G07G16G06G08G03G23
 123914507.898 7  96556856.69543  23580159.086                    23580166.664
 107179214.460 8  83516365.02946  20395545.555                    20395552.824
 128577923.966 6 100190640.93743  24467573.992                    24467584.285
 110458421.660 8  86071518.32646  21019538.125                    21019543.684
 123437203.483 7  96184894.96343  23489316.586                    23489326.047
 111687851.026 8  87029599.100 7  21253509.680                    21253517.160
 130363159.063 6 101581720.67142  24807296.469                    24807307.168
 127368093.525 6  99247883.55443  24237348.109                    24237358.508
 120362531.000 7  93789016.76244  22904220.875                    22904229.594
 116871103.100 7  91068411.00744  22239834.664                    22239843.551
 113962910.059 7  88802286.48845  21686425.070                    21686430.891
 11  8 18 17  3 30.0000000  0 11G28G13G10G19G11G07G16G06G08G03G23
 123860669.647 7  96514904.83843  23569913.961                    23569922.551
 107227018.069 8  83553614.57346  20404642.625                    20404649.504
 128625520.878 6 100227729.43243  24476631.344                    24476641.324
 110482215.507 8  86090058.98746  21024066.109                    21024071.109
 123359871.589 7  96124636.43143  23474601.109                    23474610.375
 111639188.597 8  86991680.340 7  21244249.773                    21244256.441
 130448928.921 6 101648554.34843  24823619.227                    24823628.152
 127463518.267 6  99322240.41743  24255506.891                    24255517.563
 120290990.118 7  93733270.63644  22890607.273                    22890615.945
 116958436.999 7  91136463.32344  22256453.922                    22256463.051
 114056022.601 8  88874841.65545  21704144.023                    21704149.539
 11  8 18 17  4  0.0000000  0 11G28G13G10G19G11G07G16G06G08G03G23
 123807048.176 7  96473121.93544  23559709.969                    23559718.441
 107275379.439 8  83591298.74046  20413845.141                    20413852.008
 128673361.153 6 100265007.54643  24485735.461                    24485744.793
 110506614.478 8  86109071.18046  21028709.039                    21028714.574
 123282614.827 7  96064436.43643  23459900.227                    23459908.582
 111590658.965 8  86953865.060 7  21235014.891                    21235021.855
 130534601.086 6 101715311.84943  24839921.719                    24839930.730
 127559157.745 6  99396764.60443  24273706.469                    24273716.766
 120219422.354 7  93677503.59744  22876988.438                    22876996.734
 117046141.213 7  91204804.20944  22273143.813                    22273152.105
 114149483.788 8  88947668.51345  21721929.102                    21721934.809
 11  8 18 17  4 30.0000000  0 11G28G13G10G19G11G07G16G06G08G03G23
 123753643.489 7  96431507.93744  23549547.375                    23549555.250
 107324297.526 8  83629416.70946  20423154.219                    20423160.848
 128721442.486 6 100302473.47743  24494884.328                    24494894.527
 110531617.971 8  86128554.42246  21033467.250                    21033472.785
 123205436.363 7  96004297.46244  23445212.844                    23445221.656
 111542264.316 8  86916154.970 7  21225805.680                    21225812.590
 130620174.633 7 101781992.51043  24856205.391                    24856215.586
 127655009.686 6  99471454.37943  24291945.844                    24291956.625
 120147829.213 7  93621716.77344  22863364.305                    22863373.117
 117134212.665 7  91273431.24044  22289903.188                    22289912.836
 114243291.063 8  89020765.03245  21739780.125                    21739786.051
 11  8 18 17  5  0.0000000  0 11G28G13G10G19G11G07G16G06G08G03G23
 123700455.286 7  96390062.57843  23539426.047                    23539433.910
 107373770.840 8  83667967.32046  20432568.727                    20432575.305
 128769761.803 6 100340124.84843  24504078.055                    24504089.086
 110557224.746 8  86148507.76746  21038340.063                    21038345.512
 123128339.159 7  95944221.80143  23430541.766                    23430550.582
 111494005.847 8  86878550.983 7  21216622.641                    21216629.523
 130705649.116 6 101848595.96143  24872470.883                    24872480.934
 127751071.472 5  99546307.63342  24310225.914                    24310236.156
 120076211.709 7  93565910.97444  22849736.164                    22849744.633
 117222648.414 7  91342342.18744  22306731.945                    22306740.668
 114337441.479 7  89094128.93745  21757696.203                    21757701.918
 11  8 18 17  5 30.0000000  0 10G28G13G10G19G11G07G06G08G03G23
 123647482.901 6  96348785.43643  23529345.719                    23529353.785
 107423797.752 8  83706949.30646  20442088.156                    20442095.484
 128818316.941 5 100377959.94443  24513319.664                    24513328.723
 110583433.816 8  86168930.41746  21043327.289                    21043332.777
 123051326.182 7  95884211.73044  23415886.977                    23415895.469
 111445884.985 8  86841054.221 7  21207465.141                    21207472.129
 127847340.529 6  99621322.47443  24328546.023                    24328555.254
 120004570.383 7  93510086.60544  22836103.063                    22836111.934
 117311446.292 7  91411535.25144  22323629.680                    22323639.082
 114431932.546 7  89167758.28945  21775677.516                    21775683.418
 11  8 18 17  6  0.0000000  0 10G28G13G10G19G11G07G06G08G03G23
 123594725.898 7  96307676.14344  23519306.555                    23519314.672
 107474376.616 8  83746361.39246  20451713.234                    20451720.199
 128867104.690 6 100415976.34743  24522603.648                    24522613.227
 110610243.878 8  86189821.37646  21048428.820                    21048434.715
 122974400.111 7  95824269.39743  23401248.328                    23401256.281
 111397903.070 8  86803665.739 7  21198334.602                    21198341.457
 127943814.046 6  99696496.59443  24346904.391                    24346914.539
 119932905.722 7  93454244.05444  22822465.609                    22822474.410
 117400602.571 7  91481007.66544  22340595.977                    22340604.215
 114526761.307 8  89241650.77545  21793722.633                    21793728.297
 11  8 18 17  6 30.0000000  0 10G28G13G10G19G11G07G06G08G03G23
 123542183.966 7  96266734.41044  23509308.406                    23509315.992
 107525506.193 8  83786202.59946  20461442.594                    20461449.855
 128916122.342 5 100454171.94943  24531930.539                    24531941.328
 110637653.873 7  86211179.81146  21053644.961                    21053650.367
 122897564.094 7  95764397.24844  23386627.289                    23386635.180
 111350061.872 8  86766386.906 7  21189230.484                    21189237.781
 128040489.606 6  99771828.09742  24365301.008                    24365311.145
 119861218.964 7  93398384.28144  22808823.961                    22808832.797
 117490114.768 6  91550757.37644  22357629.461                    22357638.484
 114621925.039 7  89315804.27345  21811831.711                    21811837.816
 11  8 18 17  7  0.0000000  0 10G28G13G10G19G11G07G06G08G03G23
 123489856.366 7  96225959.69643  23499350.453                    23499358.234
 107577184.747 8  83826471.57546  20471276.938                    20471283.660
 128965367.060 6 100492544.42443  24541302.344                    24541311.762
 110665663.098 8  86233005.18146  21058974.531                    21058980.633
 122820821.025 7  95704597.52743  23372023.266                    23372032.117
 111302362.811 8  86729218.834 7  21180153.961                    21180160.871
 128137364.560 6  99847315.06443  24383736.391                    24383745.570
 119789511.331 7  93342508.23644  22795178.211                    22795186.840
 117579979.778 7  91620782.02944  22374730.438                    22374738.398
 114717421.156 8  89390216.78145  21830003.703                    21830009.980
 11  8 18 17  7 30.0000000  0 10G28G13G10G19G11G07G06G08G03G23
 123437742.621 7  96185351.60244  23489433.820                    23489441.512
 107629410.924 8  83867167.27446  20481215.539                    20481222.313
 129014836.711 6 100531092.17843  24550715.617                    24550725.848
 110694270.246 8  86255296.45846  21064418.898                    21064424.234
 122744173.499 7  95644872.22443  23357437.656                    23357445.660
 111254807.651 8  86692162.892 7  21171104.102                    21171111.563
 128234436.582 6  99922955.54243  24402208.672                    24402217.988
 119717783.735 7  93286616.65744  22781529.234                    22781537.699
 117670195.016 7  91691079.55644  22391896.305                    22391907.027
 114813246.846 8  89464886.09745  21848239.250                    21848245.035
 11  8 18 17  8  0.0000000  0 10G28G13G10G19G11G07G06G08G03G23
 123385842.391 7  96144909.91744  23479557.141                    23479565.191
 107682183.050 8  83908288.38246  20491257.570                    20491264.578
 129064527.996 6 100569812.63543  24560172.039                    24560181.504
 110723473.852 8  86278052.50646  21069976.164                    21069981.703
 122667624.885 7  95585224.02343  23342870.672                    23342878.938
 111207397.815 8  86655220.175 7  21162082.586                    21162089.637
 128331702.816 6  99998747.32843  24420717.117                    24420727.543
 119646037.250 7  93230710.33944  22767876.086                    22767884.609
 117760757.341 7  91761647.56844  22409130.906                    22409139.867
 114909399.273 8  89539810.00445  21866536.414                    21866542.355
 11  8 18 17  8 30.0000000  0 10G28G13G10G19G11G07G06G08G03G23
 123334155.326 7  96104634.33444  23469721.211                    23469729.238
 107735499.613 8  83949833.73646  20501403.195                    20501410.117
 129114438.335 6 100608703.79043  24569669.492                    24569679.402
 110753273.058 8  86301272.64946  21075646.688                    21075651.844
 122591178.012 7  95525655.08143  23328323.266                    23328331.566
 111160134.765 8  86618391.843 7  21153088.523                    21153095.621
 128429160.967 6 100074688.67643  24439263.375                    24439273.680
 119574272.752 7  93174790.00044  22754220.234                    22754228.332
 117851663.750 7  91832483.64944  22426429.859                    22426439.145
 115005875.592 8  89614986.30745  21884895.313                    21884901.332
 11  8 18 17  9  0.0000000  0 10G28G13G10G19G11G07G06G08G03G23
 123282680.767 7  96064524.32744  23459926.281                    23459934.121
 107789358.870 8  83991801.96046  20511652.555                    20511659.258
 129164564.817 6 100647763.37643  24579207.867                    24579218.258
 110783666.866 8  86324956.13046  21081430.469                    21081435.938
 122514836.358 7  95466168.14443  23313795.242                    23313804.238
 111113020.267 8  86581679.260 7  21144123.000                    21144129.977
 128526808.320 5 100150777.39943  24457843.680                    24457855.441
 119502491.273 7  93118856.41944  22740560.547                    22740568.813
 117942911.661 7  91903585.87344  22443793.508                    22443802.539
 115102673.279 8  89690413.00945  21903315.109                    21903320.719
 11  8 18 17  9 30.0000000  0 10G28G13G10G19G11G07G06G08G03G23
 123231418.485 7  96024579.72444  23450170.891                    23450179.012
 107843759.626 8  84034192.14046  20522004.430                    20522011.191
 129214905.193 6 100686989.60543  24588787.586                    24588797.883
 110814654.298 8  86349102.16746  21087327.188                    21087332.313
 122438602.257 7  95406765.01443  23299289.211                    23299297.090
 111066056.344 8  86545084.009 7  21135185.695                    21135193.016
 128624642.973 6 100227012.08443  24476462.828                    24476472.852
 119430693.982 7  93062910.53744  22726898.477                    22726906.316
 118034498.192 7  91974951.95744  22461222.250                    22461231.242
 115199789.880 8  89766088.21745  21921796.141                    21921802.121
 11  8 18 17 10  0.0000000  0 10G28G13G10G19G11G07G06G08G03G23
 123180367.944 7  95984800.12244  23440456.422                    23440464.824
 107898700.159 8  84077002.91446  20532459.297                    20532466.141
 129265456.810 6 100726380.44843  24598407.055                    24598417.168
 110846233.937 8  86373709.66546  21093336.445                    21093342.039
 122362478.812 7  95347448.09343  23284802.766                    23284811.578
 111019244.374 8  86508607.158 7  21126277.664                    21126284.949
 128722661.858 6 100303390.40843  24495115.117                    24495124.777
 119358881.674 7  93006952.92545  22713232.602                    22713240.473
 118126420.475 7  92046579.68044  22478714.273                    22478723.273
 115297222.321 8  89842009.53445  21940336.914                    21940342.680
 11  8 18 17 10 30.0000000  0 10G28G13G10G19G11G07G06G08G03G23
 123129528.709 7  95945185.15444  23430782.148                    23430790.191
 107954179.085 8  84120233.21946  20543016.906                    20543023.699
 129316216.615 6 100765933.53443  24608066.820                    24608076.367
 110878404.294 8  86398777.47746  21099458.102                    21099464.125
 122286469.287 6  95288219.93043  23270339.258                    23270347.082
 110972585.722 8  86472249.781 7  21117399.172                    21117406.402
 128820862.617 6 100379910.47043  24513800.063                    24513811.918
 119287055.236 7  92950984.31944  22699564.125                    22699572.445
 118218675.539 7  92118466.70344  22496269.523                    22496279.262
 115394967.847 8  89918174.82745  21958936.969                    21958943.918
 11  8 18 17 11  0.0000000  0 10G28G13G10G19G11G07G06G08G03G23
 123078900.069 7  95905734.29644  23421148.172                    23421155.406
 108010193.617 8  84163880.88046  20553676.086                    20553682.578
 129367181.542 6 100805646.44643  24617764.938                    24617775.070
 110911163.961 8  86424304.48046  21105692.023                    21105697.758
 122210576.447 7  95229082.69143  23255896.805                    23255904.719
 110926082.093 8  86436013.198 7  21108549.719                    21108556.656
 128919242.470 6 100456569.97843  24532522.578                    24532532.898
 119215215.939 7  92895005.66844  22685894.023                    22685901.695
 118311260.282 7  92190610.63344  22513888.914                    22513897.438
 115493023.596 8  89994581.83545  21977596.875                    21977602.629
 11  8 18 17 11 30.0000000  0 10G28G13G10G19G11G07G06G08G03G23
 123028481.613 7  95866447.19744  23411553.516                    23411561.223
 108066742.698 8  84207945.07146  20564436.836                    20564444.176
 129418349.203 6 100845517.29343  24627501.195                    24627511.898
 110944512.099 8  86450290.03046  21112038.008                    21112043.527
 122134803.210 7  95170038.67043  23241477.617                    23241485.859
 110879735.033 8  86399898.610 7  21099729.930                    21099737.051
 129017799.099 6 100533367.32043  24551277.195                    24551287.551
 119143364.649 7  92839017.68944  22672221.125                    22672229.051
 118404172.059 7  92263009.32644  22531568.695                    22531578.262
 115591386.944 7  90071228.54045  21996315.219                    21996320.660
 11  8 18 17 12  0.0000000  0 10G28G13G10G19G11G07G06G08G03G23
 122978272.820 7  95827323.49644  23401999.047                    23402007.066
 108123824.841 8  84252424.63346  20575299.477                    20575306.426
 129469716.666 6 100885543.86643  24637276.258                    24637286.941
 110978447.083 8  86476732.85846  21118496.125                    21118501.352
 122059152.935 7  95111090.45444  23227082.047                    23227090.480
 110833546.583 8  86363907.620 7  21090940.805                    21090947.730
 129116529.987 6 100610300.42943  24570065.148                    24570075.480
 119071502.883 7  92783021.54744  22658546.070                    22658554.086
 118497408.012 7  92335660.71044  22549311.016                    22549320.156
 115690054.746 7  90148112.47145  22015090.469                    22015096.336
 11  8 18 17 12 30.0000000  0 10G28G13G10G19G11G07G06G08G03G23
 122928273.149 7  95788362.71944  23392484.461                    23392491.723
 108181438.051 8  84297318.01246  20586262.719                    20586270.086
 129521281.152 6 100925723.96243  24647089.398                    24647099.285
 111012967.524 8  86503631.89046  21125064.531                    21125070.605
 121983628.434 7  95052240.23044  23212709.469                    23212718.047
 110787518.349 8  86328041.471 7  21082182.055                    21082189.070
 129215432.719 6 100687367.39343  24588886.086                    24588896.547
 118999631.570 7  92727017.95644  22644868.992                    22644877.434
 118590965.307 7  92408562.40244  22567114.781                    22567123.711
 115789024.340 7  90225231.56645  22033923.625                    22033929.887
 11  8 18 17 13  0.0000000  0 10G28G13G10G19G11G07G06G08G03G23
 122878482.151 7  95749564.56644  23383008.828                    23383016.871
 108239581.546 7  84342624.59946  20597327.234                    20597334.449
 129573040.326 6 100966055.76843  24656939.117                    24656949.109
 111048072.526 8  86530986.42046  21131745.141                    21131750.949
 121908232.831 7  94993490.45844  23198362.742                    23198370.957
 110741651.693 8  86292301.228 7  21073453.805                    21073460.461
 129314504.918 6 100764566.50143  24607738.414                    24607749.145
 118927751.946 7  92671007.91344  22631190.695                    22631199.316
 118684841.193 6  92481712.39844  22584977.648                    22584987.758
 115888292.956 8  90302583.66145  22052814.336                    22052820.645
 11  8 18 17 13 30.0000000  0 10G28G13G10G19G11G07G06G08G03G23
 122828899.100 7  95710928.44744  23373574.273                    23373581.848
 108298251.727 8  84388341.59746  20608491.484                    20608498.645
 129624990.827 6 101006536.63443  24666824.406                    24666834.941
 111083760.075 8  86558794.88046  21138536.141                    21138541.910
 121832968.606 7  94934843.06144  23184040.500                    23184048.957
 110695947.929 8  86256687.910 7  21064756.156                    21064763.422
 129413743.522 5 100841895.14943  24626623.586                    24626633.934
 118855865.063 7  92614992.18644  22617511.234                    22617519.418
 118779032.056 7  92555107.77544  22602902.148                    22602911.926
 115987857.793 7  90380166.57045  22071760.953                    22071766.777
 11  8 18 17 14  0.0000000  0 10G28G13G10G19G11G07G06G08G03G23
 122779523.454 7  95672453.94244  23364178.219                    23364186.313
 108357447.351 8  84434468.02946  20619756.180                    20619763.266
 129677130.013 6 101047164.56443  24676746.117                    24676756.586
 111120028.869 8  86587056.26346  21145437.938                    21145443.559
 121757839.082 7  94876300.59344  23169743.586                    23169751.840
 110650409.208 8  86221203.206 7  21056090.750                    21056097.855
 129513146.175 6 100919351.65043  24645539.453                    24645549.609
 118783971.805 7  92558971.50144  22603830.789                    22603838.668
 118873535.496 7  92628746.78244  22620886.180                    22620894.645
 116087715.873 7  90457977.98645  22090763.188                    22090769.406
 11  8 18 17 14 30.0000000  0 10G28G13G10G19G11G07G06G08G03G23
 122730354.785 7  95634140.73944  23354821.227                    23354829.824
 108417166.872 8  84481002.68946  20631120.539                    20631127.809
 129729455.223 6 101087937.40043  24686703.688                    24686713.602
 111156877.635 8  86615769.57346  21152450.352                    21152455.637
 121682847.395 7  94817865.54244  23155473.078                    23155481.574
 110605037.517 8  86185848.646 7  21047456.766                    21047464.207
 129612710.611 6 100996934.27043  24664485.922                    24664496.047
 118712073.410 7  92502946.81345  22590148.391                    22590156.832
 118968348.636 6  92702627.10344  22638927.906                    22638937.473
 116187864.859 7  90536016.09445  22109820.945                    22109827.121
 11  8 18 17 15  0.0000000  0 10G28G13G10G19G11G07G06G08G03G23
 122681392.281 6  95595988.19344  23345504.539                    23345512.348
 108477408.465 8  84527944.16046  20642584.242                    20642591.180
 129781963.557 6 101128852.95643  24696695.547                    24696705.938
 111194304.613 8  86644933.44246  21159572.039                    21159577.801
 121607996.464 7  94759540.16244  23141230.133                    23141238.180
 110559834.027 8  86150625.151 7  21038854.906                    21038861.684
 129712434.094 6 101074640.86543  24683462.445                    24683472.582
 118640171.017 7  92446919.00144  22576465.992                    22576474.637
 119063468.565 7  92776746.51044  22657029.914                    22657037.664
 116288301.587 7  90614278.41745  22128933.188                    22128939.629
 11  8 18 17 15 30.0000000  0 10G28G13G10G19G11G07G06G08G03G23
 122632635.897 7  95557996.22444  23336226.273                    23336234.297
 108538170.401 8  84575291.09846  20654146.836                    20654153.809
 129834652.200 6 101169908.97943  24706722.094                    24706732.273
 111232308.724 8  86674547.02946  21166804.102                    21166810.105
 121533289.294 7  94701326.79344  23127013.391                    23127021.992
 110514800.584 8  86115534.166 7  21030285.281                    21030292.359
 129812314.454 6 101152469.69343  24702468.453                    24702479.207
 118568266.100 7  92390889.24245  22562782.805                    22562791.680
 119158892.299 7  92851102.58644  22675187.742                    22675197.203
 116389023.022 7  90692762.58645  22148100.063                    22148106.242
 11  8 18 17 16  0.0000000  0 10G28G13G10G19G11G07G06G08G03G23
 122584084.590 7  95520164.05244  23326987.063                    23326995.133
 108599450.566 8  84623041.84446  20665808.250                    20665815.430
 129887518.821 6 101211103.70043  24716782.250                    24716792.672
 111270888.453 8  86704609.15146  21174145.703                    21174151.164
 121458728.709 7  94643227.67244  23112824.828                    23112833.199
 110469938.942 8  86080577.056 7  21021748.438                    21021755.828
 129912349.108 6 101230418.67542  24721505.070                    24721515.531
 118496359.810 7  92334858.39245  22549099.766                    22549108.344
 119254617.289 7  92925693.44844  22693403.477                    22693412.738
 116490026.464 7  90771466.48645  22167320.422                    22167326.668
 11  8 18 17 16 30.0000000  0 10G28G13G10G19G11G07G06G08G03G23
 122535737.921 6  95482491.35244  23317786.875                    23317795.410
 108661247.206 8  84671195.04146  20677567.680                    20677574.766
 129940560.391 6 101252434.79043  24726874.898                    24726885.563
 111310042.096 8  86735118.46946  21181596.109                    21181601.629
 121384318.511 7  94585245.73644  23098664.305                    23098673.633
 110425251.331 8  86045755.559 7  21013244.703                    21013251.602
 130012535.490 6 101308486.01443  24740569.758                    24740580.070
 118424453.296 7  92278827.38045  22535416.305                    22535424.914
 119350640.286 7  93000516.45344  22711676.086                    22711685.855
 116591309.134 7  90850387.97745  22186593.789                    22186600.590
 11  8 18 17 17  0.0000000  0 10G28G13G10G19G11G07G06G08G03G23
 122487595.368 7  95444977.69444  23308626.758                    23308633.840
 108723558.263 8  84719749.08446  20689424.680                    20689432.059
 129993774.078 6 101293899.88942  24737001.172                    24737012.051
 111349767.831 8  86766073.57146  21189155.945                    21189161.398
 121310061.164 7  94527382.91444  23084533.805                    23084542.602
 110380738.438 8  86011070.207 7  21004774.055                    21004780.930
 130112870.991 6 101386669.45143  24759662.797                    24759673.660
 118352547.379 7  92222796.81645  22521732.883                    22521741.172
 119446958.153 6  93075569.26543  22730004.539                    22730013.836
 116692867.952 7  90929524.64845  22205920.383                    22205926.156
 11  8 18 17 17 30.0000000  0 10G28G13G10G19G11G07G06G08G03G23
 122439655.926 7  95407622.29844  23299503.094                    23299511.371
 108786381.500 8  84768702.22946  20701379.977                    20701387.020
 130047156.935 6 101335496.87842  24747160.164                    24747170.184
 111390064.047 8  86797473.21446  21196823.805                    21196829.270
 121235959.259 7  94469641.20644  23070432.711                    23070441.035
 110336401.711 8  85976522.122 7  20996337.133                    20996343.953
 130213353.241 5 101464967.12343  24778784.461                    24778795.027
 118280643.298 7  92166767.69544  22508049.789                    22508058.445
 119543568.162 7  93150849.73644  22748389.695                    22748398.504
 116794700.149 7  91008874.33745  22225298.555                    22225304.816
 11  8 18 17 18  0.0000000  0 10G28G13G10G19G11G07G06G08G03G23
 122391919.584 7  95370425.13744  23290419.789                    23290427.789
 108849715.247 8  84818053.17046  20713431.648                    20713438.996
 130100706.455 5 101377223.78842  24757349.891                    24757360.949
 111430929.841 7  86829316.67646  21204600.563                    21204606.465
 121162016.464 7  94412023.52744  23056361.758                    23056370.844
 110292244.242 8  85942113.729 7  20987934.461                    20987941.273
 130313979.812 5 101543377.37843  24797932.656                    24797943.371
 118208742.971 7  92110741.48845  22494367.711                    22494375.844
 119640467.438 7  93226355.62443  22766828.570                    22766836.801
 116896803.208 7  91088435.09445  22244727.984                    22244733.793
 11  8 18 17 18 30.0000000  0 10G28G13G10G19G11G07G06G08G03G23
 122344385.621 7  95333385.70544  23281373.969                    23281381.516
 108913557.643 8  84867800.46346  20725580.461                    20725587.836
 130154419.708 6 101419078.14542  24767571.094                    24767582.285
 111472363.151 8  86861602.35146  21212484.883                    21212490.828
 121088235.956 7  94354532.28544  23042322.414                    23042330.512
 110248267.658 8  85907846.278 7  20979565.609                    20979572.320
 130414748.444 6 101621898.28542  24817109.289                    24817119.188
 118136847.273 7  92054718.89145  22480686.656                    22480694.809
 119737653.184 6  93302084.73943  22785322.461                    22785332.113
 116999174.045 7  91168204.49645  22264208.273                    22264214.625
 11  8 18 17 19  0.0000000  0 10G28G13G10G19G11G07G06G08G03G23
 122297053.076 7  95296503.21844  23272367.180                    23272374.555
 108977906.381 8  84917942.31146  20737825.766                    20737833.031
 130208293.677 6 101461057.82342  24777823.320                    24777834.191
 111514362.023 8  86894328.73546  21220476.570                    21220482.891
 121014620.094 7  94297169.32244  23028313.539                    23028321.418
 110204472.669 8  85873720.338 7  20971231.836                    20971238.777
 130515656.193 6 101700527.70243  24836311.258                    24836320.879
 118064957.218 7  91998700.69745  22467006.109                    22467014.641
 119835122.570 7  93378034.85944  22803870.789                    22803879.270
 117101809.510 7  91248180.10145  22283739.289                    22283745.773
 11  8 18 17 19 30.0000000  0 10G28G13G10G19G11G07G06G08G03G23
 122249921.576 6  95259777.37944  23263397.836                    23263405.594
 109042759.555 8  84968477.21946  20750167.141                    20750174.609
 130262325.722 6 101503160.61442  24788105.188                    24788116.426
 111556925.185 7  86927494.81946  21228576.555                    21228582.035
 120941172.489 7  94239937.46844  23014336.734                    23014345.266
 110160861.382 8  85839737.535 7  20962932.797                    20962939.535
 130616700.816 6 101779263.75043  24855539.648                    24855549.332
 117993073.550 7  91942687.47144  22453327.031                    22453334.973
 119932872.471 6  93454203.54744  22822470.875                    22822480.902
 117204707.011 7  91328359.90945  22303320.016                    22303326.699
 11  8 18 17 20  0.0000000  0  9G28G13G10G19G11G07G08G03G23
 122202991.225 7  95223208.27744  23254467.461                    23254475.281
 109108115.782 8  85019404.12146  20762603.828                    20762610.930
 130316514.064 6 101545385.27942  24798417.469                    24798427.828
 111600051.768 8  86961099.92746  21236783.375                    21236789.137
 120867896.770 7  94182839.56943  23000393.008                    23000400.781
 110117436.793 8  85805900.203 7  20954669.617                    20954676.492
 117921199.260 7  91886681.56345  22439650.023                    22439658.027
 120030900.647 7  93530589.04344  22841126.109                    22841135.465
 117307864.364 7  91408742.16945  22322950.367                    22322956.801
 11  8 18 17 20 30.0000000  0  9G28G13G10G19G11G07G08G03G23
 122156261.323 7  95186795.39044  23245574.789                    23245582.875
 109173972.954 8  85070721.36046  20775136.344                    20775143.789
 130370855.476 6 101587729.21442  24808758.336                    24808768.438
 111643739.749 7  86995142.48946  21245097.055                    21245102.898
 120794795.616 7  94125877.67344  22986482.422                    22986490.063
 110074199.940 8  85772209.158 7  20946441.797                    20946448.441
 117849335.342 7  91830683.74044  22425974.945                    22425982.797
 120129204.206 6  93607189.15044  22859832.781                    22859841.969
 117411278.509 7  91489324.54645  22342629.406                    22342635.449
 11  8 18 17 21  0.0000000  0  9G28G13G10G19G11G07G08G03G23
 122109730.027 7  95150537.25244  23236720.594                    23236727.426
 109240327.931 8  85122426.50946  20787763.289                    20787770.410
 130425346.399 6 101630189.65642  24819128.422                    24819137.520
 111687986.124 7  87029620.16946  21253517.023                    21253522.383
 120721871.158 7  94069053.48844  22972605.320                    22972613.473
 110031151.895 8  85738665.227 7  20938249.961                    20938256.949
 117777481.830 7  91774694.01745  22412301.516                    22412309.617
 120227779.286 7  93684000.81744  22878591.211                    22878600.477
 117514945.670 7  91570104.06144  22362356.883                    22362363.145
 11  8 18 17 21 30.0000000  0  9G28G13G10G19G11G07G08G03G23
 122063396.886 6  95114433.50444  23227903.625                    23227911.074
 109307178.864 8  85174518.11846  20800484.516                    20800491.449
 130479984.213 6 101672764.57942  24829524.211                    24829534.148
 111732789.647 8  87064531.98446  21262042.852                    21262048.141
 120649126.564 7  94012369.44244  22958762.109                    22958770.258
 109988294.632 8  85705269.965 7  20930094.484                    20930101.363
 117705640.392 7  91718713.70145  22398630.398                    22398638.355
 120326623.312 7  93761022.07544  22897400.555                    22897409.141
 117618863.286 7  91651078.75544  22382131.984                    22382138.250
 11  8 18 17 22  0.0000000  0  9G28G13G10G19G11G07G08G03G23
 122017261.425 7  95078483.83244  23219124.281                    23219132.066
 109374523.629 8  85226994.52746  20813299.664                    20813306.922
 130534766.068 6 101715451.75942  24839949.727                    24839959.504
 111778148.240 7  87099876.32246  21270674.172                    21270679.703
 120576564.813 7  93955827.87744  22944954.289                    22944962.203
 109945629.395 8  85672024.334 7  20921975.727                    20921982.371
 117633812.057 7  91662743.59645  22384961.625                    22384969.629
 120425733.291 6  93838250.56644  22916260.375                    22916269.852
 117723028.179 7  91732246.12445  22401953.664                    22401960.289
 11  8 18 17 22 30.0000000  0  9G28G13G10G19G11G07G08G03G23
 121971322.496 7  95042687.30844  23210382.461                    23210390.438
 109442360.309 8  85279854.24346  20826208.969                    20826215.793
 130589689.251 6 101758249.05442  24850401.422                    24850411.328
 111824060.712 7  87135652.26046  21279410.961                    21279416.438
 120504189.664 7  93899431.71644  22931181.227                    22931189.223
 109903158.697 8  85638930.289 7  20913893.547                    20913900.746
 117561998.672 7  91606785.14945  22371296.016                    22371304.176
 120525106.480 6  93915684.17343  22935170.516                    22935179.277
 117827437.407 7  91813603.87245  22421821.875                    22421828.449
 11  8 18 17 23  0.0000000  0  9G28G13G10G19G11G07G08G03G23
 121925580.334 7  95007044.09744  23201677.742                    23201686.328
 109510686.653 8  85333095.52246  20839211.141                    20839218.223
 130644750.958 6 101801154.22843  24860879.570                    24860889.184
 111870525.157 8  87171858.31146  21288252.609                    21288258.168
 120432003.895 7  93843183.13344  22917444.563                    22917453.016
 109860884.350 8  85605989.240 7  20905849.281                    20905856.094
 117490201.604 7  91550839.41244  22357633.500                    22357642.148
 120624739.863 6  93993320.48544  22954129.555                    22954138.980
 117932088.391 7  91895150.02344  22441736.367                    22441742.922
 11  8 18 17 23 30.0000000  0  9G28G13G10G19G11G07G08G03G23
 121880033.617 7  94971553.18944  23193010.828                    23193018.836
 109579500.155 8  85386716.40846  20852305.695                    20852312.902
 130699948.036 6 101844164.91443  24871382.688                    24871392.633
 111917539.182 7  87208492.59746  21297199.500                    21297205.277
 120360009.964 7  93787084.02844  22903744.570                    22903752.953
 109818807.618 8  85573202.179 7  20897842.164                    20897849.668
 117418421.892 7  91494907.18945  22343975.078                    22343982.332
 120724630.829 7  94071157.51944  22973138.961                    22973147.750
 118036977.868 7  91976882.00844  22461696.500                    22461703.160
 11  8 18 17 24  0.0000000  0 10G28G13G10G19G11G07G24G08G03G23
 121834681.632 7  94936214.01444  23184380.281                    23184388.191
 109648798.262 8  85440714.90446  20865492.688                    20865499.910
 130755277.538 6 101887278.76343  24881911.336                    24881921.289
 111965101.076 7  87245553.80246  21306250.039                    21306255.930
 120288211.215 7  93731137.00144  22890082.563                    22890090.125
 109776930.432 8  85540570.606 7  20889873.180                    20889880.590
 128111088.43416  99826890.61553  24378734.891                    24378746.723
 117346660.965 7  91438989.62045  22330318.594                    22330326.941
 120824776.201 7  94149192.80244  22992195.563                    22992205.504
 118142103.010 7  92058797.61444  22481701.711                    22481707.785
 11  8 18 17 24 30.0000000  0 10G28G13G10G19G11G07G24G08G03G23
 121789524.425 7  94901026.61044  23175787.336                    23175795.074
 109718580.169 8  85495090.38846  20878771.508                    20878778.797
 130810737.525 6 101930494.32743  24892464.969                    24892475.539
 112013209.638 8  87283040.97646  21315404.477                    21315410.848
 120216611.222 7  93675344.85844  22876457.180                    22876464.879
 109735255.432 8  85508096.580 7  20881942.719                    20881949.531
 128038991.618 6  99770711.38842  24365015.039                    24365028.332
 117274920.380 7  91383087.89945  22316667.141                    22316674.816
 120925173.054 7  94227424.02244  23011301.008                    23011310.762
 118247461.501 7  92140895.06744  22501750.328                    22501756.941
 11  8 18 17 25  0.0000000  0 10G28G13G10G19G11G07G24G08G03G23
 121744560.318 7  94865989.67944  23167230.930                    23167238.750
 109788842.395 8  85549840.14646  20892142.344                    20892148.953
 130866324.370 6 101973808.67543  24903043.258                    24903053.324
 112061861.997 8  87320951.88746  21324663.234                    21324668.629
 120145212.030 7  93619709.17744  22862870.078                    22862877.926
 109693783.059 8  85475780.455 7  20874050.875                    20874058.129
 127966822.409 6  99714475.83943  24351281.805                    24351295.039
 117203200.850 7  91327202.57045  22303019.070                    22303027.109
 121025818.441 7  94305848.94144  23030452.227                    23030462.328
 118353049.410 7  92223171.25444  22521843.383                    22521849.586
 11  8 18 17 25 30.0000000  0 10G28G13G10G19G11G07G24G08G03G23
 121699788.918 7  94831102.92344  23158710.953                    23158719.215
 109859583.049 8  85604962.70446  20905603.828                    20905610.805
 130922035.610 6 102017219.98743  24913645.250                    24913654.750
 112111056.593 7  87359285.31846  21334024.320                    21334030.199
 120074017.113 7  93564232.67944  22849322.180                    22849330.266
 109652515.591 8  85443623.986 7  20866197.828                    20866205.000
 127894584.023 6  99658186.32543  24337534.914                    24337548.227
 117131504.401 7  91271335.24245  22289375.938                    22289383.887
 121126709.790 7  94384465.46443  23049651.219                    23049662.090
 118458864.501 7  92305624.50144  22541979.742                    22541985.781
 11  8 18 17 26  0.0000000  0 10G28G13G10G19G11G07G24G08G03G23
 121655210.407 7  94796366.45544  23150227.945                    23150235.711
 109930800.531 8  85660456.81846  20919155.992                    20919163.328
 130977869.169 6 102060726.61243  24924269.383                    24924279.801
 112160792.345 7  87398040.43246  21343488.742                    21343494.734
 120003030.388 7  93508918.39144  22835813.969                    22835822.074
 109611455.643 8  85411629.227 7  20858384.477                    20858391.191
 127822279.741 6  99601845.51743  24323776.703                    24323789.719
 117059833.265 7  91215487.62745  22275737.250                    22275745.402
 121227844.670 6  94463271.78243  23068897.602                    23068906.434
 118564904.453 7  92388252.95344  22562157.828                    22562164.828
 11  8 18 17 26 30.0000000  0  9G28G13G19G11G07G24G08G03G23
 121610824.172 7  94761779.80944  23141781.563                    23141788.973
 110002492.933 8  85716321.00346  20932798.664                    20932805.898
 112211067.399 7  87437215.77546  21353056.016                    21353061.172
 119932255.070 7  93453768.85144  22822345.906                    22822353.828
 109570605.821 8  85379798.204 7  20850611.078                    20850618.000
 127749912.417 6  99545455.54143  24310004.914                    24310018.133
 116988188.803 7  91159660.80645  22262103.711                    22262112.031
 121329220.566 6  94542265.93443  23088187.156                    23088197.887
 118671166.542 7  92471054.47144  22582378.945                    22582386.059
 11  8 18 17 27  0.0000000  0  9G28G13G19G11G07G24G08G03G23
 121566628.461 7  94727341.62944  23133371.289                    23133378.867
 110074656.810 8  85772552.56046  20946530.977                    20946538.367
 112261878.639 7  87476808.92846  21362725.086                    21362730.629
 119861692.945 7  93398785.42144  22808918.047                    22808925.793
 109529965.922 8  85348130.757 7  20842877.266                    20842884.273
 127677483.960 6  99489017.96143  24296222.438                    24296235.250
 116916571.534 7  91103855.16745  22248475.414                    22248483.254
 121430833.289 7  94621444.59843  23107525.711                    23107533.648
 118777646.588 7  92554025.84844  22602640.992                    22602648.098
 11  8 18 17 27 30.0000000  0 10G28G13G19G11G01G07G24G08G03G23
 121522622.876 7  94693051.56644  23124997.633                    23125004.855
 110147290.140 8  85829149.92446  20960352.547                    20960359.902
 112313224.468 7  87516818.64346  21372495.891                    21372501.809
 119791347.473 7  93343970.80344  22795531.914                    22795539.605
 128440603.27715 100083646.79816  24441434.406                    24441448.547
 109489538.598 8  85316628.959 7  20835184.391                    20835190.980
 127604997.269 6  99432534.99343  24282428.156                    24282441.336
 116844982.788 7  91048071.75845  22234852.781                    22234860.508
 121532680.550 7  94700806.07843  23126905.781                    23126914.734
 118884342.185 7  92637165.16244  22622945.133                    22622952.195
 11  8 18 17 28  0.0000000  0 10G28G13G19G11G01G07G24G08G03G23
 121478806.285 7  94658908.79744  23116659.570                    23116667.172
 110220389.593 8  85886110.51146  20974263.047                    20974270.504
 112365102.314 7  87557242.92346  21382368.414                    21382373.742
 119721221.218 7  93289327.02444  22782186.711                    22782195.414
 128364202.889 6 100024114.157 6  24426896.172                    24426909.672
 109449325.096 8  85285293.771 7  20827532.023                    20827538.469
 127532454.556 6  99376008.38343  24268623.781                    24268636.320
 116773423.766 7  90992311.51845  22221235.438                    22221243.535
 121634758.957 7  94780347.57744  23146331.922                    23146340.477
 118991249.853 7  92720469.76144  22643289.023                    22643295.512
 11  8 18 17 28 30.0000000  0 10G28G13G19G11G01G07G24G08G03G23
 121435178.290 7  94624912.97144  23108357.094                    23108364.496
 110293953.860 8  85943433.29146  20988261.914                    20988269.305
 112417510.672 7  87598080.59046  21392340.875                    21392346.785
 119651317.622 6  93234856.72844  22768884.602                    22768893.230
 128287736.632 6  99964530.158 6  24412344.555                    24412358.516
 109409327.801 7  85254127.055 8  20819920.383                    20819927.672
 127459859.007 6  99319440.56543  24254808.992                    24254821.734
 116701896.588 7  90936576.07545  22207624.156                    22207631.918
 121737066.081 6  94860067.35044  23165798.484                    23165808.816
 119098367.214 7  92803937.72944  22663672.984                    22663679.699
 11  8 18 17 29  0.0000000  0 10G28G13G19G11G01G07G24G08G03G23
 121391737.951 7  94591063.38244  23100090.742                    23100098.414
 110367980.679 8  86001116.49146  21002348.594                    21002356.035
 112470447.730 7  87639330.22746  21402414.477                    21402420.438
 119581639.750 7  93180562.32644  22755625.063                    22755633.273
 128211207.477 6  99904897.146 6  24397781.563                    24397796.230
 109369548.537 8  85223130.239 7  20812351.148                    20812357.887
 127387213.567 6  99262833.89643  24240984.938                    24240997.461
 116630402.930 7  90880866.75145  22194019.148                    22194027.242
 121839599.270 6  94939963.21744  23185311.008                    23185320.539
 119205691.379 7  92887566.84844  22684096.039                    22684102.973
 11  8 18 17 29 30.0000000  0 10G28G13G19G11G01G07G24G08G03G23
 121348484.767 7  94557359.63244  23091860.789                    23091867.871
 110442467.153 8  86059157.87546  21016523.086                    21016530.195
 112523910.662 8  87680989.63446  21412587.938                    21412593.961
 119512190.473 7  93126446.06244  22742409.297                    22742418.004
 128134617.318 6  99845216.626 6  24383207.203                    24383221.199
 109329988.506 7  85192304.235 7  20804822.633                    20804829.672
 127314520.388 6  99206189.99943  24227151.250                    24227164.414
 116558943.634 7  90825184.21745  22180420.844                    22180429.363
 121942355.174 6  95020032.66043  23204863.375                    23204874.285
 119313218.948 7  92971354.47644  22704557.984                    22704564.559
 11  8 18 17 30  0.0000000  0 10G28G13G19G11G01G07G24G08G03G23
 121305417.899 7  94523801.04744  23083664.898                    23083672.180
 110517411.159 8  86117555.76946  21030784.234                    21030791.684
 112577897.848 8  87723057.55846  21422861.250                    21422867.574
 119442973.074 7  93072510.46644  22729237.945                    22729246.617
 128057969.434 6  99785491.099 6  24368621.008                    24368635.371
 109290650.317 8  85161651.113 7  20797337.273                    20797344.141
 127241782.857 6  99149511.54443  24213310.219                    24213322.383
 116487520.425 7  90769529.79445  22166829.328                    22166837.457
 122045331.489 6  95100273.86344  23224461.109                    23224469.613
 119420947.340 7  93055298.58644  22725058.219                    22725064.375
 11  8 18 17 30 30.0000000  0 10G28G13G19G11G01G07G24G08G03G23
 121262536.611 7  94490387.10244  23075504.750                    23075512.250
 110592810.434 8  86176308.41945  21045132.492                    21045139.777
 112632407.508 7  87765532.59446  21433234.344                    21433240.316
 119373990.531 7  93018757.87444  22716111.156                    22716119.254
 127981266.605 6  99725722.778 6  24354025.383                    24354039.207
 109251535.915 8  85131172.355 7  20789894.203                    20789900.766
 127169003.797 6  99092800.73343  24199460.797                    24199472.602
 116416135.107 7  90713904.89045  22153245.438                    22153253.715
 122148525.137 7  95180684.42643  23244097.727                    23244106.984
 119528873.674 7  93139396.93644  22745595.688                    22745602.305
 11  8 18 17 31  0.0000000  0 10G28G13G19G11G01G07G24G08G03G23
 121219839.872 7  94457116.93944  23067379.883                    23067388.234
 110668661.982 8  86235413.49646  21059566.734                    21059573.723
 112687436.687 7  87808412.45046  21443706.281                    21443711.480
 119305245.579 7  92965190.43044  22703029.172                    22703037.398
 127904511.028 6  99665913.322 6  24339418.492                    24339432.707
 109212646.298 8  85100868.762 7  20782493.703                    20782500.684
 127096185.564 6  99036059.41042  24185604.414                    24185615.918
 116344788.827 7  90658310.40545  22139668.648                    22139676.367
 122251932.987 7  95261261.96243  23263776.023                    23263784.426
 119636994.606 7  93223646.91044  22766170.789                    22766177.133
 11  8 18 17 31 30.0000000  0 10G28G13G19G11G01G07G24G08G03G23
 121177327.104 7  94423990.16744  23059288.969                    23059297.613
 110744963.450 8  86294869.15045  21074086.211                    21074093.586
 112742983.633 8  87851695.75846  21454276.320                    21454282.047
 119236741.136 7  92911810.38844  22689993.039                    22690001.320
 127827705.684 6  99606065.117 6  24324803.320                    24324817.605
 109173983.599 8  85070741.982 7  20775136.203                    20775143.023
 127023330.976 6  98979289.70442  24171739.891                    24171752.391
 116273483.390 7  90602747.75645  22126099.805                    22126107.281
 122355552.326 6  95342004.22643  23283493.820                    23283503.164
 119745307.052 7  93308046.13144  22786781.430                    22786788.426
 11  8 18 17 32  0.0000000  0 10G28G13G19G11G01G07G24G08G03G23
 121134997.739 7  94391006.27944  23051234.781                    23051242.824
 110821712.911 8  86354673.89546  21088691.078                    21088698.508
 112799046.192 8  87895380.84846  21464944.797                    21464950.449
 119168480.654 7  92858620.45944  22677003.789                    22677012.004
 127750853.502 6  99546180.410 6  24310178.789                    24310192.691
 109135550.220 8  85040793.899 7  20767822.656                    20767829.660
 126950443.090 6  98922494.09942  24157869.953                    24157881.840
 116202220.233 7  90547218.02645  22112538.258                    22112546.691
 122459380.686 6  95422909.34943  23303251.984                    23303261.738
 119853808.923 7  93392592.94444  22807429.398                    22807435.738
 11  8 18 17 32 30.0000000  0 10G28G13G19G11G01G07G24G08G03G23
 121092850.769 7  94358164.53444  23043214.078                    23043222.434
 110898907.690 8  86414825.63945  21103380.953                    21103387.984
 112855622.327 7  87939466.12846  21475711.078                    21475716.563
 119100467.193 7  92805623.01244  22664060.859                    22664069.137
 127673957.298 6  99486261.400 6  24295546.664                    24295559.965
 109097347.830 8  85011025.804 7  20760552.945                    20760559.836
 126877524.695 6  98865674.71142  24143993.531                    24144006.199
 116131001.061 7  90491722.58845  22098986.320                    22098993.773
 122563415.086 6  95503975.03343  23323048.523                    23323058.953
 119962497.076 7  93477284.90844  22828111.648                    22828118.285
 11  8 18 17 33  0.0000000  0 10G28G13G19G11G01G07G24G08G03G23
 121050885.452 7  94325464.34144  23035229.023                    23035236.047
 110976545.136 8  86475322.31945  21118155.047                    21118161.941
 112912709.916 7  87983949.94846  21486574.578                    21486579.816
 119032703.450 7  92752820.14744  22651165.828                    22651174.152
 127597019.674 6  99426310.107 6  24280904.227                    24280919.500
 109059377.782 8  84981438.756 7  20753327.492                    20753334.797
 126804578.591 5  98808833.69542  24130111.773                    24130124.789
 116059827.564 7  90436262.75745  22085441.906                    22085450.473
 122667652.411 6  95585198.80443  23342884.797                    23342894.695
 120071368.133 7  93562119.40644  22848829.523                    22848836.379
 11  8 18 17 33 30.0000000  0 10G28G13G19G11G01G07G24G08G03G23
 121009101.258 7  94292905.24344  23027276.336                    23027284.867
 111054623.079 8  86536162.24245  21133012.656                    21133019.777
 112970306.596 7  88028830.45746  21497534.586                    21497540.824
 118965192.600 7  92700214.33344  22638318.891                    22638327.250
 127520043.431 6  99366328.730 6  24266256.703                    24266271.047
 109021642.592 8  84952034.720 7  20746147.031                    20746153.559
 126731607.891 6  98751973.52742  24116226.734                    24116238.977
 115988701.102 7  90380839.55945  22071907.086                    22071915.219
 122772090.166 6  95666578.75343  23362758.242                    23362768.703
 120180419.476 7  93647094.35444  22869581.211                    22869588.328
 11  8 18 17 34  0.0000000  0 10G28G13G19G11G01G07G24G08G03G23
 120967497.071 7  94260486.44144  23019360.367                    23019367.555
 111133138.614 8  86597343.14645  21147953.797                    21147960.809
 113028409.940 7  88074105.74846  21508591.234                    21508596.816
 118897937.465 7  92647807.78844  22625520.898                    22625529.137
 127443031.706 6  99306319.719 6  24251602.219                    24251616.109
 108984143.783 8  84922814.868 7  20739010.992                    20739017.652
 126658615.007 6  98695096.10542  24102335.508                    24102348.914
 115917623.180 7  90325454.18745  22058381.969                    22058389.512
 122876725.525 6  95748112.71143  23382670.430                    23382680.410
 120289647.954 7  93732207.34444  22890367.031                    22890373.742
 11  8 18 17 34 30.0000000  0 10G28G13G19G11G01G07G24G08G03G23
 120926072.174 7  94228207.32344  23011477.984                    23011484.406
 111212089.573 8  86658863.34545  21162977.508                    21162984.945
 113087018.151 7  88119774.44046  21519744.313                    21519750.207
 118830941.578 7  92595603.24344  22612771.797                    22612780.332
 127365986.888 6  99246284.878 7  24236940.398                    24236954.859
 108946883.577 8  84893780.956 7  20731920.422                    20731927.262
 126585603.011 6  98638203.73542  24088442.352                    24088455.082
 115846595.786 7  90270108.19345  22044865.688                    22044873.613
 122981555.500 6  95829798.32843  23402618.820                    23402628.242
 120399051.108 7  93817456.44544  22911185.695                    22911192.961
 11  8 18 17 35  0.0000000  0 10G28G13G19G11G01G07G24G08G03G23
 120884825.750 7  94196067.29144  23003628.531                    23003635.434
 111291473.169 8  86720720.66245  21178083.648                    21178090.871
 113146128.488 8  88165834.41546  21530992.961                    21530998.332
 118764207.324 7  92543602.55944  22600073.063                    22600080.723
 127288911.867 6  99186226.547 7  24222273.703                    24222287.758
 108909863.255 8  84864933.958 7  20724875.516                    20724882.770
 126512574.638 6  98581298.59542  24074545.617                    24074557.500
 115775620.077 7  90214802.47145  22031359.133                    22031366.762
 123086577.281 6  95911633.43943  23422603.484                    23422612.727
 120508625.422 7  93902838.92944  22932037.375                    22932044.133
 11  8 18 17 35 30.0000000  0 10G28G13G19G11G01G07G24G08G03G23
 120843756.967 7  94164065.67445  22995813.945                    22995821.203
 111371286.645 8  86782912.94645  21193272.117                    21193279.438
 113205738.897 8  88212284.05146  21542336.109                    21542342.059
 118697737.916 7  92491808.27144  22587424.078                    22587432.082
 127211809.331 6  99126146.777 6  24207601.383                    24207615.512
 108873084.991 8  84836275.569 7  20717877.078                    20717884.035
 126439532.612 6  98524382.83243  24060646.453                    24060658.121
 115704697.751 7  90159538.34945  22017862.898                    22017871.129
 123191788.173 6  95993615.89643  23442624.719                    23442634.094
 120618367.939 7  93988352.45644  22952920.297                    22952927.664
 11  8 18 17 36  0.0000000  0 10G28G13G19G11G01G07G24G08G03G23
 120802865.251 7  94132202.04044  22988031.789                    22988038.652
 111451527.761 8  86845438.46345  21208541.242                    21208548.426
 113265847.205 8  88259121.66946  21553774.477                    21553779.762
 118631536.539 7  92440222.81944  22574826.523                    22574834.242
 127134682.632 6  99066048.174 6  24192924.453                    24192938.914
 108836551.105 8  84807807.615 7  20710924.539                    20710931.738
 126366480.264 6  98467459.01243  24046744.805                    24046756.285
 115633830.745 7  90104317.32245  22004377.531                    22004385.336
 123297185.631 6  96075743.64543  23462681.164                    23462690.645
 120728276.158 7  94073995.10044  22973835.656                    22973842.348
 11  8 18 17 36 30.0000000  0 10G28G13G19G11G01G07G24G08G03G23
 120762149.583 7  94100475.56445  22980283.781                    22980291.293
 111532193.758 7  86908295.04645  21223891.438                    21223898.949
 113326450.833 8  88306345.24145  21565306.750                    21565312.453
 118565606.135 7  92388848.52244  22562280.164                    22562288.184
 127057534.262 6  99005932.677 6  24178243.047                    24178257.840
 108800263.119 8  84779531.262 7  20704019.625                    20704026.797
 126293420.031 6  98410529.08343  24032841.672                    24032853.668
 115563020.889 7  90049140.84745  21990902.742                    21990911.016
 123402766.103 6  96158014.09343  23482772.211                    23482781.875
 120838346.979 7  94159764.43744  22994781.656                    22994788.348
 11  8 18 17 37  0.0000000  0 10G28G13G19G11G01G07G24G08G03G23
 120721608.797 7  94068885.39844  22972568.992                    22972576.574
 111613281.916 7  86971480.59645  21239321.734                    21239329.488
 113387547.582 8  88353953.07146  21576933.156                    21576938.922
 118499949.358 7  92337687.44044  22549785.820                    22549794.297
 126980366.897 6  98945802.372 6  24163558.938                    24163572.832
 108764222.601 8  84751447.748 7  20697161.297                    20697167.922
 126220354.772 6  98353595.22443  24018937.727                    24018950.059
 115492269.387 7  89994009.82945  21977439.422                    21977447.230
 123508527.536 6  96240425.50843  23502897.852                    23502907.965
 120948577.145 7  94245657.98644  23015757.398                    23015764.816
 11  8 18 17 37 30.0000000  0 10G28G13G19G11G01G07G24G08G03G23
 120681242.398 7  94037431.07644  22964887.555                    22964895.402
 111694789.751 7  87034993.16045  21254832.461                    21254839.789
 113449134.973 7  88401943.21346  21588653.000                    21588658.414
 118434569.499 7  92286742.12244  22537344.875                    22537352.516
 126903183.715 6  98885659.735 6  24148871.148                    24148886.063
 108728431.811 8  84723558.819 7  20690350.375                    20690357.520
 126147287.578 6  98296659.82543  24005033.133                    24005045.984
 115421577.941 7  89938925.61245  21963986.891                    21963994.637
 123614466.964 6  96322975.60943  23523057.664                    23523068.457
 121058964.091 7  94331673.67444  23036763.516                    23036770.613
 11  8 18 17 38  0.0000000  0 10G28G13G19G11G01G07G24G08G03G23
 120641049.836 7  94006112.24244  22957238.742                    22957247.105
 111776715.017 8  87098830.99345  21270422.680                    21270429.660
 113511211.165 8  88450314.24746  21600465.734                    21600471.520
 118369469.590 7  92236014.95644  22524956.180                    22524964.090
 126825987.229 6  98825506.707 6  24134181.211                    24134195.836
 108692892.893 8  84695866.161 7  20683588.109                    20683594.813
 126074221.619 6  98239725.40743  23991129.227                    23991141.520
 115350948.463 7  89883889.68745  21950546.750                    21950554.695
 123720581.745 6  96405662.37943  23543250.789                    23543260.648
 121169504.970 7  94417809.30044  23057798.828                    23057805.855
 11  8 18 17 38 30.0000000  0 10G28G13G19G11G01G07G24G08G03G23
 120601030.108 7  93974928.09644  22949623.617                    22949631.371
 111859054.737 7  87162991.77745  21286091.344                    21286098.461
 113573773.636 8  88499064.19146  21612370.820                    21612376.730
 118304652.711 7  92185508.32544  22512621.938                    22512630.059
 126748780.632 6  98765345.850 6  24119489.109                    24119503.523
 108657607.313 8  84668370.906 7  20676873.172                    20676879.578
 126001159.484 6  98182793.97943  23977225.648                    23977238.148
 115280382.476 7  89828903.22145  21937118.531                    21937126.473
 123826868.892 6  96488483.43343  23563476.836                    23563486.773
 121280196.595 7  94504062.40744  23078862.547                    23078869.996
 11  8 18 17 39  0.0000000  0 10G28G13G19G11G01G07G24G08G03G23
 120561182.316 7  93943877.89644  22942040.492                    22942048.406
 111941805.851 7  87227473.12545  21301838.336                    21301845.477
 113636819.325 7  88548190.68146  21624367.898                    21624373.770
 118240121.228 7  92135224.09044  22500342.672                    22500350.277
 126671566.323 6  98705178.942 6  24104796.484                    24104810.063
 108622576.650 8  84641074.293 7  20670206.758                    20670213.926
 125928103.641 6  98125867.42943  23963323.641                    23963335.594
 115209881.637 7  89773967.54145  21923702.797                    21923710.586
 123933325.413 6  96571436.49642  23583734.094                    23583745.090
 121391035.719 6  94590430.43544  23099954.602                    23099962.336
 11  8 18 17 39 30.0000000  0 10G28G13G19G11G01G07G24G08G03G23
 120521505.519 7  93912960.94344  22934490.656                    22934498.273
 112024966.588 7  87292273.65745  21317663.172                    21317670.770
 113700347.166 8  88597692.88246  21636457.227                    21636462.707
 118175878.927 7  92085165.17944  22488116.766                    22488125.242
 126594347.935 6  98645008.871 6  24090101.617                    24090115.945
 108587803.959 8  84613978.698 7  20663589.953                    20663596.633
 125855058.031 6  98068948.88943  23949423.414                    23949435.766
 115139448.190 7  89719084.35045  21910299.484                    21910307.500
 124039949.403 6  96654520.04543  23604024.758                    23604034.820
 121502020.351 7  94676911.84344  23121075.242                    23121082.172
 11  8 18 17 40  0.0000000  0 10G28G13G19G11G01G07G24G08G03G23
 120481998.686 7  93882176.42244  22926972.453                    22926979.816
 112108533.528 8  87357390.72045  21333565.289                    21333572.777
 113764353.347 8  88647567.79845  21648637.305                    21648642.367
 118111928.005 7  92035333.34444  22475947.883                    22475955.918
 126517127.694 6  98584837.337 6  24075407.563                    24075420.809
 108553289.856 8  84587084.592 7  20657022.258                    20657029.105
 125782024.748 6  98012039.91543  23935525.930                    23935537.250
 115069083.304 7  89664254.59645  21896909.602                    21896917.742
 124146737.391 6  96737731.40843  23624346.383                    23624356.012
 121613146.613 7  94763503.61344  23142220.766                    23142228.875
 11  8 18 17 40 30.0000000  0 10G28G13G19G11G01G07G24G08G03G23
 120442661.201 7  93851523.85444  22919487.461                    22919493.914
 112192504.098 7  87422822.29645  21349544.758                    21349551.832
 113828836.086 7  88697814.07646  21660907.773                    21660913.738
 118048271.617 7  91985731.00944  22463834.555                    22463842.426
 126439908.561 6  98524666.656 6  24060713.281                    24060726.160
 108519036.615 8  84560393.762 7  20650504.211                    20650510.996
 125709006.727 6  97955142.83343  23921631.109                    23921642.668
 114998788.879 7  89609479.73445  21883533.000                    21883541.063
 124253686.706 6  96821068.41343  23644697.547                    23644707.781
 121724411.726 6  94850203.57544  23163394.180                    23163401.602
 11  8 18 17 41  0.0000000  0 10G28G13G19G11G01G07G24G08G03G23
 120403492.376 7  93821002.72644  22912033.555                    22912040.984
 112276875.890 7  87488566.51945  21365599.914                    21365607.242
 113893793.108 8  88748429.91845  21673268.086                    21673274.578
 117984913.129 7  91936360.79744  22451777.703                    22451785.461
 126362693.489 6  98464499.146 6  24046019.023                    24046032.820
 108485046.569 8  84533908.015 7  20644035.766                    20644042.965
 125636007.173 6  97898260.16443  23907739.375                    23907751.668
 114928566.922 7  89554761.34545  21870170.328                    21870177.930
 124360794.656 6  96904529.14443  23665079.883                    23665089.004
 121835813.275 7  94937009.85444  23184593.922                    23184601.105
 11  8 18 17 41 30.0000000  0 10G28G13G19G11G01G07G24G08G03G23
 120364491.436 7  93790612.39444  22904612.172                    22904619.086
 112361646.181 7  87554621.25045  21381731.359                    21381738.645
 113959221.821 8  88799413.31446  21685719.086                    21685725.137
 117921855.513 7  91887225.04044  22439778.508                    22439786.461
 126285485.591 6  98404337.219 6  24031326.836                    24031340.246
 108451321.663 8  84507628.879 7  20637618.211                    20637625.160
 125563028.963 6  97841394.10743  23893851.969                    23893864.012
 114858419.086 8  89500100.71145  21856822.078                    21856829.152
 124468058.692 6  96988111.44243  23685491.758                    23685501.367
 121947348.081 7  95023919.95044  23205818.492                    23205825.164
 11  8 18 17 42  0.0000000  0 10G28G13G19G11G01G07G24G08G03G23
 120325656.848 7  93760351.70644  22897221.625                    22897229.262
 112446811.673 8  87620983.93245  21397938.008                    21397945.355
 114025119.146 8  88850761.86746  21698259.188                    21698264.770
 117859100.865 7  91838325.36444  22427836.352                    22427844.211
 126208287.132 6  98344182.653 6  24016636.656                    24016650.500
 108417863.042 8  84481557.223 7  20631251.273                    20631258.113
 125490074.789 6  97784546.77743  23879969.570                    23879980.781
 114788346.534 7  89445498.74245  21843487.156                    21843495.090
 124575475.708 6  97071812.89243  23705932.555                    23705942.832
 122059012.732 7  95110931.25744  23227067.602                    23227074.262
 11  8 18 17 42 30.0000000  0 10G28G13G19G11G01G07G24G08G03G23
 120286988.059 7  93730220.20944  22889863.234                    22889870.512
 112532369.873 7  87687652.62245  21414218.875                    21414226.598
 114091483.030 7  88902473.96445  21710887.711                    21710893.656
 117796652.276 7  91789664.16144  22415952.750                    22415960.523
 126131101.407 6  98284037.977 6  24001947.773                    24001962.102
 108384672.749 8  84455694.659 7  20624935.398                    20624942.453
 125417147.753 6  97727720.61743  23866090.414                    23866103.734
 114718351.477 7  89390957.15645  21830167.281                    21830175.059
 124683042.927 6  97155631.41743  23726402.070                    23726412.688
 122170804.593 7  95198041.65044  23248341.023                    23248348.176
 11  8 18 17 43  0.0000000  0 10G28G13G19G11G01G07G24G08G03G23
 120248484.482 7  93700217.43544  22882536.117                    22882543.508
 112618318.143 8  87754625.25745  21430574.398                    21430582.102
 114158311.208 7  88954547.84445  21723604.617                    21723610.590
 117734512.897 7  91741243.91545  22404127.695                    22404135.914
 126053931.247 6  98223905.472 6  23987264.000                    23987277.445
 108351752.970 8  84430042.887 7  20618670.750                    20618677.484
 125344251.042 6  97670918.07343  23852219.344                    23852232.027
 114648435.690 7  89336477.33445  21816862.992                    21816870.957
 124790758.013 6  97239565.10742  23746899.133                    23746909.590
 122282720.835 7  95285248.97944  23269637.695                    23269645.168
 11  8 18 17 43 30.0000000  0 10G28G13G19G11G01G07G24G08G03G23
 120210145.046 7  93670342.59144  22875239.969                    22875248.301
 112704653.810 7  87821899.75945  21447003.750                    21447010.875
 114225601.182 8  89006981.56945  21736409.680                    21736415.250
 117672686.068 7  91693067.21144  22392362.680                    22392370.816
 125976779.716 6  98163787.439 6  23972582.469                    23972595.617
 108319105.832 8  84404603.558 8  20612458.414                    20612465.344
 125271387.639 6  97614141.50243  23838354.352                    23838366.207
 114578601.111 7  89282060.78945  21803573.789                    21803582.176
 124898618.532 6  97323612.19543  23767424.898                    23767434.457
 122394758.849 7  95372551.20344  23290957.992                    23290966.164
 11  8 18 17 44  0.0000000  0 10G28G13G19G11G01G07G24G08G03G23
 120171968.917 7  93640594.98844  22867975.578                    22867983.156
 112791374.173 8  87889474.02345  21463505.750                    21463513.328
 114293350.420 7  89059773.15145  21749301.656                    21749307.980
 117611174.671 7  91645136.29845  22380657.781                    22380665.555
 125899649.909 6  98103686.361 7  23957904.180                    23957918.398
 108286733.177 8  84379378.117 7  20606298.156                    20606305.184
 125198560.406 6  97557393.10943  23824494.805                    23824507.770
 114508849.660 7  89227709.02345  21790300.578                    21790308.023
 125006621.469 6  97407770.28943  23787976.492                    23787986.746
 122506915.415 7  95459945.78144  23312300.742                    23312308.145
 11  8 18 17 44 30.0000000  0 10G28G13G19G11G01G07G24G08G03G23
 120133955.458 7  93610974.13944  22860742.328                    22860750.027
 112878476.663 7  87957346.04445  21480081.195                    21480088.852
 114361556.648 8  89112920.83445  21762280.992                    21762287.066
 117549981.642 7  91597453.45544  22369013.031                    22369020.594
 125822544.887 6  98043604.602 7  23943231.789                    23943245.578
 108254637.153 8  84354368.238 7  20600190.180                    20600197.219
 125125772.406 6  97500675.25443  23810644.406                    23810656.172
 114439183.427 7  89173423.65745  21777043.281                    21777051.391
 125114764.368 6  97492037.40543  23808555.813                    23808565.801
 122619187.643 7  95547430.48244  23333665.391                    23333672.848
 11  8 18 17 45  0.0000000  0 10G28G13G19G11G01G07G24G08G03G23
 120096103.659 7  93581479.25345  22853539.461                    22853546.609
 112965958.318 7  88025513.53145  21496728.234                    21496735.598
 114430216.933 8  89166422.32945  21775346.813                    21775352.234
 117489109.485 7  91550020.65244  22357429.422                    22357437.484
 125745467.353 6  97983544.262 7  23928564.789                    23928578.398
 108222819.068 8  84329574.926 7  20594135.523                    20594142.574
 125053026.543 6  97443990.26143  23796801.563                    23796812.988
 114369603.691 7  89119205.69945  21763802.820                    21763810.832
 125223044.289 6  97576411.29043  23829160.859                    23829170.832
 122731572.438 7  95635002.89644  23355051.750                    23355059.402
 11  8 18 17 45 30.0000000  0 10G28G13G19G11G01G07G24G08G03G23
 120058412.600 7  93552109.61444  22846366.469                    22846373.871
 113053816.211 7  88093974.17945  21513446.805                    21513454.930
 114499328.881 8  89220275.77245  21788498.211                    21788504.504
 117428561.397 7  91502840.36145  22345907.227                    22345915.188
 125668420.387 6  97923507.745 6  23913902.883                    23913916.727
 108191281.247 8  84305000.001 8  20588133.844                    20588140.766
 124980325.763 6  97387340.39243  23782965.844                    23782978.477
 114300112.666 7  89065056.86545  21750579.117                    21750586.957
 125331458.733 6  97660889.96143  23849791.531                    23849801.625
 122844066.948 6  95722660.80443  23376458.500                    23376466.820
 11  8 18 17 46  0.0000000  0 10G28G13G19G11G01G07G24G08G03G23
 120020881.440 7  93522864.59244  22839224.672                    22839232.281
 113142047.894 7  88162726.08745  21530237.008                    21530244.855
 114568890.268 8  89274479.42746  21801735.695                    21801741.070
 117368340.371 7  91455914.94245  22334447.539                    22334455.582
 125591406.832 6  97863497.257 7  23899248.016                    23899261.184
 108160025.651 8  84280644.995 8  20582186.383                    20582193.223
 124907673.132 6  97330728.06143  23769141.063                    23769153.855
 114230712.026 8  89010978.46445  21737372.719                    21737380.824
 125440004.937 6  97745471.35643  23870447.180                    23870457.465
 122956668.879 7  95810402.40743  23397886.258                    23397893.848
 11  8 18 17 46 30.0000000  0 10G28G13G19G11G01G07G24G08G03G23
 119983509.106 7  93493743.33444  22832113.063                    22832120.504
 113230650.327 7  88231766.89145  21547097.438                    21547105.359
 114638897.905 8  89329030.80545  21815057.727                    21815063.156
 117308449.038 7  91409246.40644  22323050.688                    22323058.672
 125514429.659 6  97803515.093 7  23884599.484                    23884612.988
 108129054.044 8  84256511.284 7  20576292.672                    20576299.367
 124835071.600 6  97274155.49343  23755325.211                    23755337.508
 114161403.902 7  88956972.15345  21724183.859                    21724191.371
 125548680.358 6  97830153.43243  23891127.336                    23891137.723
 123069374.830 7  95898225.07743  23419332.883                    23419341.465
 11  8 18 17 47  0.0000000  0 10G28G13G19G11G01G07G24G08G03G23
 119946294.865 7  93464745.25344  22825031.945                    22825038.773
 113319620.300 7  88301094.09445  21564028.211                    21564035.367
 114709349.429 8  89383928.06645  21828464.211                    21828469.879
 117248890.049 7  91362836.83845  22311716.508                    22311724.648
 125437491.333 6  97743563.268 6  23869958.289                    23869971.848
 108098368.015 8  84232600.095 8  20570453.180                    20570459.973
 124762523.925 7  97217624.94343  23741519.938                    23741531.711
 114092189.705 7  88903039.03445  21711012.609                    21711020.254
 125657481.956 6  97914933.73843  23911832.086                    23911842.563
 123182181.918 7  95986126.55243  23440800.602                    23440807.715
 11  8 18 17 47 30.0000000  0 10G28G13G19G11G01G07G24G08G03G23
 119909237.779 7  93435869.62744  22817979.641                    22817987.000
 113408954.739 7  88370705.28945  21581027.914                    21581035.805
 114780242.462 8  89439169.35545  21841954.266                    21841960.871
 117189666.158 7  91316688.39744  22300447.289                    22300455.363
 125360594.961 6  97683644.117 6  23855325.820                    23855339.461
 108067969.813 8  84208913.190 8  20564668.625                    20564675.504
 124690033.206 7  97161138.73943  23727725.211                    23727736.824
 114023071.313 7  88849180.56345  21697859.844                    21697868.012
 125766407.348 6  97999810.55643  23932559.648                    23932570.371
 123295087.084 7  96074104.47044  23462285.969                    23462292.648
 11  8 18 17 48  0.0000000  0 10G28G13G19G11G01G07G24G08G03G23
 119872337.022 7  93407115.83644  22810957.797                    22810965.047
 113498651.989 7  88440599.20545  21598096.820                    21598104.473
 114851574.476 8  89494752.71845  21855528.906                    21855534.758
 117130780.927 7  91270803.83545  22289241.359                    22289249.207
 125283744.107 6  97623760.432 7  23840701.008                    23840715.109
 108037861.541 8  84185452.204 8  20558939.305                    20558946.035
 124617602.709 7  97104699.45243  23713943.250                    23713954.043
 113954051.094 7  88795398.60145  21684725.531                    21684733.059
 125875454.235 7  98084782.09143  23953311.563                    23953321.281
 123408087.510 7  96162156.60743  23483789.516                    23483796.727
 11  8 18 17 48 30.0000000  0 10G28G13G19G11G01G07G24G08G03G23
 119835591.347 7  93378482.87444  22803965.055                    22803972.336
 113588708.172 7  88510772.79945  21615233.539                    21615241.699
 114923342.394 8  89550675.74045  21869185.609                    21869191.500
 117072236.534 7  91225184.85845  22278100.516                    22278108.289
 125206941.305 6  97563914.179 6  23826085.750                    23826099.820
 108008044.531 8  84162218.174 7  20553265.328                    20553272.285
 124545235.095 7  97048309.20243  23700171.180                    23700183.227
 113885130.837 7  88741694.53245  21671610.648                    21671618.406
 125984619.579 6  98169845.98943  23974084.164                    23974094.277
 123521180.083 7  96250280.52743  23505310.125                    23505317.762
 11  8 18 17 49  0.0000000  0 10G28G13G19G11G01G07G24G08G03G23
 119799000.121 7  93349970.27844  22797001.867                    22797008.945
 113679120.969 7  88581224.28645  21632438.344                    21632446.695
 114995543.689 8  89606936.46545  21882925.320                    21882930.750
 117014035.972 7  91179833.80344  22267026.117                    22267033.258
 125130189.419 6  97504107.596 7  23811481.016                    23811493.809
 107978520.729 8  84139212.611 7  20547647.188                    20547654.027
 124472933.345 7  96991970.27743  23686412.797                    23686424.578
 113816312.499 7  88688069.87345  21658514.734                    21658523.020
 126093900.814 6  98255000.10443  23994879.930                    23994889.816
 123634361.981 7  96338474.04644  23526848.250                    23526855.676
 11  8 18 17 49 30.0000000  0 10G28G13G19G11G01G07G24G08G03G23
 119762562.830 7  93321577.60745  22790067.828                    22790075.402
 113769887.444 7  88651951.34945  21649710.711                    21649718.461
 115068176.291 8  89663533.27045  21896746.938                    21896752.602
 116956182.349 7  91134753.10545  22256016.227                    22256024.145
 125053491.726 7  97444343.266 6  23796886.023                    23796898.813
 107949292.770 8  84116437.581 8  20542085.414                    20542092.195
 124400700.832 7  96935685.27843  23672666.781                    23672679.000
 113747597.973 7  88634526.10545  21645438.820                    21645447.145
 126203295.486 6  98340242.67643  24015697.148                    24015706.926
 123747630.789 7  96426735.29843  23548402.438                    23548410.219
 11  8 18 17 50  0.0000000  0 10G28G13G19G11G01G07G24G08G03G23
 119726277.884 7  93293303.66544  22783162.906                    22783170.406
 113861004.725 7  88722951.77145  21667050.500                    21667058.242
 115141237.243 7  89720463.85145  21910649.789                    21910655.402
 116898678.573 7  91089945.00944  22245073.414                    22245081.465
 124976851.212 6  97384623.471 6  23782301.781                    23782314.344
 107920361.852 8  84093894.006 8  20536580.016                    20536586.715
 124328540.372 7  96879456.42543  23658935.453                    23658947.277
 113678989.203 8  88581064.75445  21632383.063                    21632390.910
 126312800.928 6  98425571.54743  24036535.813                    24036545.598
 123860983.278 7  96515061.75543  23569972.953                    23569980.727
 11  8 18 17 50 30.0000000  0 10G28G13G19G11G01G07G24G08G03G23
 119690144.753 7  93265147.99944  22776287.023                    22776294.707
 113952469.723 7  88794223.15045  21684455.805                    21684463.418
 115214723.601 8  89777725.89745  21924634.109                    21924639.684
 116841527.190 7  91045411.51045  22234197.938                    22234205.734
 124900270.785 6  97324950.510 6  23767727.930                    23767741.680
 107891730.111 8  84071583.564 8  20531131.930                    20531138.129
 124256455.282 7  96823286.32044  23645217.969                    23645230.160
 113610487.935 7  88527687.16945  21619347.406                    21619355.328
 126422414.331 5  98510984.49942  24057393.992                    24057404.855
 123974416.656 6  96603451.21643  23591557.844                    23591566.316
 11  8 18 17 51  0.0000000  0 10G28G13G19G11G01G07G24G08G03G23
 119654162.179 7  93237109.66045  22769440.133                    22769447.797
 114044279.369 7  88865763.07845  21701926.336                    21701934.426
 115288632.650 7  89835317.32445  21938697.953                    21938703.996
 116784730.752 7  91001154.58345  22223389.711                    22223397.926
 124823753.269 7  97265326.562 6  23753167.328                    23753180.828
 107863398.907 8  84049507.300 7  20525740.477                    20525747.102
 124184447.936 6  96767176.78843  23631514.906                    23631527.070
 113542096.305 8  88474395.01845  21606333.422                    21606341.559
 126532133.317 5  98596479.63942  24078271.898                    24078283.926
 124087927.716 6  96691901.20843  23613159.078                    23613166.785
 11  8 18 17 51 30.0000000  0 10G28G13G19G11G01G07G24G08G03G23
 119618330.093 7  93209188.57945  22762621.414                    22762628.801
 114136431.415 7  88937569.81745  21719462.688                    21719470.191
 115362962.740 8  89893236.85245  21952842.813                    21952848.727
 116728292.948 7  90957177.11645  22212649.930                    22212657.938
 124747302.269 6  97205754.439 6  23738619.594                    23738632.055
 107835371.729 7  84027667.942 7  20520406.742                    20520413.551
 124112522.299 6  96711130.94943  23617828.039                    23617839.898
 113473816.760 7  88421190.20145  21593339.945                    21593348.246
 126641955.679 6  98682055.44742  24099171.664                    24099182.195
 124201514.215 6  96780409.98743  23634773.695                    23634782.301
 11  8 18 17 52  0.0000000  0 10G28G13G19G11G01G07G24G08G03G23
 119582646.614 7  93181383.28845  22755830.945                    22755838.688
 114228922.431 7  89009640.68045  21737062.961                    21737070.117
 115437710.192 8  89951481.58045  21967066.250                    21967072.676
 116672215.770 7  90913480.65045  22201979.063                    22201986.691
 124670919.747 6  97146235.686 6  23724083.859                    23724097.727
 107807648.772 8  84006065.639 8  20515131.555                    20515138.539
 124040680.535 6  96655150.45643  23604156.570                    23604169.012
 113405650.387 8  88368073.57145  21580367.992                    21580376.395
 126751878.234 6  98767709.39943  24120089.516                    24120099.164
 124315172.509 6  96868974.70543  23656402.383                    23656410.523
 11  8 18 17 52 30.0000000  0 10G28G13G19G11G01G07G24G08G03G23
 119547111.298 7  93153693.46345  22749068.641                    22749076.492
 114321749.599 7  89081973.48745  21754727.391                    21754735.184
 115512872.584 7  90010049.64045  21981370.031                    21981375.684
 116616502.285 7  90870067.58145  22191377.328                    22191384.961
 124594609.651 6  97086773.378 6  23709563.336                    23709575.848
 107780232.562 7  83984702.354 8  20509914.148                    20509920.938
 123968926.080 6  96599238.01443  23590502.586                    23590514.512
 113337599.668 8  88315047.06745  21567418.836                    21567426.973
 126861898.506 7  98853439.45043  24141025.656                    24141035.746
 124428900.063 6  96957593.40443  23678044.578                    23678052.414
 11  8 18 17 53  0.0000000  0 10G28G13G19G11G01G07G24G08G03G23
 119511723.101 7  93126118.26445  22742334.852                    22742342.125
 114414909.850 7  89154565.83145  21772454.859                    21772462.805
 115588447.423 7  90068939.09145  21995751.297                    21995757.020
 116561154.825 7  90826939.72845  22180844.602                    22180852.680
 124518374.517 7  97027369.471 6  23695055.047                    23695068.918
 107753125.044 8  83963579.611 8  20504756.063                    20504762.691
 123897261.898 6  96543395.88543  23576864.234                    23576877.078
 113269666.476 8  88262112.12945  21554491.602                    21554499.402
 126972013.986 6  98939243.68443  24161979.867                    24161990.188
 124542693.961 6  97046263.76243  23699698.711                    23699706.965
 11  8 18 17 53 30.0000000  0  9G28G13G19G11G01G07G24G08G23
 119476481.152 7  93098657.03145  22735628.117                    22735635.750
 114508400.304 7  89227415.48445  21790246.125                    21790253.691
 115664431.758 7  90128147.63345  22010210.477                    22010216.801
 116506176.508 7  90784099.52645  22170382.789                    22170390.434
 124442217.264 6  96968026.270 6  23680562.727                    23680576.078
 107726327.901 8  83942698.723 7  20499656.352                    20499663.082
 123825690.983 6  96487626.45243  23563245.906                    23563257.301
 113201852.788 8  88209270.32445  21541587.219                    21541595.137
 124656551.380 6  97134983.65643  23721365.133                    23721373.535
 11  8 18 17 54  0.0000000  0  9G28G13G19G11G01G07G24G08G23
 119441384.393 7  93071308.94644  22728949.656                    22728957.160
 114602218.057 7  89300520.16345  21808099.078                    21808106.840
 115740822.853 7  90187673.12445  22024747.063                    22024753.090
 116451570.304 7  90741549.26645  22159991.203                    22159998.879
 124366141.003 6  96908746.147 6  23666086.281                    23666099.723
 107699842.919 8  83922061.070 7  20494616.602                    20494622.879
 123754216.431 6  96431932.05844  23549644.813                    23549656.402
 113134160.764 8  88156523.31545  21528705.273                    21528713.430
 124770469.405 7  97223750.72843  23743043.445                    23743051.719
 11  8 18 17 54 30.0000000  0  9G28G13G19G11G01G07G24G08G23
 119406432.254 7  93044073.53645  22722298.531                    22722305.664
 114696360.833 7  89373878.11145  21826013.844                    21826021.520
 115817618.656 7  90247513.97945  22039361.078                    22039367.688
 116397338.996 7  90699291.14145  22149671.664                    22149679.148
 124290149.434 6  96849532.048 6  23651625.500                    23651638.520
 107673673.060 8  83901668.971 7  20489636.500                    20489642.977
 123682841.889 7  96376315.63843  23536062.063                    23536074.121
 113066592.890 8  88103873.05245  21515847.906                    21515856.152
 124884445.803 6  97312563.32943  23764732.773                    23764740.922
 11  8 18 17 55  0.0000000  0  9G28G13G19G11G01G07G24G08G23
 119371623.700 7  93016950.01045  22715674.906                    22715682.242
 114790825.198 7  89447486.65345  21843989.813                    21843997.477
 115894816.036 7  90307667.74845  22054051.367                    22054057.168
 116343485.008 7  90657327.02545  22139423.742                    22139431.145
 124214245.034 6  96790385.858 6  23637180.789                    23637194.234
 107647819.416 8  83881523.273 7  20484716.727                    20484723.688
 123611569.867 6  96320779.07843  23522499.031                    23522511.477
 112999150.846 7  88051320.83245  21503014.242                    21503022.199
 124998477.214 7  97401418.77743  23786431.906                    23786440.266
 11  8 18 17 55 30.0000000  0  9G28G13G19G11G01G07G24G08G23
 119336957.648 7  92989937.53145  22709077.445                    22709085.066
 114885607.828 7  89521343.17145  21862026.867                    21862034.148
 115972412.038 8  90368132.13245  22068817.250                    22068823.578
 116290010.915 7  90615658.93345  22129247.742                    22129255.430
 124138430.810 6  96731309.957 6  23622754.297                    23622767.660
 107622283.718 8  83861625.328 8  20479857.461                    20479864.195
 123540403.247 6  96265324.66843  23508956.859                    23508968.867
 112931836.527 8  87998868.12945  21490204.750                    21490211.941
 125112560.555 7  97490314.71043  23808142.180                    23808149.828
 11  8 18 17 56  0.0000000  0  9G28G13G19G11G01G07G24G08G23
 119302433.080 7  92963035.30045  22702508.047                    22702515.410
 114980705.679 7  89595445.33745  21880123.031                    21880130.887
 116050403.821 7  90428904.92045  22083658.320                    22083664.863
 116236919.362 7  90574288.92145  22119144.578                    22119152.598
 124062709.510 6  96672306.464 6  23608345.234                    23608358.109
 107597067.503 8  83841976.334 8  20475059.219                    20475065.883
 123469345.116 6  96209954.79043  23495435.031                    23495446.777
 112864651.690 8  87946516.32245  21477419.758                    21477427.648
 125226692.909 6  97579248.83343  23829860.438                    23829868.449
 11  8 18 17 56 30.0000000  0  9G28G13G19G11G01G07G24G08G23
 119268049.079 7  92936242.58745  22695964.891                    22695971.809
 115076116.022 7  89669790.99645  21898279.320                    21898286.648
 116128789.133 7  90489984.35845  22098574.867                    22098580.590
 116184213.303 7  90533219.29145  22109115.234                    22109122.777
 123987084.235 6  96613377.782 6  23593953.641                    23593967.133
 107572173.150 8  83822578.143 7  20470321.695                    20470328.742
 123398398.799 7  96154672.03143  23481934.367                    23481946.383
 112797598.579 8  87894267.16845  21464659.977                    21464667.492
 125340871.801 6  97668219.15943  23851588.313                    23851596.496
 11  8 18 17 57  0.0000000  0  9G28G13G19G11G01G07G24G08G23
 119233805.015 7  92909558.93245  22689448.141                    22689455.824
 115171836.048 7  89744377.96545  21916494.180                    21916501.672
 116207564.992 7  90551368.10645  22113565.273                    22113571.539
 116131895.760 7  90492452.39945  22099159.375                    22099167.086
 123911558.460 6  96554526.639 6  23579582.023                    23579594.633
 107547602.575 8  83803432.245 7  20465646.289                    20465652.844
 123327567.240 7  96099478.70743  23468455.680                    23468467.074
 112730679.698 8  87842122.60645  21451925.680                    21451933.531
 125455094.181 6  97757223.41643  23873323.641                    23873331.711
 11  8 18 17 57 30.0000000  0  9G28G13G19G11G01G07G24G08G23
 119199700.021 7  92882983.63145  22682958.625                    22682965.859
 115267863.132 7  89819204.19445  21934767.430                    21934775.082
 116286729.002 7  90613054.31745  22128629.719                    22128636.293
 116079969.634 7  90451990.51145  22089277.820                    22089285.414
 123836135.263 6  96495755.423 7  23565228.820                    23565241.691
 107523358.160 8  83784540.495 7  20461032.625                    20461039.480
 123256854.062 7  96044377.64343  23454999.422                    23455010.555
 112663897.291 8  87790084.38845  21439217.414                    21439224.809
 125569357.846 6  97846259.82443  23895066.977                    23895075.992
 11  8 18 17 58  0.0000000  0 10G28G13G17G19G11G01G07G24G08G23
 119165733.023 7  92856515.87045  22676494.961                    22676502.172
 115364194.193 7  89894267.28945  21953098.602                    21953106.477
 129549163.67616 100947524.18915  24652412.516                    24652421.289
 116366278.412 7  90675040.84545  22143767.242                    22143773.574
 116028436.640 7  90411834.96045  22079472.031                    22079479.492
 123760817.834 7  96437066.608 7  23550896.305                    23550909.160
 107499441.401 8  83765904.055 7  20456481.234                    20456488.195
 123186261.730 7  95989370.74943  23441565.953                    23441577.320
 112597253.312 8  87738154.04145  21426535.367                    21426543.117
 125683659.661 6  97935325.94743  23916818.922                    23916827.238
 11  8 18 17 58 30.0000000  0 10G28G13G17G19G11G01G07G24G08G23
 119131903.248 7  92830155.02145  22670057.078                    22670064.344
 115460825.890 7  89969564.65645  21971486.734                    21971494.988
 129444442.347 6 100865923.211 5  24632483.836                    24632494.328
 116446210.498 7  90737325.54945  22158977.750                    22158984.215
 115977300.242 7  90371988.45545  22069740.492                    22069748.430
 123685608.848 7  96378462.313 7  23536584.680                    23536597.605
 107475854.165 8  83747524.392 8  20451992.914                    20451999.785
 123115793.536 7  95934460.57043  23428156.500                    23428167.289
 112530749.762 7  87686333.11445  21413880.227                    21413887.773
 125797996.687 6  98024419.47543  23938576.539                    23938585.070
 11  8 18 17 59  0.0000000  0 10G28G13G17G19G11G01G07G24G08G23
 119098210.164 7  92803900.68745  22663645.320                    22663653.340
 115557755.800 7  90045094.38345  21989932.234                    21989939.742
 129339820.324 6 100784399.581 5  24612574.945                    24612585.398
 116526522.432 7  90799906.25045  22174261.078                    22174267.484
 115926563.247 7  90332453.16245  22060084.961                    22060092.949
 123610511.884 7  96319945.266 7  23522293.633                    23522307.137
 107452598.558 8  83729403.141 8  20447567.484                    20447574.188
 123045453.245 6  95879650.06043  23414771.250                    23414781.613
 112464389.232 8  87634623.63445  21401252.375                    21401259.957
 125912366.474 6  98113538.51043  23960340.563                    23960349.363
 11  8 18 17 59 30.0000000  0 10G28G13G17G19G11G01G07G24G08G23
 119064651.934 7  92777751.41945  22657259.813                    22657266.879
 115654980.215 7  90120853.58745  22008433.406                    22008441.219
 129235298.890 6 100702954.316 5  24592685.719                    24592695.398
 116607211.159 7  90862780.54045  22189615.563                    22189621.559
 115876227.470 7  90293230.51945  22050507.055                    22050515.020
 123535529.160 7  96261517.290 7  23508025.664                    23508038.285
 107429675.809 8  83711541.248 8  20443205.156                    20443212.340
 122975242.972 6  95824940.84943  23401410.141                    23401421.066
 112398173.078 8  87583026.64946  21388651.563                    21388658.926
 126026765.601 6  98202680.44943  23982110.656                    23982118.945
 11  8 18 18  0  0.0000000  0 10G28G13G17G19G11G01G07G24G08G23
 119031227.915 7  92751706.75945  22650899.055                    22650907.023
 115752496.535 7  90196840.25645  22026990.383                    22026998.141
 129130880.650 6 100621589.499 6  24572815.813                    24572826.250
 116688274.007 7  90925946.36045  22205041.570                    22205047.676
 115826295.753 7  90254322.71545  22041005.281                    22041013.070
 123460664.186 7  96203181.038 7  23493779.031                    23493791.855
 107407088.112 8  83693940.455 8  20438906.898                    20438913.910
 122905165.817 7  95770335.37943  23388074.852                    23388085.563
 112332103.604 7  87531543.97145  21376079.273                    21376086.727
 126141191.444 6  98291843.18843  24003885.320                    24003894.324
 11  8 18 18  0 30.0000000  0 10G28G13G17G19G11G01G07G24G08G23
 118997937.088 7  92725765.87645  22644563.594                    22644571.305
 115850301.208 7  90273051.62345  22045602.320                    22045609.598
 129026567.306 6 100540306.458 6  24552965.383                    24552976.203
 116769707.903 7  90989401.30345  22220537.555                    22220544.082
 115776770.549 7  90215731.67845  22031580.969                    22031588.582
 123385919.838 7  96144938.793 7  23479555.398                    23479568.715
 107384837.073 8  83676601.969 8  20434672.680                    20434679.215
 122835225.017 7  95715836.14443  23374765.242                    23374776.133
 112266183.142 8  87480177.39645  21363534.914                    21363542.238
 126255641.064 6  98381024.45343  24025664.359                    24025673.027
 11  8 18 18  1  0.0000000  0 10G28G13G17G19G11G01G07G24G08G23
 118964778.710 7  92699928.19745  22638254.422                    22638261.805
 115948391.545 7  90349485.58945  22064267.828                    22064275.742
 128922361.090 6 100459106.895 6  24533135.227                    24533146.449
 116851510.012 7  91053143.16245  22236104.531                    22236110.582
 115727654.649 7  90177459.57445  22022234.875                    22022242.316
 123311299.356 7  96086793.073 7  23465355.641                    23465368.250
 107362924.574 8  83659527.301 8  20430503.070                    20430509.910
 122765423.829 7  95661445.71543  23361482.703                    23361493.152
 112200413.921 8  87428928.67546  21351019.219                    21351026.586
 126370111.638 6  98470222.01543  24047447.258                    24047456.523
 11  8 18 18  1 30.0000000  0 10G28G13G17G19G11G01G07G24G08G23
 118931751.460 7  92674192.69745  22631969.281                    22631976.586
 116046764.280 7  90426139.59845  22082987.813                    22082995.832
 128818263.803 6 100377992.207 6  24513326.531                    24513337.109
 116933677.844 7  91117170.01445  22251740.477                    22251746.457
 115678950.422 7  90139508.25345  22012966.039                    22012974.164
 123236805.292 6  96028745.843 7  23451179.648                    23451192.570
 107341352.243 8  83642717.688 8  20426397.852                    20426404.594
 122695765.031 7  95607166.22543  23348227.258                    23348238.039
 112134797.710 8  87377799.17245  21338533.219                    21338540.816
 126484600.399 6  98559433.78743  24069233.500                    24069242.996
 11  8 18 18  2  0.0000000  0 10G28G13G17G19G11G01G07G24G08G23
 118898854.490 7  92648558.71345  22625709.313                    22625716.727
 116145416.498 7  90503011.38245  22101760.820                    22101768.906
 128714277.816 6 100296964.227 6  24493538.914                    24493549.137
 117016208.337 7  91181479.46045  22267445.250                    22267451.441
 115630660.479 7  90101879.74445  22003777.109                    22003784.813
 123162441.118 7  95970799.843 7  23437028.898                    23437041.215
 107320121.907 8  83626174.561 8  20422357.820                    20422364.906
 122626251.795 7  95553000.18743  23334998.555                    23335009.809
 112069336.512 8  87326790.45845  21326076.156                    21326083.516
 126599104.846 6  98648657.75943  24091023.734                    24091032.250
 11  8 18 18  2 30.0000000  0 10G28G13G17G19G11G01G07G24G08G23
 118866086.822 7  92623025.49145  22619474.328                    22619481.473
 116244345.004 7  90580098.46345  22120586.398                    22120594.469
 128610404.972 6 100216024.413 6  24473772.164                    24473782.453
 117099099.062 7  91246069.59945  22283218.836                    22283224.723
 115582787.339 7  90064576.01645  21994667.273                    21994674.641
 123088209.575 7  95912957.184 7  23422902.664                    23422915.793
 107299235.631 8  83609899.545 8  20418383.328                    20418390.453
 122556887.020 7  95498949.82743  23321799.273                    23321810.012
 112004032.978 7  87275904.60745  21313649.172                    21313656.992
 126713621.639 6  98737891.35743  24112815.648                    24112824.984
 11  8 18 18  3  0.0000000  0 10G28G13G17G19G11G01G07G24G08G23
 118833447.595 7  92597592.33645  22613262.664                    22613269.730
 116343546.604 7  90657398.34745  22139463.625                    22139471.488
 128506647.655 6 100135174.617 6  24454027.938                    24454038.344
 117182346.858 7  91310937.97245  22299060.508                    22299066.445
 115535333.285 7  90027598.84545  21985636.742                    21985644.531
 123014113.499 6  95855220.087 6  23408802.969                    23408815.230
 107278694.934 8  83593893.798 8  20414474.531                    20414481.598
 122487673.813 7  95445017.52943  23308627.867                    23308639.051
 111938888.741 8  87225142.88045  21301252.656                    21301260.414
 126828148.052 6  98827132.41143  24134609.953                    24134618.852
 11  8 18 18  3 30.0000000  0 10G28G13G17G19G11G01G07G24G08G23
 118800936.384 7  92572258.93345  22607076.109                    22607083.590
 116443019.119 7  90734909.33445  22158392.625                    22158400.969
 128403008.474 6 100054416.873 6  24434305.703                    24434315.883
 117265949.413 7  91376082.77845  22314969.609                    22314975.738
 115488301.673 7  89990950.85945  21976687.164                    21976694.918
 122940157.011 6  95797591.740 7  23394729.266                    23394742.129
 107258502.635 8  83578159.534 8  20410632.008                    20410639.320
 122418615.826 6  95391206.22343  23295486.992                    23295497.535
 111873906.864 8  87174507.66245  21288886.922                    21288894.707
 126942681.895 6  98916379.28443  24156404.953                    24156414.410
 11  8 18 18  4  0.0000000  0 10G28G13G17G19G11G01G07G24G08G23
 118768552.055 7  92547024.40745  22600913.352                    22600920.957
 116542759.394 7  90812628.93545  22177372.617                    22177380.520
 128299488.943 6  99973752.384 6  24414605.945                    24414616.945
 117349903.779 7  91441501.72645  22330945.742                    22330952.105
 115441694.935 7  89954633.94045  21967818.398                    21967825.824
 122866342.894 7  95740074.350 6  23380682.773                    23380694.961
 107238660.170 8  83562697.871 8  20406856.352                    20406863.688
 122349716.026 7  95337518.15843  23282374.891                    23282386.684
 111809089.566 8  87124000.69046  21276552.445                    21276560.363
 127057220.574 6  99005629.88542  24178200.203                    24178210.531
 11  8 18 18  4 30.0000000  0 10G28G13G17G19G11G01G07G24G08G23
 118736293.454 7  92521887.85145  22594774.750                    22594782.090
 116642764.007 7  90890554.53845  22196402.688                    22196410.750
 128196091.050 6  99893182.704 6  24394930.211                    24394941.188
 117434207.119 7  91507192.59245  22346988.352                    22346994.246
 115395515.128 8  89918649.70145  21959030.758                    21959038.449
 122792674.113 7  95682670.189 7  23366664.234                    23366676.875
 107219169.122 8  83547510.040 8  20403147.461                    20403154.227
 122280977.260 7  95283955.59143  23269294.813                    23269306.023
 111744438.503 8  87073623.25546  21264249.891                    21264257.742
 127171760.915 6  99094881.81042  24199997.719                    24200006.746
 11  8 18 18  5  0.0000000  0 10G28G13G17G19G11G01G07G24G08G23
 118704159.643 7  92496848.53945  22588660.016                    22588667.555
 116743029.578 7  90968683.46544  22215483.164                    22215490.938
 128092816.809 6  99812709.329 6  24375277.664                    24375288.438
 117518856.321 7  91573152.97145  22363096.508                    22363102.168
 115349764.438 7  89882999.83045  21950324.445                    21950332.141
 122719153.151 6  95625381.222 6  23352673.117                    23352685.957
 107200030.766 8  83532597.036 8  20399505.656                    20399512.020
 122212402.422 6  95230520.75443  23256245.320                    23256256.875
 111679955.722 8  87023376.94046  21251979.422                    21251987.504
 127286299.529 6  99184132.40742  24221793.828                    24221803.727
 11  8 18 18  5 30.0000000  0 10G28G13G17G19G11G01G07G24G08G23
 118672149.747 7  92471905.79245  22582568.609                    22582576.160
 116843553.595 7  91047013.78544  22234612.344                    22234620.145
 127989668.260 6  99732333.909 6  24355648.805                    24355659.637
 117603848.787 7  91639380.82145  22379269.836                    22379276.441
 115304445.851 7  89847686.66845  21941700.703                    21941708.023
 122645783.431 6  95568210.098 7  23338710.984                    23338724.117
 107181247.447 8  83517960.681 8  20395931.156                    20395938.082
 122143995.078 7  95177216.42143  23243228.414                    23243239.023
 111615643.792 8  86973263.76746  21239741.211                    21239748.996
 127400834.482 6  99273380.14143  24243590.086                    24243598.836
 11  8 18 18  6  0.0000000  0 10G28G13G17G19G11G01G07G24G08G23
 118640262.686 7  92447058.75345  22576500.703                    22576508.410
 116944333.003 7  91125543.13144  22253789.680                    22253797.848
 127886647.858 6  99652058.339 5  24336045.297                    24336056.113
 117689181.724 7  91705873.98345  22395508.438                    22395514.215
 115259561.797 7  89812712.09145  21933159.109                    21933166.918
 122572568.015 6  95511159.197 7  23324778.266                    23324791.730
 107162820.913 8  83503602.340 8  20392424.523                    20392431.473
 122075757.973 7  95124044.74344  23230242.406                    23230254.027
 111551505.334 8  86923285.76046  21227536.055                    21227543.902
 127515362.838 6  99362622.71843  24265382.766                    24265392.844
 11  8 18 18  6 30.0000000  0 10G28G13G17G19G11G01G07G24G08G23
 118608497.319 7  92422306.53045  22570456.039                    22570463.180
 117045364.226 7  91204268.68744  22273015.219                    22273023.609
 127783757.119 6  99571883.781 5  24316464.844                    24316475.781
 117774852.013 7  91772630.00945  22411811.180                    22411817.148
 115215114.358 7  89778077.75245  21924701.266                    21924708.965
 122499510.049 6  95454231.032 7  23310876.969                    23310888.906
 107144752.587 8  83489523.125 8  20388985.844                    20388993.285
 122007694.090 7  95071008.06744  23217290.898                    23217301.715
 111487542.097 8  86873444.29046  21215364.289                    21215372.090
 127629881.727 6  99451857.87543  24287176.055                    24287186.074
 11  8 18 18  7  0.0000000  0 10G28G13G17G19G11G01G07G24G08G23
 118576853.237 7  92397648.84145  22564434.094                    22564441.648
 117146644.322 7  91283188.16344  22292288.313                    22292296.695
 127680998.463 6  99491812.128 5  24296911.680                    24296920.789
 117860857.089 7  91839646.92645  22428177.000                    22428183.270
 115171105.915 7  89743785.47545  21916326.383                    21916334.527
 122426612.521 7  95397427.859 6  23297004.375                    23297016.922
 107127044.439 8  83475724.563 8  20385616.422                    20385623.508
 121939806.604 7  95018108.84444  23204371.656                    23204383.023
 111423756.149 8  86823740.97146  21203226.055                    21203233.398
 127744388.328 6  99541083.46043  24308965.789                    24308976.070
 11  8 18 18  7 30.0000000  0 10G28G13G17G19G11G01G07G24G08G23
 118545329.373 7  92373084.80745  22558435.617                    22558442.926
 117248170.629 7  91362299.46944  22311608.336                    22311616.336
 127578374.257 7  99411845.246 6  24277383.125                    24277393.172
 117947194.098 7  91906922.46545  22444606.531                    22444612.656
 115127539.239 7  89709837.43345  21908035.906                    21908043.938
 122353878.707 7  95340752.224 7  23283163.125                    23283176.191
 107109698.686 8  83462208.385 8  20382315.406                    20382322.824
 121872098.795 7  94965349.61244  23191487.469                    23191498.367
 111360150.049 8  86774177.79146  21191122.492                    21191130.164
 127858880.302 6  99630297.68143  24330753.367                    24330763.336
 11  8 18 18  8  0.0000000  0 10G28G13G17G19G11G01G07G24G08G23
 118513924.762 7  92348613.71245  22552459.492                    22552467.031
 117349939.896 7  91441600.13244  22330974.273                    22330982.676
 127475886.386 6  99331984.650 6  24257880.141                    24257890.457
 118033860.267 7  91974454.48945  22461097.859                    22461105.148
 115084416.886 7  89676235.62245  21899830.352                    21899837.426
 122281311.475 7  95284206.409 7  23269354.039                    23269367.129
 107092716.796 8  83448975.736 8  20379084.148                    20379091.277
 121804573.694 7  94912732.75744  23178637.570                    23178648.781
 111296726.064 8  86724756.51446  21179053.414                    21179060.801
 127973354.801 6  99719498.23643  24352538.102                    24352547.215
 11  8 18 18  8 30.0000000  0 10G28G13G17G19G11G01G07G24G08G23
 118482638.238 7  92324234.60745  22546505.445                    22546513.117
 117451949.072 7  91521087.72344  22350386.352                    22350394.488
 127373536.662 6  99252231.675 6  24238403.609                    24238413.691
 118120852.721 7  92042240.77245  22477653.133                    22477658.926
 115041740.891 7  89642981.61845  21891709.211                    21891716.758
 122208914.229 7  95227793.049 7  23255576.805                    23255590.359
 107076100.371 8  83436027.860 8  20375922.000                    20375929.406
 121737234.384 7  94860260.66744  23165823.961                    23165834.695
 111233486.196 8  86675478.71346  21167019.180                    21167026.352
 128087809.065 6  99808683.09343  24374317.938                    24374327.031
 11  8 18 18  9  0.0000000  0 10G28G13G17G19G11G01G07G24G08G23
 118451469.035 7  92299946.94545  22540574.719                    22540582.152
 117554195.063 7  91600759.84644  22369842.828                    22369850.883
 127271327.272 6  99172588.096 6  24218953.688                    24218963.563
 118208168.563 7  92110279.04945  22494268.563                    22494274.379
 114999513.846 7  89610077.44545  21883673.969                    21883681.063
 122136689.770 7  95171514.331 7  23241833.859                    23241846.391
 107059851.368 8  83423366.290 8  20372830.367                    20372836.938
 121670083.930 7  94807935.75044  23153044.977                    23153056.105
 111170433.155 8  86626346.48046  21155020.211                    21155028.215
 128202240.258 6  99897849.98243  24396093.695                    24396103.137
 11  8 18 18  9 30.0000000  0 10G28G13G17G19G11G01G07G24G08G23
 118420416.632 7  92275750.28645  22534665.305                    22534672.719
 117656674.877 7  91680614.16844  22389344.289                    22389352.398
 127169260.311 6  99093055.475 6  24199530.914                    24199540.563
 118295805.176 7  92178567.28045  22510945.039                    22510951.469
 114957737.941 7  89577524.80845  21875723.938                    21875731.363
 122064641.184 7  95115372.630 7  23228123.102                    23228135.816
 107043971.861 8  83410992.642 8  20369808.539                    20369815.609
 121603125.576 7  94755760.49144  23140303.508                    23140314.066
 111107569.344 8  86577361.70246  21143057.727                    21143065.426
 128316646.049 6  99986997.02243  24417865.266                    24417874.520
 11  8 18 18 10  0.0000000  0 10G28G13G17G19G11G01G07G24G08G23
 118389479.791 7  92251643.68545  22528778.406                    22528785.418
 117759385.150 7  91760648.05744  22408889.453                    22408897.500
 127067337.388 6  99013635.077 6  24180135.250                    24180145.582
 118383759.637 7  92247103.20245  22527681.945                    22527688.387
 114916415.487 8  89545325.51845  21867860.586                    21867867.938
 121992771.521 7  95059370.378 7  23214446.797                    23214459.758
 107028462.994 8  83398907.805 8  20366856.703                    20366863.988
 121536362.056 7  94703737.07243  23127598.484                    23127609.113
 111044896.413 8  86528525.66546  21131131.453                    21131138.988
 128431023.303 6 100076121.80443  24439630.055                    24439640.004
 11  8 18 18 10 30.0000000  0  9G28G13G17G19G11G01G07G24G08
 118358658.050 7  92227626.77145  22522913.078                    22522920.285
 117862323.745 7  91840859.87744  22428477.945                    22428486.449
 126965561.858 6  98934329.556 6  24160768.164                    24160778.820
 118472029.419 7  92315884.80945  22544480.148                    22544486.098
 114875549.370 7  89513481.80345  21860084.070                    21860091.781
 121921084.766 7  95003510.640 7  23200804.828                    23200817.828
 107013327.568 8  83387113.969 8  20363977.000                    20363983.906
 121469797.575 7  94651868.72644  23114932.258                    23114942.141
 110982417.721 7  86479840.97546  21119242.172                    21119249.996
 11  8 18 18 11  0.0000000  0  9G28G13G17G19G11G01G07G24G08
 118327950.046 7  92203698.47245  22517069.633                    22517076.957
 117965487.251 7  91921246.94144  22448109.492                    22448118.094
 126863934.877 6  98855139.776 6  24141428.672                    24141439.258
 118560611.621 7  92384909.84845  22561336.141                    22561342.418
 114835141.518 7  89481995.18545  21852394.875                    21852401.859
 121849583.155 7  94947795.193 7  23187199.266                    23187211.715
 106998566.620 8  83375611.925 8  20361168.141                    20361175.203
 121403434.481 7  94600157.29644  23102303.273                    23102313.492
 110920135.571 8  86431309.43646  21107390.164                    21107398.172
 11  8 18 18 11 30.0000000  0  9G28G13G17G19G11G01G07G24G08
 118297354.574 7  92179857.87745  22511247.609                    22511254.672
 118068871.862 7  92001806.28144  22467783.695                    22467791.578
 126762458.194 6  98776067.124 6  24122118.164                    24122129.039
 118649502.970 7  92454175.78945  22578251.648                    22578258.004
 114795193.855 7  89450867.15445  21844792.938                    21844800.141
 121778269.697 6  94892226.328 7  23173628.609                    23173640.410
 106984181.452 8  83364402.697 8  20358430.359                    20358437.840
 121337275.589 7  94548604.98844  23089713.336                    23089723.953
 110858051.499 8  86382932.25146  21095576.500                    21095583.730
 11  8 18 18 12  0.0000000  0  9G28G13G17G19G11G01G07G24G08
 118266871.025 7  92156104.48445  22505446.570                    22505454.297
 118172474.876 7  92082535.82544  22487498.422                    22487506.855
 126661134.132 6  98697113.408 6  24102836.891                    24102847.203
 118738700.472 7  92523680.30845  22595225.461                    22595231.770
 114755708.782 7  89420099.57545  21837279.227                    21837286.645
 121707147.521 7  94836806.522 7  23160094.164                    23160106.594
 106970173.982 8  83353487.787 8  20355765.094                    20355772.145
 121271324.123 7  94497214.31044  23077163.109                    23077173.355
 110796167.830 8  86334711.22046  21083800.352                    21083807.996
 11  8 18 18 12 30.0000000  0  9G28G13G17G19G11G01G07G24G08
 118236498.171 7  92132437.33645  22499666.805                    22499674.164
 118276292.993 7  92163432.95144  22507254.320                    22507262.445
 126559964.576 6  98618280.019 6  24083585.773                    24083595.305
 118828201.428 7  92593421.27245  22612257.211                    22612262.789
 114716688.497 7  89389694.17245  21829853.805                    21829861.172
 121636219.553 6  94781538.048 7  23146596.844                    23146609.145
 106956545.813 8  83342868.436 8  20353171.758                    20353178.879
 121205583.067 7  94445987.60144  23064652.750                    23064663.875
 110734486.995 8  86286648.24246  21072062.609                    21072069.977
 11  8 18 18 13  0.0000000  0 10G28G13G17G19G11G01G07G24G26G08
 118206235.304 7  92108855.91045  22493907.742                    22493915.383
 118380323.457 7  92244495.55844  22527050.641                    22527058.902
 126458951.605 6  98539568.641 6  24064363.188                    24064373.234
 118918003.376 7  92663396.77045  22629346.109                    22629351.848
 114678135.587 7  89359652.95845  21822517.555                    21822525.066
 121565489.196 6  94726423.557 7  23133137.453                    23133150.086
 106943299.186 8  83332546.385 8  20350650.852                    20350658.039
 121140055.883 7  94394927.52644  23052183.227                    23052193.961
 127453870.50416  99314779.65353  24253674.063                    24253683.910
 110673011.572 7  86238745.33246  21060364.047                    21060371.684
 11  8 18 18 13 30.0000000  0 10G28G13G17G19G11G01G07G24G26G08
 118176081.265 7  92085359.27245  22488170.242                    22488177.484
 118484562.571 7  92325720.75444  22546886.656                    22546895.047
 126358096.885 6  98460980.591 6  24045171.008                    24045181.430
 119008102.891 7  92733604.14945  22646491.133                    22646497.516
 114640051.643 7  89329977.16845  21815270.664                    21815277.570
 121494958.786 6  94671464.880 7  23119716.359                    23119727.867
 106930434.867 8  83322522.233 8  20348203.148                    20348209.996
 121074744.955 7  94344035.97343  23039754.750                    23039765.844
 127365786.955 6  99246143.21342  24236911.375                    24236921.520
 110611743.518 8  86191004.00546  21048704.969                    21048713.195
 11  8 18 18 14  0.0000000  0 10G28G13G17G19G11G01G07G24G26G08
 118146035.399 7  92061946.93345  22482452.664                    22482459.004
 118589007.543 7  92407106.34844  22566761.633                    22566770.109
 126257402.839 6  98382517.766 6  24026008.930                    24026019.859
 119098497.573 7  92804041.52345  22663692.766                    22663699.020
 114602439.321 7  89300668.87245  21808112.906                    21808120.180
 121424632.165 6  94616665.004 7  23106332.391                    23106345.531
 106917955.463 8  83312798.014 8  20345828.430                    20345835.563
 121009653.928 6  94293315.77544  23027368.305                    23027379.492
 127278082.099 6  99177801.83242  24220221.969                    24220232.316
 110550685.400 7  86143426.26446  21037086.000                    21037093.441
 11  8 18 18 14 30.0000000  0 10G28G13G17G19G11G01G07G24G26G08
 118116096.788 7  92038618.17145  22476755.000                    22476762.246
 118693655.623 7  92488650.20544  22586675.906                    22586684.539
 126156871.294 6  98304181.580 6  24006879.461                    24006889.113
 119189184.399 7  92874706.53445  22680949.992                    22680956.332
 114565300.648 7  89271729.65445  21801045.586                    21801053.129
 121354512.119 6  94562026.082 7  23092989.016                    23093001.484
 106905862.125 8  83303374.626 8  20343527.164                    20343534.469
 120944785.589 7  94242769.09844  23015024.375                    23015034.336
 127190758.740 6  99109757.72142  24203604.172                    24203614.809
 110489839.483 8  86096013.88046  21025507.633                    21025515.035
 11  8 18 18 15  0.0000000  0 10G28G13G17G19G11G01G07G24G26G08
 118086264.393 7  92015372.16445  22471077.859                    22471085.793
 118798503.671 7  92570349.87144  22606627.891                    22606636.270
 126056504.538 6  98225973.784 6  23987778.719                    23987789.570
 119280160.590 7  92945597.01945  22698262.000                    22698268.457
 114528637.919 7  89243161.30245  21794069.016                    21794076.305
 121284602.037 6  94507550.760 7  23079686.383                    23079697.922
 106894156.815 8  83294253.596 8  20341299.430                    20341306.043
 120880143.232 7  94192398.50144  23002724.055                    23002733.758
 127103819.703 6  99042013.01842  24187060.578                    24187070.793
 110429208.412 8  86048768.90946  21013969.477                    21013977.309
 11  8 18 18 15 30.0000000  0 10G28G13G17G19G11G01G07G24G26G08
 118056537.594 7  91992208.44945  22465421.313                    22465428.688
 118903548.604 7  92652202.97644  22626617.633                    22626626.055
 125956304.248 6  98147895.716 6  23968712.063                    23968722.586
 119371423.548 7  93016710.96745  22715628.625                    22715635.387
 114492453.158 7  89214965.40145  21787183.094                    21787190.500
 121214904.647 6  94453241.173 7  23066422.898                    23066435.211
 106882841.119 8  83285436.160 8  20339146.016                    20339153.004
 120815729.946 7  94142206.39344  22990466.258                    22990476.660
 127017267.687 6  98974569.92442  24170590.539                    24170600.488
 110368794.489 8  86001693.14046  21002473.281                    21002481.039
 11  8 18 18 16  0.0000000  0 10G28G13G17G19G11G01G07G24G26G08
 118026915.104 7  91969126.00845  22459783.906                    22459791.598
 119008787.113 7  92734206.90944  22646643.539                    22646652.328
 125856272.516 6  98069949.007 6  23949676.094                    23949686.781
 119462970.192 7  93088045.97145  22733049.273                    22733055.711
 114456748.532 7  89187143.62745  21780388.492                    21780396.398
 121145423.103 7  94399099.782 7  23053200.898                    23053213.250
 106871916.290 8  83276923.295 8  20337067.508                    20337074.484
 120751548.499 7  94092194.94244  22978252.602                    22978263.121
 126931105.187 5  98907430.38442  24154193.305                    24154204.180
 110308599.704 8  85954788.13046  20991018.289                    20991026.270
 11  8 18 18 16 30.0000000  0 10G28G13G17G19G11G01G07G24G26G08
 117997396.386 7  91946124.42545  22454167.008                    22454174.430
 119114216.302 7  92816359.41944  22666706.383                    22666714.371
 125756411.651 7  97992135.423 6  23930673.773                    23930683.641
 119554797.725 7  93159599.83645  22750524.281                    22750530.207
 114421526.445 7  89159697.85945  21773686.203                    21773693.805
 121076160.811 7  94345129.236 7  23040021.172                    23040033.051
 106861384.527 8  83268716.719 8  20335063.344                    20335070.363
 120687602.185 6  94042366.73944  22966084.094                    22966094.387
 126845335.002 5  98840596.45742  24137872.406                    24137882.391
 110248626.944 8  85908056.12546  20979605.930                    20979613.742
 11  8 18 18 17  0.0000000  0 10G28G13G17G19G11G01G07G24G26G08
 117967980.544 7  91923203.01345  22448569.813                    22448576.832
 119219832.993 7  92898658.04544  22686804.633                    22686812.676
 125656723.309 7  97914456.287 6  23911703.625                    23911714.066
 119646903.070 7  93231370.19245  22768051.438                    22768057.727
 114386788.664 7  89132629.47245  21767075.883                    21767083.199
 121007120.266 7  94291331.457 7  23026882.664                    23026894.988
 106851247.266 8  83260817.545 8  20333134.117                    20333141.141
 120623893.948 7  93992724.01344  22953960.344                    22953971.453
 126759960.273 6  98774070.78342  24121626.250                    24121636.563
 110188878.171 7  85861498.64946  20968236.359                    20968243.613
 11  8 18 18 17 30.0000000  0 10G28G13G17G19G11G01G07G24G26G08
 117938666.143 7  91900360.63145  22442991.094                    22442998.652
 119325634.193 7  92981100.43644  22706937.953                    22706946.410
 125557209.143 7  97836912.886 6  23892766.547                    23892776.961
 119739283.722 7  93303355.06145  22785630.094                    22785636.879
 114352537.128 7  89105939.98045  21760558.008                    21760565.566
 120938304.728 7  94237709.021 7  23013787.570                    23013799.883
 106841506.014 8  83253226.949 8  20331280.672                    20331287.805
 120560427.077 7  93943269.38044  22941883.391                    22941894.070
 126674983.536 6  98707855.19542  24105455.680                    24105466.129
 110129355.945 8  85815117.70546  20956910.039                    20956917.063
 11  8 18 18 18  0.0000000  0 10G28G13G17G19G11G01G07G24G26G08
 117909452.293 7  91877596.61045  22437431.828                    22437438.762
 119431616.375 7  93063683.84944  22727106.000                    22727114.277
 125457871.579 7  97759507.070 6  23873863.375                    23873873.242
 119831936.487 7  93375551.97045  22803261.609                    22803268.578
 114318774.036 7  89079631.09145  21754133.289                    21754140.484
 120869716.958 7  94184264.062 7  23000735.906                    23000747.914
 106832162.222 8  83245946.063 8  20329502.883                    20329509.281
 120497204.378 7  93894005.03244  22929852.211                    22929863.059
 126590407.333 6  98641951.74243  24089360.953                    24089371.211
 110070062.518 8  85768915.04146  20945626.328                    20945634.039
 11  8 18 18 18 30.0000000  0 10G28G13G17G19G11G01G07G24G26G08
 117880338.763 7  91854910.76445  22431892.047                    22431899.016
 119537777.328 7  93146406.57344  22747307.305                    22747316.035
 125358712.666 7  97682240.468 6  23854994.211                    23855004.250
 119924859.041 7  93447959.07644  22820943.938                    22820950.742
 114285501.490 7  89053704.45245  21747801.641                    21747808.938
 120801360.695 7  94130999.483 7  22987727.930                    22987739.945
 106823218.064 8  83238976.580 8  20327800.344                    20327807.902
 120434229.186 7  93844933.52944  22917868.641                    22917879.434
 126506234.682 6  98576362.73543  24073343.602                    24073354.566
 110011001.088 8  85722893.16446  20934387.484                    20934394.965
 11  8 18 18 19  0.0000000  0 10G28G13G17G19G11G01G07G24G26G08
 117851324.255 7  91832302.09245  22426370.820                    22426377.938
 119644113.316 7  93229265.67644  22767543.094                    22767551.578
 125259734.018 7  97605114.308 6  23836158.906                    23836168.754
 120018048.121 7  93520573.86645  22838677.664                    22838684.609
 114252721.410 7  89028161.54545  21741563.797                    21741571.164
 120733238.252 7  94077917.114 7  22974764.477                    22974776.770
 106814674.485 8  83232319.242 8  20326174.688                    20326181.594
 120371504.219 7  93796057.02144  22905932.125                    22905942.941
 126422467.981 6  98511090.03143  24057403.398                    24057413.656
 109952173.226 7  85677053.27246  20923192.844                    20923201.129
 11  8 18 18 19 30.0000000  0 10G28G13G17G19G11G01G07G24G26G08
 117822408.101 7  91809770.03645  22420867.914                    22420875.059
 119750621.613 7  93312259.03244  22787810.945                    22787819.148
 125160937.809 7  97528130.324 6  23817358.250                    23817368.344
 120111501.225 7  93593394.45045  22856461.469                    22856467.488
 114220436.100 7  89003004.17945  21735420.156                    21735427.172
 120665353.119 7  94025019.646 7  22961846.781                    22961858.621
 106806533.788 8  83225975.840 8  20324625.391                    20324632.836
 120309032.729 7  93747378.00944  22894044.680                    22894054.625
 126339110.139 6  98446135.94643  24041541.250                    24041551.340
 109893581.807 8  85631397.62946  20912043.703                    20912050.898
 11  8 18 18 20  0.0000000  0 10G28G13G17G19G11G01G07G24G26G08
 117793589.334 7  91787313.87645  22415383.797                    22415390.945
 119857298.649 7  93395383.88744  22808110.594                    22808119.063
 125062325.686 6  97451289.818 6  23798592.578                    23798602.930
 120205215.192 7  93666418.25345  22874294.875                    22874300.773
 114188647.128 7  88978233.55645  21729370.625                    21729378.703
 120597708.241 7  93972309.396 7  22948974.531                    22948986.813
 106798796.894 8  83219947.080 8  20323153.219                    20323160.363
 120246817.590 7  93698898.74844  22882205.453                    22882215.902
 126256163.908 6  98381502.60643  24025757.039                    24025766.855
 109835228.967 7  85585927.88546  20900939.055                    20900946.996
 11  8 18 18 20 30.0000000  0 10G28G13G17G19G11G01G07G24G26G08
 117764866.594 7  91764932.53745  22409918.211                    22409925.301
 119964141.434 7  93478637.90444  22828442.273                    22828451.055
 124963899.877 6  97374594.456 6  23779863.484                    23779873.090
 120299187.157 7  93739643.11345  22892176.953                    22892183.617
 114157356.495 7  88953851.26845  21723416.297                    21723423.676
 120530306.696 7  93919788.746 7  22936147.766                    22936159.652
 106791465.466 8  83214234.274 8  20321758.000                    20321764.762
 120184861.873 7  93650621.63644  22870415.453                    22870425.734
 126173631.739 6  98317191.89443  24010051.539                    24010061.563
 109777116.794 7  85540645.68346  20889880.703                    20889888.359
 11  8 18 18 21  0.0000000  0 10G28G13G17G19G11G01G07G24G26G08
 117736239.669 7  91742625.85245  22404470.500                    22404477.656
 120071147.330 7  93562019.00644  22848804.930                    22848813.598
 124865662.456 6  97298045.893 6  23761168.633                    23761178.707
 120393414.703 7  93813067.11244  22910107.469                    22910113.984
 114126566.282 7  88929858.90845  21717556.906                    21717565.031
 120463151.785 7  93867460.302 7  22923368.789                    22923380.797
 106784541.402 8  83208838.893 8  20320440.578                    20320447.410
 120123168.892 6  93602549.23944  22858675.938                    22858686.289
 126091516.276 6  98253205.92743  23994424.813                    23994435.148
 109719248.512 7  85495553.51846  20878868.922                    20878876.449
 11  8 18 18 21 30.0000000  0 10G28G13G17G19G11G01G07G24G26G08
 117707707.130 7  91720392.72545  22399041.070                    22399048.191
 120178312.929 7  93645524.54544  22869198.070                    22869206.793
 124767615.022 6  97221645.372 6  23742510.617                    23742520.758
 120487894.402 7  93886687.61445  22928086.367                    22928093.313
 114096278.462 7  88906258.02045  21711793.414                    21711801.316
 120396246.137 7  93815326.053 7  22910637.078                    22910649.461
 106778025.809 8  83203761.798 8  20319200.680                    20319207.844
 120061741.505 7  93554683.80044  22846985.930                    22846996.875
 126009820.326 6  98189546.83243  23978878.320                    23978889.012
 109661626.011 7  85450652.88146  20867903.844                    20867911.238
 11  8 18 18 22  0.0000000  0 10G28G13G17G19G11G01G07G24G26G08
 117679268.455 7  91698232.72445  22393628.898                    22393636.238
 120285635.306 7  93729152.26644  22889621.125                    22889629.941
 124669759.575 7  97145394.465 6  23723889.484                    23723899.367
 120582624.105 7  93960502.89345  22946113.852                    22946119.426
 114066494.939 7  88883050.11445  21706125.820                    21706133.656
 120329592.692 7  93763388.339 7  22897953.086                    22897965.359
 106771920.574 8  83199004.468 8  20318038.430                    20318045.816
 120000582.527 7  93507027.48644  22835347.539                    22835358.258
 125928546.466 6  98126216.61843  23963412.617                    23963422.988
 109604252.161 8  85405945.99746  20856985.766                    20856993.465
 11  8 18 18 22 30.0000000  0 10G28G13G17G19G11G01G07G24G26G08
 117650922.446 7  91676144.95145  22388235.102                    22388242.391
 120393111.212 7  93812899.59244  22910072.891                    22910081.512
 124572097.773 7  97069294.432 6  23705305.305                    23705315.258
 120677600.746 7  94034510.60344  22964186.641                    22964193.121
 114037217.494 7  88860236.53645  21700554.742                    21700562.016
 120263194.605 7  93711649.610 7  22885318.367                    22885329.879
 106766226.855 8  83194567.801 8  20316955.555                    20316962.617
 119939695.052 7  93459582.75144  22823761.422                    22823771.801
 125847697.192 7  98063217.25643  23948027.508                    23948037.879
 109547128.938 8  85361434.40546  20846115.516                    20846123.164
 11  8 18 18 23  0.0000000  0 10G28G13G17G19G11G01G07G24G26G08
 117622668.344 7  91654128.78045  22382858.438                    22382865.730
 120500737.663 7  93896764.25544  22930553.813                    22930562.078
 124474631.986 6  96993347.141 6  23686758.281                    23686768.379
 120772821.473 7  94108708.55244  22982306.563                    22982312.582
 114008447.803 7  88837818.60645  21695079.820                    21695087.242
 120197054.978 7  93660112.291 7  22872732.367                    22872744.266
 106760946.446 8  83190453.186 8  20315950.375                    20315957.516
 119879082.105 6  93412351.94244  22812227.133                    22812237.492
 125767275.331 6  98000550.94043  23932724.117                    23932734.305
 109490258.957 8  85317120.15846  20835293.672                    20835301.125
 11  8 18 18 23 30.0000000  0 10G28G13G17G19G11G01G07G24G26G08
 117594505.687 7  91632183.87045  22377498.945                    22377506.344
 120608511.867 7  93980744.03144  22951062.664                    22951071.313
 124377364.071 6  96917554.042 6  23668249.172                    23668258.332
 120868283.459 7  94183094.45844  23000472.188                    23000479.324
 113980187.911 7  88815797.93745  21689702.203                    21689709.828
 120131177.018 7  93608778.868 7  22860196.016                    22860208.094
 106756080.970 8  83186661.894 8  20315025.000                    20315031.684
 119818746.688 7  93365337.36544  22800746.172                    22800755.633
 125687283.541 6  97938219.72343  23917502.289                    23917511.949
 109433645.027 7  85273005.42146  20824520.414                    20824527.688
 11  8 18 18 24  0.0000000  0 10G28G13G17G19G11G01G07G24G26G08
 117566433.148 7  91610309.18845  22372157.188                    22372164.023
 120716430.472 7  94064836.33744  22971598.594                    22971607.582
 124280296.253 6  96841916.852 6  23649777.133                    23649786.988
 120963983.948 7  94257666.22844  23018683.547                    23018689.723
 113952439.590 7  88794175.88945  21684421.563                    21684429.090
 120065563.726 7  93557651.661 7  22847710.063                    22847722.109
 106751631.733 8  83183194.946 8  20314178.141                    20314185.102
 119758691.964 7  93318541.52544  22789317.773                    22789327.660
 125607724.266 6  97876225.58643  23902362.094                    23902371.820
 109377289.629 8  85229092.13846  20813796.086                    20813804.023
 11  8 18 18 24 30.0000000  0 10G28G13G17G19G11G01G07G24G26G08
 117538449.908 7  91588504.07445  22366832.742                    22366839.016
 120824490.261 7  94149038.65544  22992161.906                    22992170.996
 124183429.501 6  96766436.331 6  23631343.938                    23631353.664
 121059920.003 6  94332421.52444  23036939.250                    23036946.961
 113925204.255 7  88772953.57145  21679239.328                    21679246.309
 120000217.651 7  93506732.709 7  22835274.672                    22835287.477
 106747600.025 8  83180053.348 8  20313410.711                    20313417.895
 119698920.643 6  93271966.50944  22777943.664                    22777953.711
 125528600.059 6  97814570.45043  23887304.617                    23887315.418
 109321194.457 8  85185381.62846  20803121.656                    20803129.078
 11  8 18 18 25  0.0000000  0 10G28G13G17G19G11G01G07G24G26G08
 117510555.090 7  91566767.86945  22361524.063                    22361531.309
 120932688.409 7  94233348.78044  23012751.617                    23012760.328
 124086766.197 7  96691114.376 6  23612949.609                    23612959.469
 121156088.901 7  94407358.29444  23055240.352                    23055246.613
 113898484.193 7  88752132.76745  21674154.633                    21674161.723
 119935142.081 7  93456024.516 7  22822891.539                    22822903.723
 106743987.453 8  83177238.340 8  20312723.359                    20312730.750
 119639435.776 7  93225614.70444  22766623.914                    22766634.438
 125449913.615 6  97753256.40143  23872331.453                    23872341.836
 109265362.375 8  85141876.12446  20792497.094                    20792504.797
 11  8 18 18 25 30.0000000  0 10G28G13G17G19G11G01G07G24G26G08
 117482748.379 7  91545100.32445  22356232.570                    22356239.434
 121041021.826 7  94317764.30443  23033366.813                    23033375.707
 123990308.502 7  96615952.605 6  23594594.492                    23594604.508
 121252487.890 7  94482474.31544  23073584.422                    23073590.914
 113872281.427 7  88731715.05145  21669168.258                    21669175.566
 119870340.265 7  93405529.657 7  22810560.195                    22810572.266
 106740795.770 8  83174751.301 8  20312115.688                    20312123.543
 119580240.444 7  93179488.51644  22755359.734                    22755369.719
 125371667.410 6  97692285.41143  23857441.039                    23857451.883
 109209796.122 8  85098577.75246  20781923.141                    20781930.570
 11  8 18 18 26  0.0000000  0 10G28G13G17G19G11G01G07G24G26G08
 117455028.314 7  91523500.28745  22350957.695                    22350964.785
 121149487.460 7  94402282.87043  23054006.820                    23054016.090
 123894057.648 7  96540952.028 6  23576278.727                    23576288.227
 121349113.981 7  94557767.34144  23091971.672                    23091978.090
 113846597.228 7  88711701.40345  21664281.086                    21664288.285
 119805814.822 7  93355250.140 7  22798281.461                    22798293.395
 106738025.999 8  83172593.033 8  20311589.273                    20311595.973
 119521337.844 7  93133590.40944  22744149.688                    22744160.566
 125293864.156 6  97631659.57642  23842636.164                    23842645.965
 109154497.971 8  85055488.29646  20771400.469                    20771407.945
 11  8 18 18 26 30.0000000  0 10G28G13G17G19G11G01G07G24G26G08
 117427394.082 7  91501967.13245  22345699.102                    22345706.094
 121258082.017 7  94486901.86944  23074672.195                    23074681.184
 123798016.066 7  96466114.518 6  23558002.438                    23558011.660
 121445964.648 7  94633235.32344  23110401.703                    23110408.348
 113821432.972 8  88692092.91745  21659491.703                    21659499.652
 119741568.611 7  93305188.227 7  22786055.781                    22786068.027
 106735679.630 8  83170764.679 8  20311142.406                    20311149.293
 119462730.664 7  93087922.52444  22732997.633                    22733008.105
 125216506.131 6  97571380.61243  23827915.328                    23827925.668
 109099470.172 8  85012609.50246  20760928.969                    20760936.617
 11  8 18 18 27  0.0000000  0 10G28G13G17G19G11G01G07G24G26G08
 117399845.126 7  91480500.43045  22340456.539                    22340463.750
 121366802.687 7  94571619.15244  23095361.453                    23095370.219
 123702185.594 7  96391441.502 6  23539766.586                    23539776.191
 121543037.160 7  94708876.19244  23128874.742                    23128880.719
 113796791.070 8  88672891.43945  21654802.469                    21654810.348
 119677605.315 7  93255346.751 7  22773883.766                    22773895.836
 106733758.463 8  83169267.664 8  20310777.227                    20310783.742
 119404421.950 7  93042487.18444  22721902.039                    22721912.109
 125139596.092 6  97511450.80443  23813280.234                    23813290.117
 109044715.516 8  84969943.54246  20750509.383                    20750516.887
 11  8 18 18 27 30.0000000  0 10G28G13G17G19G11G01G07G24G26G08
 117372380.326 7  91459099.29045  22335230.414                    22335237.414
 121475646.216 7  94656432.16643  23116073.164                    23116082.746
 123606567.790 7  96316934.204 6  23521569.914                    23521580.246
 121640328.330 7  94784687.42844  23147387.406                    23147394.145
 113772672.599 8  88654097.85345  21650213.078                    21650220.445
 119613927.123 7  93205727.435 7  22761766.289                    22761778.352
 106732263.302 7  83168102.587 8  20310492.484                    20310499.129
 119346414.559 7  92997286.65944  22710863.414                    22710873.660
 125063136.325 7  97451871.85043  23798730.180                    23798739.434
 108990236.128 8  84927492.07946  20740142.180                    20740150.145
 11  8 18 18 28  0.0000000  0 10G28G13G17G19G11G01G07G24G26G08
 117344998.659 7  91437762.93945  22330020.078                    22330026.910
 121584609.519 7  94741338.50344  23136808.164                    23136817.625
 123511164.335 7  96242593.940 6  23503416.016                    23503425.543
 121737835.667 7  94860667.15045  23165942.820                    23165949.828
 113749079.439 7  88635713.59845  21645723.078                    21645731.066
 119550537.101 7  93156332.673 7  22749702.984                    22749714.754
 106731195.507 7  83167270.533 8  20310289.375                    20310296.008
 119288711.309 7  92952323.11544  22699883.719                    22699893.223
 124987129.063 7  97392645.46843  23784267.023                    23784276.797
 108936034.609 8  84885257.14046  20729828.156                    20729835.484
 11  8 18 18 28 30.0000000  0 10G28G13G17G19G11G01G07G24G26G08
 117317699.609 7  91416490.95945  22324824.953                    22324832.227
 121693689.768 7  94826335.96444  23157565.906                    23157575.449
 123415977.497 6  96168422.454 6  23485302.336                    23485311.980
 121835556.215 7  94936812.93644  23184538.820                    23184545.473
 113726013.276 7  88617739.99445  21641334.320                    21641341.699
 119487438.503 7  93107165.000 7  22737696.055                    22737707.938
 106730556.958 7  83166772.953 8  20310167.633                    20310174.598
 119231315.546 7  92907599.17944  22688961.266                    22688970.758
 124911577.403 7  97333774.12343  23769889.508                    23769899.375
 108882113.570 8  84843240.75546  20719567.359                    20719574.492
 11  8 18 18 29  0.0000000  0 10G28G13G17G19G11G01G07G24G26G08
 117290482.331 7  91395282.69345  22319645.578                    22319652.664
 121802884.008 7  94911422.25043  23178345.305                    23178354.227
 123321008.998 7  96094421.063 6  23467230.391                    23467239.703
 121933487.017 7  95013122.61844  23203173.734                    23203181.500
 113703475.366 7  88600178.01545  21637045.297                    21637052.547
 119424634.386 7  93058226.778 7  22725744.875                    22725756.660
 106730349.027 7  83166610.922 8  20310128.188                    20310135.168
 119174230.035 7  92863117.01144  22678097.781                    22678108.148
 124836483.794 6  97275259.71043  23755599.031                    23755608.992
 108828475.615 8  84801444.96146  20709360.414                    20709367.602
 11  8 18 18 29 30.0000000  0 10G28G13G17G19G11G01G07G24G26G08
 117263346.078 7  91374137.57045  22314482.047                    22314488.645
 121912188.866 7  94996594.71943  23199145.031                    23199154.234
 123226260.335 7  96020591.023 6  23449200.133                    23449210.063
 122031625.732 7  95089594.28544  23221849.148                    23221856.406
 113681467.630 8  88583029.14545  21632857.438                    21632864.867
 119362127.427 7  93009520.110 7  22713849.945                    22713861.914
 106730572.866 7  83166785.326 8  20310170.828                    20310177.883
 119117457.769 7  92818878.91944  22667294.539                    22667304.281
 124761850.249 7  97217103.77343  23741397.609                    23741407.023
 108775122.651 8  84759871.23046  20699207.438                    20699214.871
 11  8 18 18 30  0.0000000  0 10G28G13G17G19G11G01G07G24G26G08
 117236289.428 7  91353054.47445  22309332.969                    22309339.957
 122021601.051 7  95081850.84444  23219965.438                    23219974.910
 123131733.486 7  95946933.809 6  23431212.836                    23431221.871
 122129969.245 7  95166225.51344  23240564.688                    23240571.211
 113659991.547 7  88566294.56445  21628770.359                    21628778.254
 119299920.237 7  92961047.016 7  22702012.008                    22702023.980
 106731229.173 7  83167296.726 8  20310295.633                    20310302.730
 119061001.147 7  92774886.79844  22656551.359                    22656561.055
 124687679.063 7  97159308.11043  23727282.656                    23727292.184
 108722056.967 8  84718521.35746  20689109.547                    20689117.117
 11  8 18 18 30 30.0000000  0 10G28G13G17G19G11G01G07G24G26G08
 117209312.092 7  91332033.18145  22304199.633                    22304206.125
 122131118.072 7  95167188.64344  23240806.484                    23240815.488
 123037430.400 7  95873450.961 6  23413266.867                    23413277.090
 122228515.246 7  95243014.55944  23259315.867                    23259322.391
 113639048.567 7  88549975.37745  21624785.461                    21624792.844
 119238016.293 7  92912810.232 7  22690232.422                    22690244.543
 106732320.166 8  83168146.835 8  20310503.266                    20310510.359
 119004863.628 7  92731143.32944  22645868.789                    22645878.855
 124613973.049 6  97101874.91143  23713256.695                    23713266.434
 108669282.003 8  84677398.01946  20679066.797                    20679074.145
 11  8 18 18 31  0.0000000  0 10G28G13G17G19G11G01G07G24G26G08
 117182413.840 7  91311073.50145  22299080.828                    22299087.930
 122240737.216 7  95252606.02343  23261666.109                    23261674.789
 122943353.063 7  95800144.043 6  23395364.578                    23395374.180
 122327260.619 7  95319958.97544  23278107.914                    23278114.074
 113618640.306 7  88534072.84645  21620902.172                    21620909.410
 119176418.542 7  92864812.020 7  22678510.930                    22678522.629
 106733847.100 7  83169336.638 8  20310793.711                    20310800.563
 118949047.938 7  92687650.64444  22635247.250                    22635257.250
 124540734.736 6  97044806.15343  23699319.844                    23699330.102
 108616800.465 7  84636503.31646  20669079.641                    20669087.168
 11  8 18 18 31 30.0000000  0 10G28G13G17G19G11G01G07G24G26G08
 117155592.628 7  91290173.86545  22293976.922                    22293984.230
 122350454.602 7  95338099.94143  23282544.891                    23282554.301
 122849503.262 7  95727014.400 6  23377505.836                    23377515.082
 122426202.637 7  95397056.57744  23296935.633                    23296941.824
 113598767.997 8  88518587.95845  21617120.141                    21617127.500
 119115129.471 7  92817054.361 7  22666847.695                    22666859.695
 106735810.717 8  83170866.721 8  20311167.680                    20311174.602
 118893556.754 7  92644410.82844  22624687.563                    22624697.727
 124467966.031 6  96988103.37543  23685472.875                    23685482.590
 108564613.766 8  84595838.36446  20659149.016                    20659156.031
 11  8 18 18 32  0.0000000  0 10G28G13G17G19G11G01G07G24G26G08
 117128848.611 7  91269334.36945  22288887.500                    22288894.875
 122460267.576 7  95423668.32443  23303441.336                    23303450.820
 122755882.454 7  95654063.217 7  23359690.148                    23359699.961
 122525338.748 6  95474305.46444  23315799.406                    23315807.402
 113579433.679 7  88503522.27945  21613440.813                    21613448.156
 119054152.209 7  92769539.664 7  22655244.414                    22655256.059
 106738212.912 8  83172738.553 8  20311624.680                    20311631.496
 118838393.275 7  92601426.37244  22614190.313                    22614200.664
 124395669.584 7  96931768.54443  23671714.883                    23671725.023
 108512725.105 8  84555405.64546  20649274.938                    20649282.316
 11  8 18 18 32 30.0000000  0 10G28G13G17G19G11G01G07G24G26G08
 117102180.486 7  91248554.03345  22283812.539                    22283819.855
 122570173.251 7  95509308.98643  23324356.000                    23324365.203
 122662492.339 7  95581291.792 6  23341918.031                    23341928.211
 122624666.492 7  95551703.61544  23334702.289                    23334708.254
 113560638.625 8  88488876.79445  21609864.242                    21609871.527
 118993490.092 7  92722270.534 7  22643700.695                    22643712.336
 106741054.918 8  83174953.101 8  20312165.625                    20312172.516
 118783560.152 7  92558699.32144  22603755.578                    22603765.488
 124323847.983 6  96875803.71743  23658047.500                    23658057.641
 108461137.043 8  84515207.17046  20639458.125                    20639465.594
 11  8 18 18 33  0.0000000  0 10G28G13G17G19G11G01G07G24G26G08
 117075587.526 7  91227832.26445  22278752.508                    22278759.785
 122680168.408 7  95595019.30243  23345287.086                    23345296.457
 122569335.121 7  95508701.823 6  23324191.563                    23324200.863
 122724182.619 6  95629248.57544  23353638.859                    23353646.480
 113542383.868 8  88474652.33645  21606390.500                    21606397.984
 118933145.594 7  92675248.899 7  22632217.375                    22632228.773
 106744337.856 8  83177511.229 8  20312790.117                    20312797.008
 118729060.475 7  92516232.11044  22593384.633                    22593395.086
 124252503.472 6  96820210.62043  23644471.594                    23644481.133
 108409851.837 8  84475244.68246  20629698.742                    20629705.988
 11  8 18 18 33 30.0000000  0 10G28G13G17G19G11G01G07G24G26G08
 117049069.012 7  91207168.49745  22273705.922                    22273713.262
 122790250.246 7  95680797.20943  23366235.516                    23366245.102
 122476412.388 7  95436294.575 6  23306508.750                    23306517.918
 122823884.477 6  95706938.26344  23372611.672                    23372618.695
 113524671.111 7  88460850.21345  21603020.305                    21603027.707
 118873121.732 7  92628477.108 7  22620795.180                    22620807.070
 106748062.853 8  83180413.812 8  20313499.109                    20313505.852
 118674897.240 7  92474027.05144  22583077.531                    22583088.027
 124181638.413 6  96764991.15343  23630985.609                    23630996.027
 108358872.508 8  84435520.53646  20619997.516                    20620005.398
 11  8 18 18 34  0.0000000  0 10G28G13G17G19G11G01G07G24G26G08
 117022624.019 7  91186562.02145  22268673.836                    22268680.914
 122900415.574 7  95766640.19643  23387199.156                    23387208.723
 122383725.738 7  95364071.265 6  23288871.633                    23288879.836
 122923769.179 7  95784770.44444  23391619.492                    23391626.246
 113507501.388 7  88447471.23145  21599752.422                    21599760.188
 118813421.418 7  92581957.427 7  22609435.055                    22609446.328
 106752231.041 8  83183661.741 8  20314292.477                    20314299.145
 118621073.009 6  92432086.15144  22572835.070                    22572845.313
 124111254.853 6  96710146.87043  23617592.070                    23617602.320
 108308200.683 8  84396035.99946  20610355.109                    20610362.547
 11  8 18 18 34 30.0000000  0 10G28G13G17G19G11G01G07G24G26G08
 116996251.825 7  91166012.26845  22263655.563                    22263662.504
 123010661.463 7  95852545.94943  23408178.273                    23408188.047
 122291277.100 7  95292033.419 6  23271278.633                    23271287.320
 123023833.993 7  95862742.95944  23410661.078                    23410667.133
 113490876.271 8  88434516.60745  21596589.023                    21596596.227
 118754047.534 7  92535692.108 7  22598135.852                    22598147.988
 106756843.859 8  83187256.135 8  20315170.258                    20315177.148
 118567590.890 6  92390411.83344  22562658.133                    22562667.883
 124041355.117 6  96655679.58743  23604290.883                    23604300.773
 108257839.145 8  84356793.25446  20600772.109                    20600779.273
 11  8 18 18 35  0.0000000  0 10G28G13G17G19G11G01G07G24G26G08
 116969951.589 7  91145518.58245  22258650.609                    22258657.527
 123120984.677 7  95938511.90143  23429172.594                    23429182.422
 122199067.756 7  95220182.052 6  23253731.000                    23253740.348
 123124076.424 7  95940853.95044  23429737.414                    23429743.352
 113474796.806 8  88421987.17445  21593529.219                    21593536.836
 118695002.468 7  92489683.018 7  22586899.469                    22586911.465
 106761901.968 8  83191197.510 8  20316132.945                    20316139.758
 118514453.169 7  92349005.89444  22552545.930                    22552556.254
 123971941.569 6  96601591.14243  23591082.063                    23591091.820
 108207790.251 8  84317794.12146  20591247.641                    20591255.277
 11  8 18 18 35 30.0000000  0 10G28G13G17G19G11G01G07G24G26G08
 116943722.411 7  91125080.27045  22253659.430                    22253666.117
 123231382.447 7  96024536.00043  23450180.656                    23450190.180
 122107100.236 7  95148519.122 6  23236230.766                    23236240.168
 123224493.907 7  96019101.24044  23448845.516                    23448852.137
 113459264.504 8  88409884.07945  21590573.578                    21590580.938
 118636289.624 7  92443932.808 7  22575727.109                    22575739.188
 106767407.342 8  83195487.408 8  20317180.242                    20317187.551
 118461663.118 7  92307870.85544  22542500.422                    22542510.266
 123903016.438 6  96547883.31143  23577966.219                    23577975.723
 108158056.849 8  84279040.82846  20581783.734                    20581791.309
 11  8 18 18 36  0.0000000  0 10G28G13G17G19G11G01G07G24G26G08
 116917563.727 7  91104696.88545  22248681.391                    22248688.359
 123341851.465 7  96110615.57043  23471202.875                    23471212.117
 122015375.818 7  95077045.655 6  23218775.758                    23218785.219
 123325083.507 6  96097482.72844  23467985.961                    23467994.363
 113444280.613 7  88398208.34345  21587722.180                    21587729.203
 118577911.776 7  92398443.627 7  22564618.344                    22564630.371
 106773360.711 7  83200126.383 8  20318313.320                    20318320.191
 118409223.363 7  92267008.76544  22532521.391                    22532531.230
 123834582.068 6  96494557.88643  23564943.336                    23564952.941
 108108640.767 8  84240534.80746  20572380.203                    20572387.809
 11  8 18 18 36 30.0000000  0 10G28G13G17G19G11G01G07G24G26G08
 116891474.777 7  91084367.84745  22243717.063                    22243723.953
 123452389.347 7  96196748.83043  23492236.688                    23492247.375
 121923896.019 7  95005762.770 7  23201367.359                    23201377.180
 123425842.472 7  96175996.07244  23487161.313                    23487168.441
 113429846.475 8  88386960.96545  21584975.070                    21584982.625
 118519871.518 7  92353217.513 7  22553573.617                    22553585.813
 106779763.369 8  83205115.457 8  20319531.367                    20319538.820
 118357136.731 7  92226421.84744  22522609.500                    22522619.617
 123766640.829 6  96441616.70643  23552014.117                    23552024.121
 108059545.087 8  84202278.44346  20563037.555                    20563045.355
 11  8 18 18 37  0.0000000  0 10G28G13G17G19G11G01G07G24G26G08
 116865454.729 7  91064092.49445  22238765.641                    22238772.691
 123562992.670 6  96282933.05643  23513284.086                    23513294.156
 121832662.732 7  94934671.975 6  23184006.523                    23184015.766
 123526768.153 7  96254639.38744  23506365.961                    23506373.699
 113415963.348 8  88376142.95645  21582333.398                    21582340.922
 118462172.123 7  92308257.010 7  22542593.422                    22542605.816
 106786616.251 8  83210455.361 8  20320835.563                    20320842.902
 118305405.948 7  92186112.21144  22512765.703                    22512775.672
 123699194.685 6  96389061.30943  23539179.656                    23539189.457
 108010772.422 8  84164273.77446  20553756.461                    20553763.695
 11  8 18 18 37 30.0000000  0 10G28G13G17G19G11G01G07G24G26G08
 116839502.951 7  91043870.34845  22233826.906                    22233834.172
 123673658.438 6  96369165.95443  23534343.750                    23534353.637
 121741677.757 7  94863774.686 6  23166693.008                    23166702.238
 123627858.168 7  96333410.76044  23525604.008                    23525610.758
 113402632.401 8  88365755.22045  21579796.555                    21579803.957
 118404816.135 7  92263564.098 7  22531678.594                    22531691.195
 106793920.701 8  83216147.119 8  20322225.469                    20322232.855
 118254033.830 7  92146082.05844  22502989.617                    22502999.332
 123632246.047 7  96336893.58443  23526440.516                    23526449.082
 107962325.379 8  84126522.84146  20544537.273                    20544544.684
 11  8 18 18 38  0.0000000  0 10G28G13G17G19G11G01G07G24G26G08
 116813618.581 7  91023700.71245  22228901.406                    22228908.281
 123784383.791 6  96455445.26043  23555413.953                    23555423.789
 121650942.824 7  94793072.203 6  23149426.617                    23149435.617
 123729109.500 7  96412307.85344  23544871.523                    23544877.316
 113389854.676 8  88355798.57745  21577365.086                    21577372.074
 118347806.172 7  92219140.811 7  22520830.398                    22520842.672
 106801677.958 8  83222191.727 8  20323702.023                    20323708.555
 118203023.291 7  92106333.64744  22493282.695                    22493292.734
 123565796.814 7  96285115.02143  23513795.547                    23513804.371
 107914205.816 8  84089027.07546  20535380.523                    20535388.008
 11  8 18 18 38 30.0000000  0 10G28G13G17G19G11G01G07G24G26G08
 116787800.472 7  91003582.71745  22223988.258                    22223995.379
 123895165.453 6  96541768.43543  23576495.164                    23576504.977
 121560459.374 7  94722565.688 6  23132208.648                    23132216.844
 123830519.236 6  96491328.37344  23564168.039                    23564175.457
 113377631.057 8  88346273.69645  21575039.016                    21575046.469
 118291145.056 7  92174989.358 7  22510048.070                    22510059.840
 106809888.466 8  83228589.509 8  20325264.102                    20325271.281
 118152376.892 7  92066868.97744  22483644.633                    22483654.707
 123499849.127 7  96233727.27743  23501245.813                    23501255.000
 107866416.216 8  84051788.43746  20526286.672                    20526293.922
 11  8 18 18 39  0.0000000  0 10G28G13G17G19G11G01G07G24G26G08
 116762048.275 7  90983516.07145  22219088.211                    22219094.715
 124006000.821 6  96628133.49043  23597586.734                    23597596.738
 121470229.326 7  94652256.640 6  23115037.773                    23115047.262
 123932085.221 6  96570470.62444  23583496.273                    23583502.234
 113365963.324 8  88337181.97545  21572818.617                    21572826.102
 118234836.014 7  92131112.236 7  22499333.023                    22499344.613
 106818554.063 8  83235341.911 8  20326913.117                    20326920.465
 118102097.591 7  92027690.34944  22474076.758                    22474087.484
 123434405.422 7  96182732.24443  23488791.891                    23488801.266
 107818959.514 8  84014809.19546  20517255.359                    20517263.039
 11  8 18 18 39 30.0000000  0 10G28G13G17G19G11G01G07G24G26G08
 116736361.425 8  90963500.35645  22214199.406                    22214206.895
 124116886.658 6  96714537.88443  23618687.859                    23618697.258
 121380254.093 7  94582146.119 6  23097915.383                    23097924.473
 124033804.585 6  96649732.40444  23602852.422                    23602860.215
 113354852.375 8  88328524.12545  21570704.281                    21570711.551
 118178881.494 7  92087511.367 7  22488685.242                    22488696.957
 106827675.392 8  83242449.427 8  20328648.914                    20328655.828
 118052187.727 7  91988799.59744  22464579.461                    22464589.125
 123369467.829 7  96132131.57043  23476434.578                    23476443.246
 107771838.016 8  83978091.15946  20508288.680                    20508296.195
 11  8 18 18 40  0.0000000  0 10G28G13G17G19G11G01G07G24G26G08
 116710739.137 8  90943534.93345  22209323.984                    22209331.582
 124227820.315 6  96800979.44743  23639797.703                    23639807.602
 121290535.432 7  94512235.558 6  23080842.492                    23080852.570
 124135674.645 7  96729111.59944  23622238.852                    23622244.555
 113344299.249 8  88320300.91445  21568695.773                    21568703.359
 118123284.254 7  92044188.891 7  22478105.398                    22478117.086
 106837253.714 8  83249913.045 8  20330471.414                    20330478.523
 118002650.315 7  91950199.05844  22455152.648                    22455162.770
 123305038.133 6  96081926.68643  23464174.164                    23464183.574
 107725054.190 8  83941636.23446  20499386.086                    20499394.012
 11  8 18 18 40 30.0000000  0 10G28G13G17G19G11G01G07G24G26G08
 116685180.239 7  90923618.92645  22204460.672                    22204467.383
 124338798.543 7  96887455.79643  23660916.055                    23660926.000
 121201074.857 7  94442526.090 6  23063818.805                    23063828.023
 124237692.786 6  96808606.18344  23641651.820                    23641658.828
 113334304.756 8  88312513.02045  21566794.008                    21566801.578
 118068046.921 7  92001146.860 7  22467593.844                    22467605.766
 106847289.609 8  83257733.218 8  20332381.406                    20332388.344
 117953487.952 7  91911890.78245  22445797.773                    22445807.313
 123241118.691 7  96032119.36943  23452010.922                    23452020.063
 107678610.711 8  83905446.51546  20490548.203                    20490555.758
 11  8 18 18 41  0.0000000  0 10G28G13G17G19G11G01G07G24G26G08
 116659684.417 7  90903752.06345  22199608.953                    22199615.527
 124449818.743 7  96973964.86943  23682043.000                    23682052.516
 121111874.484 7  94373019.387 6  23046844.734                    23046854.191
 124339856.510 7  96888214.19244  23661093.195                    23661099.805
 113324870.495 8  88305161.67745  21564999.234                    21565006.234
 118013172.718 7  91958387.788 7  22457151.789                    22457162.816
 106857785.042 8  83265911.466 8  20334378.836                    20334386.035
 117904703.453 7  91873876.94844  22436514.086                    22436523.902
 123177711.676 7  95982711.36743  23439944.617                    23439953.910
 107632510.227 8  83869524.06946  20481775.352                    20481783.008
 11  8 18 18 41 30.0000000  0 10G28G13G17G19G11G01G07G24G26G08
 116634250.787 7  90883933.66345  22194768.656                    22194775.730
 124560877.544 7  97060504.01543  23703176.586                    23703186.824
 121022935.358 7  94303716.239 7  23029919.969                    23029929.742
 124442163.076 6  96967933.53144  23680560.625                    23680567.313
 113315996.806 8  88298247.12645  21563310.344                    21563317.781
 117958664.093 7  91915913.585 7  22446778.766                    22446790.355
 106868740.039 8  83274447.814 8  20336463.508                    20336470.250
 117856299.386 7  91836159.54544  22427302.688                    22427312.734
 123114818.806 6  95933704.01043  23427976.430                    23427986.547
 107586754.922 8  83833870.58546  20473068.359                    20473076.012
 11  8 18 18 42  0.0000000  0 10G28G13G17G19G11G01G07G24G26G08
 116608878.653 7  90864163.18045  22189940.563                    22189947.418
 124671972.374 6  97147071.20843  23724317.891                    23724327.828
 120934259.358 7  94234618.119 7  23013045.953                    23013054.961
 124544609.761 6  97047762.03344  23700055.523                    23700063.461
 113307684.960 8  88291770.38645  21561728.547                    21561735.793
 117904523.722 7  91873726.330 7  22436476.656                    22436488.629
 106880156.024 8  83283343.376 7  20338635.914                    20338642.969
 117808278.520 7  91798740.74144  22418164.836                    22418174.555
 123052442.254 6  95885098.93043  23416106.430                    23416115.965
 107541347.323 8  83798488.04946  20464427.625                    20464435.391
 11  8 18 18 42 30.0000000  0 10G28G13G17G19G11G01G07G24G26G08
 116583567.629 8  90844440.32045  22185124.125                    22185131.023
 124783100.535 7  97233664.40143  23745465.406                    23745474.969
 120845848.365 7  94165726.513 7  22996221.938                    22996231.375
 124647194.152 6  97127697.86643  23719577.125                    23719583.594
 113299936.124 8  88285732.34645  21560253.828                    21560261.078
 117850754.720 7  91831828.459 7  22426244.297                    22426255.934
 106892034.320 8  83292599.184 8  20340896.109                    20340903.602
 117760643.702 7  91761622.74844  22409100.531                    22409109.660
 122990584.332 6  95836897.98444  23404335.352                    23404345.250
 107496290.243 8  83763378.64746  20455853.438                    20455860.934
 11  8 18 18 43  0.0000000  0 10G28G13G17G19G11G01G07G24G26G08
 116558316.674 7  90824764.25745  22180319.188                    22180325.902
 124894258.455 7  97320280.75143  23766618.633                    23766628.590
 120757703.615 7  94097042.364 7  22979448.008                    22979457.121
 124749913.403 6  97207738.78143  23739123.398                    23739130.969
 113292750.664 8  88280133.30945  21558886.570                    21558893.742
 117797359.774 7  91790222.058 7  22416084.102                    22416095.227
 106904375.314 8  83302215.531 8  20343244.164                    20343251.586
 117713397.373 7  91724807.46944  22400109.461                    22400119.176
 122929246.586 6  95789102.38044  23392662.578                    23392673.086
 107451585.442 8  83728543.74046  20447346.445                    20447354.172
 11  8 18 18 43 30.0000000  0 10G28G13G17G19G11G01G07G24G26G08
 116533124.922 7  90805134.33145  22175525.117                    22175532.199
 125005443.361 6  97406918.10143  23787775.445                    23787786.527
 120669826.709 6  94028566.926 7  22962725.055                    22962734.801
 124852764.920 7  97287882.75644  23758696.586                    23758702.902
 113286129.779 8  88274974.19445  21557626.789                    21557633.488
 117744340.971 7  91748908.759 7  22405994.648                    22406006.527
 106917179.942 8  83312193.146 8  20345681.094                    20345688.035
 117666542.156 7  91688296.94744  22391193.508                    22391203.117
 122868431.169 6  95741713.77843  23381090.031                    23381099.984
 107407235.677 8  83693985.48246  20438906.945                    20438915.078
 11  8 18 18 44  0.0000000  0 10G28G13G17G19G11G01G07G24G26G08
 116507991.952 7  90785550.20745  22170742.156                    22170749.699
 125116652.199 6  97493574.10743  23808937.906                    23808948.355
 120582219.383 7  93960301.559 7  22946054.094                    22946063.574
 124955746.209 6  97368127.88244  23778292.695                    23778300.148
 113280074.480 8  88270255.79045  21556474.320                    21556481.648
 117691701.183 7  91707890.779 7  22395977.172                    22395989.078
 106930449.416 8  83322532.978 8  20348206.461                    20348213.223
 117620080.771 7  91652093.31444  22382352.281                    22382361.539
 122808140.044 6  95694733.70844  23369617.211                    23369626.996
 107363243.633 7  83659705.98146  20430535.500                    20430543.152
 11  8 18 18 44 30.0000000  0 10G28G13G17G19G11G01G07G24G26G08
 116482917.132 8  90766011.39745  22165971.242                    22165977.352
 125227882.412 7  97580246.81843  23830104.805                    23830115.027
 120494883.272 7  93892247.501 6  22929434.883                    22929443.281
 125058854.679 7  97448472.05344  23797913.977                    23797920.809
 113274585.532 7  88265978.70245  21555429.977                    21555437.066
 117639443.451 7  91667170.520 7  22386033.398                    22386044.609
 106944184.511 8  83333235.638 8  20350819.867                    20350827.141
 117574015.863 7  91616198.63344  22373585.625                    22373595.891
 122748375.145 6  95648163.68443  23358243.969                    23358253.840
 107319611.897 8  83625707.22546  20422232.688                    20422240.523
 11  8 18 18 45  0.0000000  0 10G28G13G17G19G11G01G07G24G26G08
 116457899.489 7  90746517.15045  22161210.180                    22161217.219
 125339130.891 6  97666933.66743  23851274.727                    23851285.527
 120407819.682 7  93824405.821 7  22912866.656                    22912876.070
 125162087.658 6  97528913.29643  23817557.742                    23817565.469
 113269663.740 8  88262143.54345  21554493.242                    21554500.535
 117587570.075 7  91626749.757 7  22376162.172                    22376173.574
 106958386.073 8  83344301.775 8  20353522.445                    20353529.234
 117528349.859 7  91580614.79444  22364895.961                    22364906.086
 122689138.402 6  95602005.22044  23346971.680                    23346981.605
 107276342.604 8  83591990.89346  20413998.758                    20414006.602
 11  8 18 18 45 30.0000000  0 10G28G13G17G19G11G01G07G24G26G08
 116432938.875 8  90727067.34345  22156460.117                    22156467.359
 125450395.141 6  97753632.88343  23872447.094                    23872458.602
 120321030.315 7  93756777.798 7  22896351.742                    22896360.727
 125265442.747 6  97609449.61044  23837226.367                    23837233.918
 113265309.752 7  88258750.83345  21553664.680                    21553671.848
 117536084.201 7  91586630.954 7  22366364.352                    22366375.691
 106973055.312 8  83355732.336 8  20356313.367                    20356320.961
 117483085.407 7  91545343.85444  22356282.789                    22356291.969
 122630431.850 6  95556259.86943  23335800.328                    23335809.578
 107233438.312 8  83558558.97946  20405834.500                    20405842.004
 11  8 18 18 46  0.0000000  0 10G28G13G17G19G11G01G07G24G26G08
 116408034.186 7  90707661.09345  22151721.320                    22151728.023
 125561671.795 6  97840341.71743  23893622.469                    23893634.242
 120234516.646 7  93689364.601 7  22879888.633                    22879898.211
 125368917.434 6  97690079.13843  23856916.258                    23856924.035
 113261524.708 8  88255801.46845  21552944.383                    21552951.801
 117484988.064 7  91546815.851 7  22356640.930                    22356652.566
 106988192.823 8  83367527.785 8  20359194.500                    20359201.527
 117438225.069 7  91510387.79745  22347745.484                    22347755.848
 122572257.243 6  95510929.03243  23324730.375                    23324739.574
 107190901.584 8  83525413.47946  20397739.836                    20397747.672
 11  8 18 18 46 30.0000000  0 10G28G13G17G19G11G01G07G24G26G08
 116383184.799 7  90688297.94745  22146992.391                    22146999.586
 125672958.132 6  97927058.09543  23914800.898                    23914811.359
 120148280.515 7  93622167.664 7  22863478.172                    22863487.121
 125472509.075 6  97770799.89344  23876629.813                    23876636.270
 113258309.457 8  88253296.06745  21552332.695                    21552339.559
 117434284.492 7  91507306.628 7  22346992.133                    22347003.797
 107003799.431 8  83379688.765 8  20362164.391                    20362171.734
 117393771.352 7  91475748.59944  22339286.656                    22339296.625
 122514616.442 6  95466014.15243  23313761.836                    23313770.824
 107148735.060 8  83492556.44746  20389716.047                    20389723.582
 11  8 18 18 47  0.0000000  0 10G28G13G17G19G11G01G07G24G26G08
 116358390.107 8  90668977.42245  22142274.328                    22142281.375
 125784251.273 6  98013779.76443  23935979.156                    23935990.246
 120062322.879 7  93555187.772 7  22847120.789                    22847130.449
 125576214.974 6  97851609.58343  23896364.727                    23896371.016
 113255664.172 7  88251234.81745  21551829.117                    21551836.898
 117383975.766 7  91468105.082 7  22337418.703                    22337430.059
 107019875.736 8  83392215.740 8  20365223.742                    20365230.793
 117349726.744 7  91441428.18044  22330904.969                    22330914.652
 122457511.129 7  95421516.56044  23302894.508                    23302904.020
 107106940.953 8  83459989.60946  20381762.766                    20381770.398
 11  8 18 18 47 30.0000000  0 10G28G13G17G19G11G01G07G24G26G08
 116333649.290 7  90649698.87245  22137565.734                    22137572.813
 125895548.241 6  98100504.41043  23957158.875                    23957169.059
 119976645.504 7  93488426.249 7  22830816.547                    22830826.410
 125680032.437 6  97932506.34144  23916121.070                    23916126.738
 113253589.833 7  88249618.44945  21551434.297                    21551441.703
 117334064.534 7  91429213.263 7  22327920.883                    22327932.590
 107036422.702 8  83405109.470 8  20368372.297                    20368379.168
 117306093.893 7  91407428.60944  22322601.906                    22322611.871
 122400943.342 6  95377437.79944  23292130.289                    23292138.961
 107065521.586 7  83427714.78146  20373881.063                    20373888.742
 11  8 18 18 48  0.0000000  0 10G28G13G17G19G11G01G07G24G26G08
 116308961.613 8  90630461.72945  22132868.117                    22132875.129
 126006846.205 6  98187229.82843  23978338.023                    23978349.016
 119891250.049 7  93421884.406 7  22814566.570                    22814575.676
 125783958.767 6  98013487.79944  23935897.133                    23935904.680
 113252087.037 7  88248447.43645  21551148.281                    21551155.262
 117284553.588 7  91390633.346 7  22318499.219                    22318510.879
 107053441.112 8  83418370.554 8  20371610.898                    20371617.797
 117262875.577 7  91373752.04244  22314377.844                    22314386.852
 122344914.815 7  95333779.24243  23281468.375                    23281477.402
 107024479.492 8  83395733.92946  20366071.391                    20366078.395
 11  8 18 18 48 30.0000000  0 10G28G13G17G19G11G01G07G24G26G08
 116284327.001 8  90611265.93645  22128180.273                    22128187.301
 126118142.212 6  98273953.76143  23999517.031                    23999528.008
 119806137.707 7  93355563.159 7  22798370.703                    22798379.398
 125887992.162 6  98094552.73444  23955693.641                    23955700.883
 113251156.156 8  88247722.07745  21550971.484                    21550978.824
 117235445.234 7  91352367.156 7  22309154.602                    22309165.766
 107070931.665 8  83431999.539 8  20374939.008                    20374945.863
 117220073.819 7  91340400.09244  22306232.359                    22306242.777
 122289427.058 7  95290542.08943  23270909.258                    23270918.172
 106983816.974 8  83364048.84946  20358332.859                    20358340.680
 11  8 18 18 49  0.0000000  0 10G28G13G17G19G11G01G07G24G26G08
 116259744.679 8  90592110.88845  22123502.758                    22123509.723
 126229433.608 6  98360674.10343  24020694.531                    24020706.238
 119721310.059 7  93289463.719 7  22782228.398                    22782237.871
 125992130.076 6  98175699.05944  23975509.563                    23975518.473
 113250798.368 8  88247443.28745  21550903.383                    21550910.539
 117186742.555 7  91314417.065 7  22299886.383                    22299898.172
 107088895.498 8  83445997.316 8  20378357.961                    20378364.727
 117177691.302 7  91307374.80245  22298167.211                    22298177.461
 122234482.267 7  95247727.99443  23260453.734                    23260462.949
 106943536.906 8  83332661.78746  20350668.383                    20350675.695
 11  8 18 18 49 30.0000000  0 10G28G13G17G19G11G01G07G24G26G08
 116235213.848 8  90572995.97245  22118834.531                    22118841.324
 126340717.637 6  98447388.70342  24041871.930                    24041882.500
 119636768.945 7  93223587.577 6  22766141.039                    22766148.766
 126096369.646 6  98256924.57444  23995347.648                    23995354.316
 113251014.027 8  88247611.33645  21550944.500                    21550951.480
 117138447.842 7  91276784.873 7  22290696.141                    22290707.656
 107107333.551 8  83460364.611 8  20381866.328                    20381873.520
 117135730.774 7  91274678.33044  22290182.898                    22290192.063
 122180082.140 7  95205338.33844  23250101.203                    23250110.648
 106903641.376 8  83301574.36546  20343076.320                    20343083.723
 11  8 18 18 50  0.0000000  0 10G28G13G17G19G11G01G07G24G26G08
 116210733.629 8  90553920.48545  22114176.180                    22114182.465
 126451991.056 6  98534095.03943  24063046.461                    24063056.852
 119552515.408 7  93157935.512 7  22750107.602                    22750116.574
 126200708.019 6  98338227.14544  24015201.086                    24015209.313
 113251803.585 8  88248226.57645  21551094.672                    21551101.781
 117090563.467 7  91239472.425 7  22281583.992                    22281595.402
 107126245.559 8  83475101.221 8  20385465.266                    20385472.098
 117094194.075 7  91242312.13044  22282278.531                    22282288.293
 122126228.023 7  95163374.11443  23239853.508                    23239862.348
 106864132.287 8  83270788.06346  20335558.195                    20335565.797
 11  8 18 18 50 30.0000000  0 10G28G13G17G19G11G01G07G24G26G08
 116186303.708 7  90534884.18745  22109527.281                    22109534.027
 126563251.244 6  98620791.01443  24084219.055                    24084230.668
 119468551.119 7  93092508.839 7  22734129.945                    22734138.531
 126305143.235 7  98419605.15544  24035075.734                    24035082.305
 113253167.780 7  88249289.58745  21551354.469                    21551361.164
 117043092.008 7  91202481.719 7  22272551.211                    22272562.031
 107145633.052 8  83490208.341 8  20389154.555                    20389161.848
 117053083.983 7  91210278.34844  22274455.125                    22274464.973
 122072921.705 7  95121836.75444  23229709.875                    23229718.777
 106825012.646 8  83240305.22646  20328113.727                    20328120.938
 11  8 18 18 51  0.0000000  0 10G28G13G17G19G11G01G07G24G26G08
 116161922.980 7  90515886.22945  22104887.594                    22104894.258
 126674495.236 6  98707474.39143  24105388.648                    24105399.488
 119384877.124 7  93027308.376 7  22718207.141                    22718215.895
 126409672.309 7  98501056.33243  24054966.250                    24054973.195
 113255106.798 7  88250800.52445  21551723.344                    21551730.090
 116996035.954 7  91165814.721 7  22263596.500                    22263607.695
 107165495.843 8  83505685.818 8  20392934.227                    20392941.070
 117012402.747 7  91178578.74044  22266713.695                    22266723.453
 122020164.767 7  95080727.50344  23219670.203                    23219679.324
 106786284.528 8  83210127.47046  20320743.914                    20320751.293
 11  8 18 18 51 30.0000000  0 10G28G13G17G19G11G01G07G24G26G08
 116137591.540 7  90496926.67145  22100257.594                    22100264.223
 126785720.516 6  98794143.14143  24126553.602                    24126564.676
 119301494.997 7  92962335.366 7  22702339.344                    22702349.113
 126514293.096 6  98582578.98343  24074875.695                    24074882.191
 113257621.705 8  88252760.19645  21552201.797                    21552208.938
 116949397.798 7  91129473.330 7  22254720.813                    22254732.465
 107185835.094 8  83521534.559 8  20396804.813                    20396811.754
 116972153.090 7  91147215.41144  22259054.891                    22259064.199
 121967958.963 7  95040047.66444  23209736.133                    23209745.066
 106747950.922 8  83180257.12646  20313449.008                    20313456.695
 11  8 18 18 52  0.0000000  0 10G28G13G17G19G11G01G07G24G26G08
 116113309.021 8  90478005.24045  22095636.391                    22095643.527
 126896924.103 6  98880795.03842  24147715.484                    24147726.762
 119218406.715 7  92897591.308 7  22686528.734                    22686537.770
 126619003.143 6  98664171.19543  24094799.414                    24094808.348
 113260712.316 7  88255168.46045  21552790.063                    21552797.031
 116903180.342 7  91093459.774 7  22245926.258                    22245937.996
 107206651.866 8  83537755.396 8  20400766.477                    20400773.219
 116932337.516 7  91116190.35044  22251477.906                    22251487.461
 121916306.179 7  94999798.79043  23199907.156                    23199915.766
 106710014.125 8  83150695.99046  20306230.430                    20306238.039
 11  8 18 18 52 30.0000000  0 10G28G13G17G19G11G01G07G24G26G08
 116089074.137 7  90459120.92145  22091025.141                    22091031.703
 127008103.109 6  98967427.72942  24168872.633                    24168883.641
 119135613.222 7  92833076.950 7  22670773.695                    22670782.520
 126723800.116 6  98745831.04543  24114743.063                    24114750.250
 113264379.508 7  88258026.02545  21553487.492                    21553494.883
 116857385.793 7  91057775.751 7  22237212.047                    22237223.258
 107227946.268 8  83554348.423 7  20404818.164                    20404825.430
 116892957.973 7  91085505.03644  22243984.148                    22243994.313
 121865207.700 6  94959981.81543  23190182.484                    23190191.668
 106672476.169 8  83121445.64346  20299087.008                    20299094.379
 11  8 18 18 53  0.0000000  0 10G28G13G17G19G11G01G07G24G26G08
 116064886.701 7  90440273.57745  22086422.477                    22086428.949
 127119254.978 6  99054039.25842  24190023.836                    24190035.215
 119053116.172 7  92768793.591 7  22655074.820                    22655084.008
 126828681.380 6  98827556.68343  24134701.094                    24134708.691
 113268623.815 8  88261333.28945  21554295.672                    21554302.871
 116812016.413 7  91022423.009 7  22228578.313                    22228589.570
 107249719.253 8  83571314.369 8  20408961.516                    20408968.402
 116854017.003 7  91055161.47044  22236574.180                    22236583.527
 121814665.360 6  94920598.19944  23180564.813                    23180574.375
 106635339.797 8  83092508.21146  20292020.328                    20292027.766
 11  8 18 18 53 30.0000000  0 10G28G13G17G19G11G01G07G24G26G08
 116040745.738 7  90421462.44845  22081828.469                    22081835.066
 127230376.453 6  99140627.11542  24211170.266                    24211181.250
 118970916.799 7  92704742.178 7  22639432.570                    22639441.398
 126933644.475 6  98909346.01143  24154675.219                    24154683.395
 113273445.017 7  88265090.06945  21555212.695                    21555219.992
 116767074.604 7  90987403.459 7  22220026.039                    22220037.945
 107271970.916 8  83588653.314 7  20413196.000                    20413203.141
 116815516.760 7  91025161.31944  22229248.359                    22229257.656
 121764680.292 7  94881648.84543  23171053.008                    23171062.094
 106598606.798 8  83063885.10346  20285030.398                    20285037.711
 11  8 18 18 54  0.0000000  0 10G28G13G17G19G11G01G07G24G26G08
 116016650.998 8  90402687.32445  22077243.281                    22077250.363
 127341464.851 6  99227189.24843  24232309.758                    24232320.816
 118889016.255 7  92640923.622 7  22623848.109                    22623856.551
 127038686.902 6  98991197.15244  24174664.273                    24174671.805
 113278843.975 8  88269297.06145  21556240.047                    21556247.422
 116722563.364 7  90952719.410 7  22211555.664                    22211567.277
 107294702.198 8  83606365.990 8  20417521.516                    20417528.668
 116777460.011 7  90995506.74245  22222005.625                    22222015.363
 121715254.291 6  94843135.09043  23161647.313                    23161656.520
 106562280.121 8  83035578.60346  20278117.328                    20278125.043
 11  8 18 18 54 30.0000000  0 10G28G13G17G19G11G01G07G24G26G08
 115992601.867 7  90383947.75945  22072666.961                    22072673.863
 127452517.795 6  99313723.73443  24253443.141                    24253454.586
 118807416.115 7  92577339.150 7  22608319.648                    22608328.266
 127143806.417 6  99073108.40644  24194667.484                    24194675.074
 113284820.960 8  88273954.45645  21557377.859                    21557384.750
 116678484.593 7  90918372.338 7  22203168.094                    22203179.590
 107317913.620 8  83624452.805 7  20421938.867                    20421945.863
 116739848.774 7  90966199.32945  22214848.594                    22214858.223
 121666388.750 7  94805058.08943  23152348.086                    23152357.426
 106526362.298 8  83007590.68546  20271282.531                    20271289.797
 11  8 18 18 55  0.0000000  0 10G28G13G17G19G11G01G07G24G26G08
 115968597.962 7  90365243.41945  22068099.055                    22068105.707
 127563532.359 6  99400228.34143  24274568.164                    24274580.422
 118726117.560 7  92513989.682 7  22592849.148                    22592858.363
 127249000.693 6  99155077.90244  24214685.586                    24214693.305
 113291376.344 7  88279062.55945  21558625.375                    21558632.438
 116634840.898 7  90884364.301 7  22194862.891                    22194874.074
 107341605.720 8  83642914.176 8  20426447.367                    20426453.762
 116702685.341 7  90937240.84245  22207776.070                    22207785.574
 121618085.415 7  94767419.16743  23143156.789                    23143166.086
 106490855.795 8  82979923.27646  20264525.805                    20264533.559
